     2              OBSERVATION DATA    G (GPS)             RINEX VERSION / TYPE
ASRINEXO V2.9.7 UX USGS/MENLO_PARK 05-OCT-99 13:57          PGM / RUN BY / DATE
                                                            COMMENT
National Earthquake Hazard Reduction Program                COMMENT
Crustal Strain Project                                      COMMENT
345 Middlefield Road, MS/977                                COMMENT
U.S. Geological Survey, Menlo Park, California 94025        COMMENT
Contact: kwendt@isdmnl.wr.usgs.gov (Ph: 650-329-4866)       COMMENT
HI's are vertical to base of antenna                        COMMENT
BIT 2 OF LLI (+4) FLAGS DATA COLLECTED UNDER "AS" CONDITION COMMENT
altu                                                        MARKER NAME
JJB                                                         OBSERVER / AGENCY
192 ASHTECH Z-XII3 CD00                                     REC # / TYPE / VERS
CR14333 ASH700936D_M NONE                                   ANT # / TYPE
 -2428238.0000 -4122224.0000  4205858.0000                  APPROX POSITION XYZ
        0.6271        0.0000        0.0000                  ANTENNA: DELTA H/E/N
     1     1                                                WAVELENGTH FACT L1/2
     5    C1    L1    L2    P1    P2                        # / TYPES OF OBSERV
    30                                                      INTERVAL
  1999     9    25    15    27   30.000000                  TIME OF FIRST OBS
                                                            END OF HEADER
 99  9 25 15 27 30.0000000  0  6 29 26 03 23 21 17
  23574423.003     -521530.534 8   -383965.50345  23574423.527    23574431.8774
  23612051.004      229418.698 8    169144.25646  23612051.517    23612058.2214
  22024046.113     -337629.803 8   -246783.01947  22024045.900    22024052.0334
  20925265.984       -4314.05047                  20925265.820    20925271.9974
  21933494.511      -37675.42846                  21933494.358    21933501.7174
  21045367.759       25310.252 9     18637.20047  21045367.475    21045374.1404
 99  9 25 15 28  0.0000000  0  6 29 26 03 23 21 17
  23311779.517    -1901731.569 8  -1459446.78945  23311779.840    23311788.3194
  23386231.888     -957268.834 8   -755547.37746  23386232.378    23386239.1294
  21771511.397    -1664707.962 8  -1280869.91447  21771511.306    21771517.4644
  20686342.732    -1293431.87019   -982665.19047  20686342.533    20686348.7094
  21680813.638    -1646657.09219  -1072362.18947  21680813.685    21680820.5674
  20809532.913    -1214010.718 9   -947067.47847  20809532.580    20809539.2124
 99  9 25 15 28 30.0000000  0  6 29 26 03 23 21 17
  23291709.144    -2007202.411 8  -1541631.81645  23291709.395    23291717.8654
  23403020.372     -869045.238 8   -686801.76746  23403020.785    23403027.5014
  21761611.804    -1716730.636 8  -1321407.08047  21761611.710    21761617.8814
  20690021.322    -1274101.049 9   -967602.23248  20690021.156    20690027.2814
  21670723.059    -1699683.799 9  -1113681.69547  21670723.001    21670729.9364
  20816301.244    -1178442.912 9   -919352.33847  20816300.945    20816307.6324
 99  9 25 15 29  0.0000000  0  6 29 26 03 23 21 17
  23271671.175    -2112502.425 8  -1623683.72545  23271671.407    23271679.9104
  23419878.203     -780456.720 8   -617771.81146  23419878.626    23419885.4434
  21751808.686    -1768245.900 8  -1361548.86647  21751808.646    21751814.8564
  20693762.419    -1254441.631 9   -952283.22348  20693762.256    20693768.3364
  21660684.875    -1752434.962 9  -1154786.48947  21660684.800    21660691.7504
  20823133.301    -1142540.296 9   -891376.30047  20823132.975    20823139.6874
 99  9 25 15 29 30.0000000  0  7 29 26 03 23 21 17 31
  23251663.403    -2217643.430 8  -1705611.71745  23251663.748    23251672.1284
  23436805.607     -691503.071 8   -548457.31646  23436806.007    23436812.7854
  21742105.311    -1819237.200 8  -1401282.36447  21742105.304    21742111.5754
  20697565.123    -1234458.589 9   -936712.04248  20697564.964    20697571.0204
  21650700.291    -1804904.425 9  -1195671.77847  21650700.202    21650707.1874
  20830029.167    -1106302.508 9   -863139.10147  20830028.861    20830035.5894
  24487852.537    -2165331.797 7  -1667854.85045  24487852.052    24487859.5574
 99  9 25 15 30  0.0000000  0  7 29 26 03 23 21 17 31
  23231681.316    -2322649.712 8  -1787434.71145  23231681.602    23231690.0994
  23453798.313     -602205.908 8   -478875.14646  23453798.663    23453805.5164
  21732503.628    -1869694.147 8  -1440599.47847  21732503.631    21732509.9974
  20701424.872    -1214175.590 9   -920907.13048  20701424.702    20701430.7954
  21640766.272    -1857108.154 9  -1236350.00347  21640766.149    21640773.1564
  20836989.480    -1069725.992 9   -834637.95347  20836989.182    20836995.8994
  24469123.541    -2263753.159 7  -1744546.84945  24469123.069    24469130.6524
 99  9 25 15 30 30.0000000  0  7 29 26 03 23 21 17 31
  23211728.142    -2427504.405 8  -1869139.57545  23211728.455    23211736.7984
  23470856.392     -512565.807 8   -409025.76346  23470856.694    23470863.6064
  21723007.977    -1919594.052 8  -1479482.53447  21723008.034    21723014.4494
  20705342.581    -1193587.667 9   -904864.61048  20705342.420    20705348.6014
  21630883.389    -1909043.246 9  -1276818.90447  21630883.271    21630890.2794
  20844015.789    -1032802.615 9   -805866.52947  20844015.488    20844022.2254
  24450440.188    -2361934.668 7  -1821051.96845  24450439.792    24450447.4104
 99  9 25 15 31  0.0000000  0  7 29 26 03 23 21 17 31
  23191803.973    -2532206.652 8  -1950725.65245  23191804.298    23191812.5484
  23487980.513     -422577.307 8   -338904.93145  23487980.890    23487987.9634
  21713617.385    -1968942.178 8  -1517935.63747  21713617.396    21713623.8554
  20709320.088    -1172685.803 9   -888577.45848  20709319.936    20709326.1504
  21621051.873    -1960708.097 9  -1317077.22147  21621051.747    21621058.8094
  20851109.405     -995525.590 9   -776819.52947  20851109.108    20851115.7994
  24431803.985    -2459869.920 7  -1897365.19545  24431803.424    24431810.9374
 99  9 25 15 31 30.0000000  0  7 29 26 03 23 21 17 31
  23171909.028    -2636755.552 8  -2032192.24146  23171909.371    23171917.5474
  23505171.916     -332236.144 8   -268509.31745  23505172.328    23505179.3394
  21704331.233    -2017741.221 8  -1555960.87747  21704331.274    21704337.7394
  20713357.886    -1151467.394 9   -872043.65248  20713357.721    20713363.9174
  21611272.245    -2012100.733 9  -1357123.42447  21611272.098    21611279.1364
  20858272.861     -957881.655 9   -747486.63747  20858272.568    20858279.2764
  24413216.341    -2557548.593 7  -1973478.49645  24413215.832    24413223.3874
 99  9 25 15 32  0.0000000  0  7 29 26 03 23 21 17 31
  23152044.446    -2741144.765 8  -2113534.39946  23152044.763    23152052.8654
  23522432.095     -241533.831 8   -197832.27845  23522432.448    23522439.5554
  21695146.919    -2066005.432 8  -1593569.36647  21695146.942    21695153.3764
  20717455.021    -1129937.296 9   -855266.96848  20717454.834    20717461.0094
  21601546.163    -2063211.783 9  -1396950.21147  21601546.021    21601553.0564
  20865506.402     -919869.544 9   -717866.84847  20865506.091    20865512.8154
  24394681.267    -2654951.647 7  -2049377.02545  24394680.764    24394688.2014
 99  9 25 15 32 30.0000000  0  7 29 26 03 23 21 17 31
  23132212.090    -2845364.158 8  -2194744.22746  23132212.422    23132220.5894
  23539764.492     -150451.788 8   -126859.34945  23539764.880    23539771.9984
  21686059.965    -2113757.876 8  -1630779.08047  21686059.973    21686066.3964
  20721609.780    -1108104.278 9   -838254.24448  20721609.578    20721615.7404
  21591874.251    -2114038.166 9  -1436555.18047  21591874.107    21591881.1054
  20872803.990     -881520.758 9   -687984.71747  20872803.689    20872810.4684
  24376198.147    -2752080.785 7  -2125062.10645  24376197.639    24376205.1144
 99  9 25 15 33  0.0000000  0  7 29 26 03 23 21 17 31
  23112411.530    -2949416.768 8  -2275824.10446  23112411.840    23112419.9664
  23557169.573      -58988.033 7    -55588.98245  23557169.950    23557177.0774
  21677066.049    -2161021.266 8  -1667607.71147  21677066.060    21677072.5194
  20725820.219    -1085978.702 9   -821013.55648  20725820.003    20725826.1564
  21582255.783    -2164583.646 9  -1475941.26747  21582255.645    21582262.6214
  20880162.115     -842853.895 9   -657854.73647  20880161.805    20880168.5774
  24357765.000    -2848947.308 7  -2200542.56145  24357764.591    24357771.9534
 99  9 25 15 33 30.0000000  0  7 29 26 03 23 21 17 31
  23092644.197    -3053294.473 8  -2356767.67646  23092644.445    23092652.6284
  23574643.588       32838.141 7     15963.78145  23574643.963    23574651.1014
  21668164.461    -2207799.217 8  -1704058.07547  21668164.512    21668171.0144
  20730084.559    -1063569.702 9   -803552.01648  20730084.311    20730090.4944
  21572689.005    -2214857.505 9  -1515115.69147  21572688.848    21572695.8264
  20887576.495     -803891.361 9   -627494.35547  20887576.192    20887582.9294
  24339382.500    -2945547.326 7  -2275815.32945  24339382.236    24339389.5804
 99  9 25 15 34  0.0000000  0  7 29 26 03 23 21 17 31
  23072911.715    -3156989.357 8  -2437568.81146  23072911.976    23072920.0614
  23592184.486      125015.716 7     87790.36745  23592184.850    23592191.9994
  21659354.066    -2254098.494 8  -1740135.45447  21659354.121    21659360.6734
  20734400.484    -1040889.208 9   -785878.92548  20734400.253    20734406.4494
  21563171.452    -2264872.879 9  -1554088.70247  21563171.297    21563178.2274
  20895045.815     -764640.164 9   -596909.04947  20895045.501    20895052.2554
  24321049.263    -3041889.071 7  -2350886.86045  24321048.988    24321056.4214
 99  9 25 15 34 30.0000000  0  7 29 26 03 23 21 17 31
  23053212.759    -3260508.089 8  -2518232.68146  23053212.983    23053221.0744
  23609788.930      217526.774 8    159876.79545  23609789.223    23609796.4704
  21650635.477    -2299915.414 8  -1775836.96447  21650635.507    21650642.0284
  20738767.308    -1017941.390 9   -767997.52948  20738767.100    20738773.3354
  21553698.608    -2314653.056 9  -1592878.44147  21553698.445    21553705.3624
  20902570.135     -725099.811 9   -566098.42047  20902569.822    20902576.5794
  24302763.776    -3137980.550 7  -2425763.35345  24302763.237    24302770.8824
 99  9 25 15 35  0.0000000  0  7 29 26 03 23 21 17 31
  23033545.473    -3363860.352 8  -2598766.84646  23033545.648    23033553.7394
  23627451.795      310345.638 7    232203.05945  23627452.145    23627459.4014
  21642011.561    -2345234.681 8  -1811150.70047  21642011.607    21642018.1094
  20743186.640     -994717.792 9   -749901.23648  20743186.421    20743192.6964
  21544269.510    -2364203.250 9  -1631488.97047  21544269.343    21544276.2654
  20910154.332     -685244.789 9   -535042.59847  20910154.022    20910160.8184
  24284526.610    -3233816.946 7  -2500441.09245  24284526.232    24284533.7544
 99  9 25 15 35 30.0000000  0  7 29 26 03 23 21 17 31
  23013911.150    -3467039.201 8  -2679165.88046  23013911.351    23013919.4414
  23645172.090      403465.861 8    304764.16045  23645172.438    23645179.8014
  21633485.710    -2390038.701 8  -1846062.94147  21633485.729    21633492.2144
  20747659.216     -971214.545 9   -731587.03748  20747659.014    20747665.2874
  21534885.584    -2413516.092 9  -1669914.56047  21534885.439    21534892.3674
  20917803.133     -645050.267 9   -503722.23147  20917802.796    20917809.6524
  24266340.188    -3329389.053 7  -2574912.88845  24266339.672    24266347.1304
 99  9 25 15 36  0.0000000  0  7 29 26 03 23 21 17 31
  22994310.874    -3570039.392 8  -2759425.71546  22994311.060    22994319.1234
  23662952.704      496902.752 7    377572.02145  23662952.958    23662960.3134
  21625061.260    -2434309.802 8  -1880559.91747  21625061.281    21625067.7304
  20752183.082     -947441.636 9   -713062.71248  20752182.863    20752189.1284
  21525547.763    -2462586.860 9  -1708151.51147  21525547.594    21525554.5124
  20925518.588     -604505.468 9   -472128.91447  20925518.285    20925525.1294
  24248200.700    -3424712.289 7  -2649190.74145  24248200.390    24248207.9354
 99  9 25 15 36 30.0000000  0  7 29 26 03 23 21 17 31
  22974744.002    -3672863.675 8  -2839548.46446  22974744.166    22974752.3144
  23680792.636      590652.110 7    450623.37245  23680792.928    23680800.3444
  21616740.540    -2478035.950 8  -1914632.24847  21616740.552    21616746.9774
  20756756.936     -923406.029 9   -694333.68848  20756756.726    20756762.9794
  21516258.399    -2511402.865 9  -1746189.94447  21516258.234    21516265.1574
  20933299.425     -563617.061 9   -440267.85347  20933299.118    20933305.9584
  24230108.107    -3519788.753 7  -2723276.34045  24230108.144    24230115.5294
 99  9 25 15 37  0.0000000  0  7 29 26 03 23 21 17 31
  22955212.515    -3775501.606 8  -2919525.99646  22955212.717    22955220.9264
  23698690.765      684708.452 7    523913.92745  23698691.198    23698698.6364
  21608524.227    -2521213.147 8  -1948276.83347  21608524.250    21608530.6754
  20761379.838     -899112.720 9   -675403.85348  20761379.606    20761385.8714
  21507020.883    -2559946.431 9  -1784016.09047  21507020.719    21507027.5704
  20941144.347     -522392.083 9   -408144.51847  20941144.028    20941150.8734
  24212064.058    -3614613.162 7  -2797165.48145  24212063.757    24212070.9414
 99  9 25 15 37 30.0000000  0  7 29 26 03 23 21 17 31
  22935718.846    -3877941.146 8  -2999348.94946  22935719.012    22935727.2714
  23716648.205      779075.202 7    597446.35145  23716648.626    23716656.1564
  21600412.248    -2563842.338 8  -1981494.40047  21600412.236    21600418.6674
  20766050.144     -874570.505 9   -656280.06548  20766049.903    20766056.1534
  21497834.834    -2608219.570 9  -1821631.51347  21497834.659    21497841.5314
  20949050.517     -480844.851 9   -375770.07847  20949050.204    20949057.0914
  24194066.687    -3709189.285 7  -2870861.19845  24194066.626    24194073.7874
 99  9 25 15 38  0.0000000  0  7 29 26 03 23 21 17 31
  22916261.806    -3980187.465 8  -3079021.32046  22916262.062    22916270.4554
  23734664.503      873751.255 7    671219.81545  23734664.953    23734672.5354
  21592403.896    -2605926.583 8  -2014287.33347  21592403.880    21592410.3554
  20770769.374     -849770.997 9   -636955.78948  20770769.126    20770775.3864
  21488699.343    -2656226.896 9  -1859039.81047  21488699.193    21488706.0094
  20957013.829     -438997.656 9   -343161.90147  20957013.511    20957020.4324
  24176117.378    -3803514.339 7  -2944361.26545  24176117.193    24176124.3294
 99  9 25 15 38 30.0000000  0  7 29 26 03 23 21 17 31
  22896840.926    -4082244.311 8  -3158546.07446  22896841.207    22896849.6164
  23752736.221      968717.492 7    745219.34845  23752736.533    23752744.1024
  21584498.283    -2647470.518 8  -2046659.24447  21584498.303    21584504.8234
  20775542.975     -824685.674 9   -617408.80648  20775542.731    20775548.9864
  21479615.252    -2703964.294 9  -1896237.77247  21479615.072    21479621.9284
  20965034.649     -396848.177 9   -310318.17747  20965034.349    20965041.2764
  24158222.467    -3897553.130 7  -3017638.26545  24158222.161    24158229.4014
 99  9 25 15 39  0.0000000  0  7 29 26 03 23 21 17 31
  22877458.190    -4184100.795 8  -3237914.69446  22877458.525    22877466.9834
  23770864.483     1063981.708 7    819451.10445  23770864.852    23770872.2974
  21576695.781    -2688472.779 8  -2078609.07047  21576695.794    21576702.3594
  20780376.092     -799287.535 9   -597618.07148  20780375.845    20780382.0944
  21470582.794    -2751430.089 9  -1933224.10047  21470582.615    21470589.4184
  20973115.753     -354381.963 9   -277227.65247  20973115.444    20973122.3844
  24140387.383    -3991276.671 7  -3090669.63345  24140387.218    24140394.4224
 99  9 25 15 39 30.0000000  0  7 29 26 03 23 21 17 31
  22858113.766    -4285756.174 8  -3317126.61846  22858114.057    22858122.5164
  23789053.340     1159563.774 7    893930.52745  23789053.710    23789061.2514
  21568996.198    -2728934.447 8  -2110137.66047  21568996.244    21569002.7524
  20785272.154     -773558.732 9   -577569.67448  20785271.916    20785278.1424
  21461602.788    -2798620.098 9  -1969995.53047  21461602.632    21461609.4934
  20981260.596     -311580.959 9   -243876.23947  20981260.226    20981267.1474
  24122612.991    -4084681.720 7  -3163452.82945  24122612.863    24122620.0324
 99  9 25 15 40  0.0000000  0  7 29 26 03 23 21 17 31
  22838807.589    -4387211.224 8  -3396182.44746  22838807.842    22838816.2134
  23807303.262     1255467.751 7    968660.78345  23807303.647    23807311.1494
  21561400.367    -2768851.069 8  -2141241.53847  21561400.403    21561406.8604
  20790233.224     -747488.113 9   -557254.92948  20790233.001    20790239.2354
  21452677.798    -2845521.399 9  -2006541.99647  21452677.670    21452684.4894
  20989473.439     -268422.219 9   -210246.08447  20989473.080    20989480.0214
  24104902.282    -4177751.829 7  -3235975.00145  24104902.214    24104909.2924
 99  9 25 15 40 30.0000000  0  7 29 26 03 23 21 17 31
  22819541.964    -4488452.848 8  -3475071.96546  22819542.170    22819550.4934
  23825614.519     1351692.850 7   1043641.25745  23825614.749    23825622.2334
  21553910.135    -2808212.880 8  -2171913.09047  21553910.148    21553916.5674
  20795258.637     -721079.414 9   -536676.74548  20795258.432    20795264.6694
  21443808.358    -2892130.493 9  -2042860.76947  21443808.200    21443815.0584
  20997758.798     -224882.669 9   -176319.19147  20997758.464    20997765.4024
  24087255.931    -4270483.645 7  -3308233.57545  24087255.850    24087263.0804
 99  9 25 15 41  0.0000000  0  7 29 26 03 23 21 17 31
  22800318.933    -4589470.436 8  -3553786.88846  22800319.168    22800327.4234
  23843988.034     1448245.416 8   1118876.93445  23843988.340    23843995.8154
  21546526.127    -2847016.518 8  -2202149.70047  21546526.100    21546532.5004
  20800345.734     -694346.677 9   -515846.06448  20800345.520    20800351.7744
  21434993.254    -2938454.220 9  -2078957.18047  21434993.103    21434999.9614
  21006119.163     -180948.891 9   -142085.11947  21006118.836    21006125.7764
  24069669.759    -4362901.045 7  -3380247.15745  24069669.464    24069676.7084
 99  9 25 15 41 30.0000000  0  7 29 26 03 23 21 17 31
  22781139.803    -4690257.531 8  -3632322.21846  22781140.055    22781148.2594
  23862422.708     1545120.556 8   1194363.95645  23862423.108    23862430.5874
  21539250.787    -2885249.020 8  -2231941.26847  21539250.777    21539257.1314
  20805491.661     -667304.850 9   -494774.53248  20805491.428    20805497.7074
  21426231.967    -2984495.171 9  -2114833.23847  21426231.818    21426238.6534
  21014553.786     -136624.889 9   -107546.97047  21014553.437    21014560.4154
  24052139.180    -4455025.003 7  -3452032.07945  24052138.950    24052146.2194
 99  9 25 15 42  0.0000000  0  7 29 26 03 23 21 17 31
  22762005.542    -4790808.809 8  -3710673.79146  22762005.761    22762013.9814
  23880914.805     1642296.521 8   1270085.38345  23880915.206    23880922.6124
  21532086.541    -2922897.430 8  -2261277.70847  21532086.527    21532092.9154
  20810694.450     -639963.912 9   -473469.93248  20810694.226    20810700.5224
  21417524.243    -3030254.885 9  -2150490.15847  21417524.077    21417530.9214
  21023059.768      -91925.910 9    -72716.63947  21023059.409    21023066.3964
  24034665.628    -4546849.509 7  -3523583.65845  24034665.437    24034672.7244
 99  9 25 15 42 30.0000000  0  7 29 26 03 23 21 17 31
  22742917.964    -4891114.422 8  -3788833.93146  22742918.185    22742926.4424
  23899464.562     1739775.620 8   1346043.03545  23899464.864    23899472.4894
  21525033.752    -2959960.078 8  -2290157.71147  21525033.759    21525040.1174
  20815953.683     -612326.685 9   -451934.45348  20815953.465    20815959.7604
  21408867.425    -3075746.572 9  -2185938.23047  21408867.269    21408874.1034
  21031633.226      -46872.058 8    -37609.78347  21031632.893    21031639.8934
  24017249.113    -4638374.628 7  -3594901.95145  24017248.864    24017256.1004
 99  9 25 15 43  0.0000000  0  7 29 26 03 23 21 17 31
  22723876.973    -4991175.508 8  -3866803.52446  22723877.187    22723885.3674
  23918070.900     1837552.656 8   1422232.84745  23918071.323    23918078.8474
  21518090.953    -2996444.745 8  -2318587.33947  21518090.956    21518097.3454
  20821264.645     -584417.667 9   -430187.18448  20821264.428    20821270.7074
  21400262.715    -3120964.686 9  -2221173.12047  21400262.527    21400269.4174
  21040271.582       -1477.536 9     -2237.47747  21040271.263    21040278.2364
  23999888.994    -4729602.618 8  -3665988.71445  23999888.803    23999895.9964
 99  9 25 15 43 30.0000000  0  7 29 26 03 23 21 17 31
  22704879.186    -5091008.971 8  -3944595.75146  22704879.449    22704887.5764
  23936731.976     1935616.377 8   1498646.03645  23936732.405    23936739.8054
  21511257.390    -3032355.260 8  -2346569.58147  21511257.416    21511263.7974
  20826624.254     -556253.118 9   -408240.80048  20826624.028    20826630.2744
  21391711.270    -3165902.860 9  -2256189.88347  21391711.097    21391717.9614
  21048970.226       44234.032 9     33381.87247  21048969.901    21048976.8864
  23982589.067    -4820515.246 7  -3736829.72945  23982588.839    23982596.0334
 99  9 25 15 44  0.0000000  0  7 29 26 03 23 21 17 31
  22685923.633    -5190621.003 8  -4022215.41846  22685923.882    22685931.9604
  23955445.385     2033955.820 7   1575274.07345  23955445.790    23955453.3564
  21504530.721    -3067704.331 8  -2374114.33147  21504530.733    21504537.1174
  20832031.128     -527839.999 9   -386100.71948  20832030.905    20832037.1524
  21383211.365    -3210570.245 9  -2290995.63147  21383211.181    21383218.0594
  21057727.751       90254.773 8     69242.14547  21057727.399    21057734.3964
  23965352.871    -4911092.051 7  -3807409.07445  23965352.701    23965359.7984
 99  9 25 15 44 30.0000000  0  8 29 26 03 23 21 17 31 09
  22667010.688    -5290008.730 8  -4099660.31446  22667010.965    22667018.9884
  23974209.786     2132562.732 7   1652110.50845  23974210.260    23974217.8204
  21497906.357    -3102515.761 8  -2401240.13847  21497906.359    21497912.7594
  20837481.438     -499198.520 9   -363782.70048  20837481.222    20837487.4824
  21374760.158    -3254981.642 9  -2325601.91047  21374759.982    21374766.8664
  21066545.752      136593.503 9    105350.19147  21066545.434    21066552.4374
  23948178.772    -5001342.936 7  -3877734.44645  23948178.541    23948185.6484
  24455854.163    -1766641.155 7  -1367026.79945  24455854.105    24455864.8184
 99  9 25 15 45  0.0000000  0  8 29 26 03 23 21 17 31 09
  22648136.135    -5389194.956 8  -4176948.18446  22648136.402    22648144.4434
  23993018.304     2231401.821 7   1729127.88645  23993018.749    23993026.2334
  21491379.042    -3136817.315 8  -2427968.64147  21491379.048    21491385.4614
  20842969.543     -470358.403 9   -341309.89548  20842969.332    20842975.6144
  21366354.616    -3299153.146 9  -2360021.26147  21366354.451    21366361.3094
  21075421.118      183233.774 8    141693.20747  21075420.790    21075427.7924
  23931062.159    -5091290.846 7  -3947823.73845  23931062.020    23931069.1044
  24444217.255    -1827793.428 7  -1414677.79045  24444217.240    24444227.8594
 99  9 25 15 45 30.0000000  0  8 29 26 03 23 21 17 31 09
  22629303.719    -5488159.623 8  -4254063.42246  22629304.029    22629311.9924
  24011874.740     2330492.925 7   1806341.63445  24011875.175    24011882.6974
  21484951.217    -3170595.829 8  -2454289.58447  21484951.218    21484957.6544
  20848502.383     -441283.162 9   -318653.87348  20848502.172    20848508.4994
  21357994.538    -3343085.860 9  -2394254.53347  21357994.358    21358001.2314
  21084356.800      230190.641 8    178282.92147  21084356.474    21084363.4744
  23914006.697    -5180919.122 7  -4017663.97545  23914006.438    23914013.3724
  24432630.845    -1888680.228 7  -1462121.90045  24432630.872    24432641.4794
 99  9 25 15 46  0.0000000  0  8 29 26 03 23 21 17 31 09
  22610518.581    -5586875.870 8  -4330985.07646  22610518.854    22610526.8764
  24030781.298     2429846.104 7   1883759.61345  24030781.696    24030789.0894
  21478622.883    -3203851.874 8  -2480203.40847  21478622.859    21478629.2934
  20854082.636     -411958.774 9   -295803.71048  20854082.429    20854088.7624
  21349678.707    -3386785.870 9  -2428306.47847  21349678.515    21349685.3864
  21093355.523      277478.994 8    215130.93247  21093355.184    21093362.2094
  23897009.078    -5270242.190 7  -4087266.38845  23897008.655    23897015.7754
  24421096.650    -1949293.185 7  -1509352.63645  24421096.667    24421107.3534
 99  9 25 15 46 30.0000000  0  8 29 26 03 23 21 17 31 09
  22591780.829    -5685343.349 8  -4407712.89846  22591781.066    22591789.0434
  24049738.583     2529466.654 7   1961385.94045  24049738.873    24049746.5294
  21472397.848    -3236564.862 8  -2505694.06547  21472397.828    21472404.2634
  20859711.221     -382380.359 9   -272755.60448  20859711.013    20859717.3584
  21341408.893    -3430244.001 9  -2462169.94947  21341408.730    21341415.5604
  21102418.189      325103.343 8    252240.76147  21102417.830    21102424.8794
  23880067.166    -5359272.457 7  -4156640.64345  23880066.764    23880073.8554
  24409617.254    -2009617.113 7  -1556358.14645  24409617.313    24409627.9584
 99  9 25 15 47  0.0000000  0  8 29 26 03 23 21 17 31 09
  22573089.191    -5783568.238 8  -4484251.68446  22573089.465    22573097.4014
  24068747.398     2629358.059 7   2039223.31545  24068747.792    24068755.3554
  21466280.390    -3268712.351 8  -2530744.08347  21466280.383    21466286.8184
  20865391.890     -352528.367 9   -249494.32248  20865391.690    20865398.0014
  21333187.289    -3473448.847 9  -2495836.04947  21333187.112    21333193.9674
  21111542.337      373051.257 9    289602.72147  21111542.003    21111549.0604
  23863183.296    -5447997.609 7  -4225777.13945  23863182.953    23863190.1184
  24398196.876    -2069631.283 7  -1603122.30645  24398196.990    24398207.4884
 99  9 25 15 47 30.0000000  0  8 29 26 03 23 21 17 31 09
  22554445.000    -5881544.082 8  -4560596.41646  22554445.223    22554453.0914
  24087806.213     2729511.689 7   2117265.01845  24087806.518    24087814.0354
  21460272.407    -3300284.516 8  -2555345.79447  21460272.412    21460278.8864
  20871126.163     -322394.758 9   -226013.60348  20871125.960    20871132.2454
  21325016.947    -3516384.427 9  -2529292.34247  21325016.768    21325023.5644
  21120728.887      421326.427 8    327219.68247  21120728.524    21120735.5854
  23846359.381    -5536407.431 7  -4294667.93045  23846358.949    23846366.3814
  24386838.726    -2129318.190 7  -1649631.43345  24386838.753    24386849.3864
 99  9 25 15 48  0.0000000  0  8 29 26 03 23 21 17 31 09
  22535849.309    -5979264.645 8  -4636742.23446  22535849.486    22535857.3554
  24106911.521     2829911.771 7   2195498.76045  24106912.033    24106919.5874
  21454375.611    -3331272.305 8  -2579492.14947  21454375.595    21454382.1274
  20876913.917     -291980.048 9   -202313.84248  20876913.693    20876919.9874
  21316901.149    -3559033.296 9  -2562525.22047  21316900.957    21316907.8224
  21129977.811      469929.667 8    365092.28647  21129977.481    21129984.5044
  23829597.978    -5624489.030 7  -4363302.96145  23829597.632    23829604.9544
  24375547.277    -2188654.731 7  -1695867.57845  24375547.300    24375557.9454
 99  9 25 15 48 30.0000000  0  8 29 26 03 23 21 17 31 09
  22517300.395    -6076739.491 8  -4712696.59446  22517300.607    22517308.4464
  24126063.038     2930552.425 7   2273919.95345  24126063.374    24126070.9834
  21448590.651    -3361672.459 8  -2603180.61047  21448590.660    21448597.2014
  20882755.504     -261282.383 9   -178393.60048  20882755.289    20882761.5954
  21308842.827    -3601380.226 9  -2595522.82347  21308842.655    21308849.4464
  21139289.074      518860.175 8    403219.90347  21139288.715    21139295.7344
  23812902.945    -5712222.368 8  -4431666.62445  23812902.651    23812909.9564
  24364323.618    -2247634.572 7  -1741825.78545  24364323.710    24364334.2954
 99  9 25 15 49  0.0000000  0  8 29 26 03 23 21 17 31 09
  22498801.907    -6173949.207 8  -4788444.35346  22498802.123    22498809.9474
  24145260.477     3031434.947 7   2352529.66245  24145260.774    24145268.3494
  21442913.211    -3391507.649 8  -2626428.83547  21442913.250    21442919.7714
  20888652.880     -230291.565 9   -154244.92648  20888652.637    20888658.9724
  21300843.523    -3643416.808 9  -2628278.58947  21300843.343    21300850.1274
  21148662.615      568118.229 8    441602.74747  21148662.246    21148669.2854
  23796277.447    -5799590.128 7  -4499745.40645  23796277.110    23796284.4184
  24353169.070    -2306251.827 7  -1787501.47245  24353169.132    24353179.5474
 99  9 25 15 49 30.0000000  0  8 29 26 03 23 21 17 31 09
  22480355.487    -6270885.382 8  -4863978.97646  22480355.713    22480363.4984
  24164506.024     3132570.223 7   2431336.32745  24164506.330    24164513.8174
  21437341.448    -3420787.777 8  -2649244.54747  21437341.447    21437347.9494
  20894603.646     -199020.171 9   -129877.62248  20894603.417    20894609.7554
  21292902.300    -3685148.566 9  -2660796.83747  21292902.111    21292908.8794
  21158100.297      617713.390 8    480248.26947  21158099.932    21158106.9744
  23779722.799    -5886585.824 8  -4567534.29045  23779722.471    23779729.6974
  24342083.757    -2364504.777 7  -1832893.28945  24342083.816    24342094.1174
 99  9 25 15 50  0.0000000  0  8 29 26 03 23 21 17 31 09
  22461958.976    -6367559.264 8  -4939309.21146  22461959.229    22461966.9784
  24183803.461     3233978.876 7   2510356.01445  24183803.841    24183811.4524
  21431874.701    -3449516.071 8  -2671630.25747  21431874.702    21431881.1614
  20900606.694     -167474.286 9   -105296.43748  20900606.461    20900612.7854
  21285014.749    -3726597.897 9  -2693095.01447  21285014.561    21285021.3214
  21167601.202      667640.777 8    519152.66947  21167600.855    21167607.9134
  23763238.581    -5973211.073 7  -4635034.48445  23763238.222    23763245.3434
  24331067.262    -2422396.911 7  -1878003.98845  24331067.482    24331077.3914
 99  9 25 15 50 30.0000000  0  8 29 26 03 23 21 17 31 09
  22443610.475    -6463980.758 8  -5014442.79846  22443610.781    22443618.4664
  24203153.443     3335664.070 7   2589591.17545  24203153.855    24203161.7164
  21426513.645    -3477688.663 8  -2693582.94847  21426513.683    21426520.1194
  20906659.922     -135664.677 9    -80509.75548  20906659.671    20906665.9754
  21277178.271    -3767778.902 9  -2725184.11047  21277178.096    21277184.8934
  21177166.974      717908.935 8    558322.59747  21177166.632    21177173.7004
  23746823.929    -6059469.621 7  -4702248.94745  23746823.766    23746830.9644
  24320116.317    -2479943.844 7  -1922845.67145  24320116.344    24320126.6634
 99  9 25 15 51  0.0000000  0  8 29 26 03 23 21 17 31 09
  22425311.877    -6560140.837 8  -5089372.69246  22425312.140    22425319.7424
  24222555.223     3437620.587 7   2669037.75745  24222555.624    24222563.5524
  21421258.023    -3505307.525 8  -2715104.16147  21421258.022    21421264.4864
  20912761.574     -103600.689 9    -55524.86048  20912761.327    20912767.5614
  21269389.122    -3808711.161 9  -2757079.37647  21269388.938    21269395.7214
  21186799.569      768528.241 8    597766.15547  21186799.234    21186806.3074
  23730477.833    -6145369.509 7  -4769183.90745  23730477.502    23730484.8014
  24309229.030    -2537157.022 7  -1967427.26545  24309229.031    24309239.4154
 99  9 25 15 51 30.0000000  0  8 29 26 03 23 21 17 31 09
  22407060.350    -6656053.464 8  -5164109.76546  22407060.575    22407068.1884
  24242008.079     3539846.683 7   2748694.38645  24242008.516    24242016.6754
  21416111.948    -3532350.442 8  -2736176.58147  21416111.934    21416118.4284
  20918908.919      -71296.312 9    -30352.64948  20918908.671    20918914.8844
  21261645.357    -3849405.155 9  -2788788.98747  21261645.149    21261651.9384
  21196499.863      819503.287 8    637486.90447  21196499.538    21196506.6084
  23714198.534    -6230916.758 7  -4835844.09945  23714198.402    23714205.8654
  24298402.940    -2594047.925 7  -2011757.80845  24298402.975    24298413.3974
 99  9 25 15 52  0.0000000  0  8 29 26 03 23 21 17 31 09
  22388855.469    -6751720.700 8  -5238655.62446  22388855.707    22388863.3014
  24261509.657     3642327.073 7   2828549.16445  24261509.976    24261518.3024
  21411078.451    -3558801.722 8  -2756787.99647  21411078.479    21411084.9664
  20925103.972      -38741.348 9     -4985.17348  20925103.732    20925109.9374
  21253948.290    -3889853.504 9  -2820307.17847  21253948.108    21253954.8964
  21206266.865      870828.728 8    677480.68647  21206266.507    21206273.5844
  23697985.679    -6316116.342 7  -4902233.38545  23697985.446    23697993.0304
  24287636.364    -2650626.035 7  -2055844.57945  24287636.519    24287646.9124
 99  9 25 15 52 30.0000000  0  8 29 26 03 23 21 17 31 09
  22370702.800    -6847113.571 8  -5312987.69646  22370703.094    22370710.6404
  24281055.828     3745042.547 7   2908587.12945  24281056.185    24281064.5324
  21406158.679    -3584655.681 8  -2776933.96247  21406158.685    21406165.1454
  20931347.333       -5932.416 9     20580.20148  20931347.070    20931353.3264
  21246301.053    -3930040.087 9  -2851621.39647  21246300.852    21246307.5924
  21216101.566      922510.137 8    717751.84047  21216101.209    21216108.2784
  23681838.198    -6400971.579 7  -4968354.36545  23681838.015    23681845.5314
  24276932.494    -2706875.496 7  -2099675.24745  24276932.679    24276942.9994
 99  9 25 15 53  0.0000000  0  8 29 26 03 23 21 17 31 09
  22352602.793    -6942229.944 8  -5387104.30446  22352603.055    22352610.6084
  24300647.274     3847995.784 7   2988810.38545  24300647.652    24300655.8034
  21401352.376    -3609913.012 8  -2796615.01847  21401352.372    21401358.7724
  20937639.882       27135.271 9     46347.19848  20937639.624    20937645.9294
  21238707.398    -3969945.099 9  -2882716.20647  21238707.199    21238713.9694
  21226001.736      974535.428 8    758290.95947  21226001.365    21226008.4394
  23665757.527    -6485475.940 7  -5034201.92045  23665757.297    23665764.8464
  24266296.646    -2762767.282 7  -2143227.23445  24266296.663    24266306.9844
 99  9 25 15 53 30.0000000  0  8 29 26 03 23 21 17 31 09
  22334555.413    -7037069.764 8  -5461005.42446  22334555.599    22334563.1664
  24320282.340     3951178.394 7   3069212.36345  24320282.689    24320290.8934
  21396661.474    -3634564.300 8  -2815823.83047  21396661.440    21396667.8144
  20943980.515       60455.655 9     72311.10447  20943980.254    20943986.5984
  21231169.371    -4009557.602 9  -2913583.09247  21231169.167    21231175.9224
  21235964.082     1026887.778 8    799084.93147  21235963.728    21235970.8224
  23649744.960    -6569622.217 7  -5099770.44645  23649744.802    23649752.3894
  24255732.115    -2818283.892 7  -2186486.85945  24255732.216    24255742.3654
 99  9 25 15 54  0.0000000  0  8 29 26 03 23 21 17 31 09
  22316562.140    -7131625.130 8  -5534684.89046  22316562.295    22316569.8344
  24339958.755     4054578.126 7   3149783.53445  24339959.007    24339967.3714
  21392084.096    -3658618.604 8  -2834567.45947  21392084.088    21392090.4504
  20950369.074       94027.651 9     98471.07547  20950368.801    20950375.1824
  21223685.763    -4048884.203 9  -2944227.19547  21223685.568    21223692.3274
  21245989.946     1079574.049 8    840139.10547  21245989.588    21245996.7694
  23633800.816    -6653409.558 7  -5165059.27645  23633800.670    23633808.1774
  24245242.869    -2873405.690 7  -2229438.86545  24245242.868    24245252.9954
 99  9 25 15 54 30.0000000  0  8 29 26 03 23 21 17 31 09
  22298624.038    -7225890.275 8  -5608138.21246  22298624.254    22298631.7394
  24359675.104     4158188.217 7   3230518.58945  24359675.318    24359683.6954
  21387617.918    -3682088.536 8  -2852855.74347  21387617.920    21387624.3274
  20956803.321      127839.482 9    124817.92947  20956803.037    20956809.4084
  21216253.951    -4087938.619 9  -2974659.20447  21216253.753    21216260.5194
  21256080.352     1132599.165 8    881457.31747  21256080.002    21256087.1574
  23617925.104    -6736836.687 7  -5230067.41845  23617925.021    23617932.4524
  24234831.676    -2928116.109 7  -2272070.29645  24234831.645    24234841.8274
 99  9 25 15 55  0.0000000  0  8 29 26 03 23 21 17 31 09
  22280738.457    -7319879.701 8  -5681376.68246  22280738.646    22280746.1084
  24379430.325     4262002.215 7   3311412.53345  24379430.581    24379438.9054
  21383262.974    -3704974.149 8  -2870688.70947  21383262.965    21383269.4444
  20963280.770      161878.595 9    151341.88947  20963280.513    20963286.8914
  21208870.320    -4126740.102 9  -3004894.12647  21208870.115    21208876.8484
  21266234.339     1185958.330 8    923035.82147  21266233.972    21266241.1464
  23602120.563    -6819889.858 7  -5294784.16645  23602120.562    23602127.9174
  24224496.180    -2982429.753 7  -2314392.56445  24224496.091    24224506.2854
 99  9 25 15 55 30.0000000  0  8 29 26 03 23 21 17 31 09
  22262906.134    -7413588.951 8  -5754396.83346  22262906.321    22262913.7304
  24399220.957     4366002.111 7   3392451.33145  24399221.240    24399229.6174
  21379019.073    -3727276.034 8  -2888066.82447  21379019.053    21379025.5924
  20969800.789      196141.274 9    178040.05747  20969800.539    20969806.8564
  21201529.648    -4165315.516 9  -3034952.88547  21201529.437    21201536.1844
  21276452.392     1239654.191 8    964876.69447  21276452.029    21276459.1684
  23586385.501    -6902578.118 7  -5359216.54945  23586385.455    23586392.8394
  24214232.452    -3036365.771 7  -2356420.57345  24214232.396    24214242.6134
 99  9 25 15 56  0.0000000  0  8 29 26 03 23 21 17 31 09
  22245127.077    -7507018.484 8  -5827199.02046  22245127.239    22245134.6574
  24419046.700     4470186.932 7   3473634.23945  24419046.966    24419055.3324
  21374885.044    -3749000.345 8  -2904994.88347  21374885.035    21374891.6184
  20976366.570      230644.508 9    204925.66647  20976366.324    20976372.6174
  21194232.042    -4203664.754 9  -3064835.40247  21194231.819    21194238.5354
  21286734.406     1293686.188 8   1006979.48847  21286734.041    21286741.2274
  23570720.542    -6984897.820 8  -5423361.76045  23570720.489    23570727.9724
  24204039.493    -3089929.679 7  -2398158.61945  24204039.313    24204049.7194
 99  9 25 15 56 30.0000000  0  8 29 26 03 23 21 17 31 09
  22227402.136    -7600163.077 8  -5899779.17646  22227402.330    22227409.7204
  24438907.872     4574557.310 7   3554961.73245  24438908.005    24438916.2924
  21370861.579    -3770143.843 8  -2921470.35747  21370861.580    21370868.2104
  20982978.561      265390.602 9    232000.51947  20982978.296    20982984.5714
  21186981.436    -4241766.876 9  -3094525.36647  21186981.238    21186987.9764
  21297077.377     1348038.769 8   1049332.09047  21297077.020    21297084.2354
  23555129.537    -7066830.031 8  -5487205.02345  23555129.323    23555136.8494
  24193916.800    -3143124.492 7  -2439609.06845  24193916.820    24193927.0164
 99  9 25 15 57  0.0000000  0  8 29 26 03 23 21 17 31 09
  22209730.543    -7693028.048 8  -5972141.43546  22209730.693    22209738.0844
  24458805.425     4679119.179 7   3636438.41545  24458805.512    24458813.7594
  21366950.074    -3790699.105 8  -2937487.46947  21366950.078    21366956.6934
  20989636.992      300380.606 9    259265.43247  20989636.717    20989642.9734
  21179779.514    -4279613.436 9  -3124016.18347  21179779.304    21179786.0264
  21307482.165     1402715.977 8   1091937.64747  21307481.827    21307489.0564
  23539613.327    -7148368.385 8  -5550741.40445  23539613.205    23539620.7394
  24183863.576    -3195954.454 7  -2480775.22445  24183863.620    24183873.6634
 99  9 25 15 57 30.0000000  0  8 29 26 03 23 21 17 31 09
  22192113.024    -7785608.847 8  -6044282.25646  22192113.140    22192120.5254
  24478742.852     4783891.283 7   3718078.91045  24478742.929    24478751.2404
  21363150.123    -3810668.278 9  -2953047.88947  21363150.119    21363156.7474
  20996343.665      335624.258 9    286727.99447  20996343.394    20996349.6554
  21172628.733    -4317190.932 9  -3153297.34147  21172628.534    21172635.2444
  21317950.444     1457726.924 8   1134803.25247  21317950.080    21317957.3044
  23524170.351    -7229522.053 8  -5613978.02645  23524170.196    23524177.6744
  24173882.308    -3248405.855 7  -2521646.37745  24173882.410    24173892.2964
 99  9 25 15 58  0.0000000  0  8 29 26 03 23 21 17 31 09
  22174548.390    -7877911.271 8  -6116206.16846  22174548.540    22174555.9354
  24498721.136     4888877.690 7   3799886.40245  24498721.138    24498729.3714
  21359459.548    -3830062.817 9  -2968160.53847  21359459.534    21359466.1084
  21003096.234      371109.031 9    314378.44247  21003095.969    21003102.2344
  21165532.050    -4354484.518 9  -3182357.26347  21165531.817    21165538.5174
  21328481.861     -904034.48945                  21328481.460    21328488.6104
  23508801.998    -7310283.092 8  -5676908.72445  23508801.895    23508809.3434
  24163972.723    -3300480.261 7  -2562223.76845  24163972.820    24163982.9174
 99  9 25 15 58 30.0000000  0  8 29 26 03 23 21 17 31 09
  22157039.808    -7969919.107 8  -6187900.52846  22157040.001    22157047.4294
  24518743.989     4994097.473 7   3881875.75445  24518744.017    24518752.0724
  21355880.313    -3848872.322 8  -2982817.32847  21355880.262    21355886.7814
  21009892.816      406825.236 9    342209.22047  21009892.524    21009898.8454
  21158490.343    -4391488.944 9  -3211191.87047  21158490.142    21158496.8604
  21339078.855    -1096100.900 8   -860640.84347  21339078.763    21339085.9844
  23493511.611    -7390635.191 7  -5739520.75845  23493511.441    23493518.8584
  24154137.435    -3352164.694 7  -2602497.30345  24154137.599    24154147.5004
 99  9 25 15 59  0.0000000  0  8 29 26 03 23 21 17 31 09
  22139587.932    -8061629.080 8  -6259362.79046  22139588.112    22139595.5964
  24538811.857     5099554.517 7   3964049.99245  24538811.954    24538820.0574
  21352411.605    -3867100.451 8  -2997021.09247  21352411.553    21352418.0644
  21016731.614      442763.373 9    370212.92847  21016731.310    21016737.6934
  21151500.925    -4428218.573 9  -3239812.35747  21151500.721    21151507.4224
  21349744.961    -1040053.588 8   -816967.68247  21349744.199    21349751.5304
  23478295.507    -7470595.792 7  -5801827.72245  23478295.285    23478302.7734
  24144375.034    -3403466.430 7  -2642472.59945  24144375.067    24144384.9084
 99  9 25 15 59 30.0000000  0  8 29 26 03 23 21 17 31 09
  22122194.023    -8153034.299 8  -6330587.57146  22122194.224    22122201.7574
  24558921.530     5205231.975 7   4046395.98145  24558921.662    24558929.8524
  21349049.836    -3884766.788 9  -3010787.09847  21349049.800    21349056.2334
  21023612.179      478921.197 9    398387.82147  21023611.886    21023618.3054
  21144563.996    -4464672.207 9  -3268217.77747  21144563.793    21144570.5104
  21360474.758     -983666.767 8   -773029.95847  21360474.341    21360481.6274
  23463153.402    -7550167.827 8  -5863831.89745  23463153.177    23463160.6874
  24134685.617    -3454383.769 7  -2682148.35445  24134685.695    24134695.6984
 99  9 25 16  0  0.0000000  0  7 29 03 23 21 17 31 09
  22104852.405    -8244164.577 8  -6401598.11746  22104852.649    22104860.1504
  21345790.007    -3901897.619 8  -3024135.82547  21345789.947    21345796.4004
  21030526.490      515256.100 9    426700.69947  21030526.240    21030532.6464
  21137672.709    -4500886.197 9  -3296436.46547  21137672.504    21137679.2294
  21371259.601     -926991.370 8   -728867.37947  21371259.275    21371266.6094
  23448080.561    -7629375.995 8  -5925552.55445  23448080.332    23448087.8174
  24125061.828    -3504958.061 7  -2721556.80545  24125061.787    24125071.6324
 99  9 25 16  0 30.0000000  0  7 29 03 23 21 17 31 09
  22087574.450    -8334960.762 8  -6472348.33946  22087574.691    22087582.1144
  21342645.832    -3918420.524 8  -3037010.84647  21342645.774    21342652.2034
  21037486.458      551830.721 9    455200.37147  21037486.201    21037492.5914
  21130834.997    -4536818.715 9  -3324435.82447  21130834.797    21130841.5434
  21382110.464     -869969.986 8   -684435.19147  21382110.083    21382117.4424
  23433085.504    -7708175.825 8  -5986955.02445  23433085.372    23433092.6634
  24115516.084    -3555121.822 7  -2760645.36345  24115516.066    24115525.7214
 99  9 25 16  1  0.0000000  0  7 29 03 23 21 17 31 09
  22070359.326    -8425426.912 8  -6542841.38246  22070359.528    22070366.9194
  21339617.529    -3934334.365 8  -3049411.26947  21339617.440    21339623.8634
  21044493.635      588653.153 9    483893.14147  21044493.370    21044499.7294
  21124050.501    -4572471.332 9  -3352217.08347  21124050.304    21124057.0644
  21393024.181     -812618.371 8   -639745.68447  21393023.788    21393031.1124
  23418164.359    -7786587.421 8  -6048054.96945  23418164.182    23418171.5074
  24106049.850    -3604867.109 7  -2799407.81145  24106049.899    24106059.5014
 99  9 25 16  1 30.0000000  0  7 29 03 23 21 17 31 09
  22053205.933    -8515568.774 8  -6613081.75546  22053206.123    22053213.4074
  21336706.553    -3949631.742 8  -3061331.33447  21336706.486    21336712.9414
  21051550.521      625737.118 9    512789.70447  21051550.245    21051556.5644
  21117320.183    -4607839.582 9  -3379776.75747  21117319.974    21117326.7134
  21403999.543     -754942.931 8   -594803.85047  21403999.150    21404006.4724
  23403319.382    -7864598.586 8  -6108842.90045  23403319.159    23403326.4704
  24096665.072    -3654183.508 7  -2837836.04445  24096665.166    24096674.8834
 99  9 25 16  2  0.0000000  0  7 29 03 23 21 17 31 09
  22036113.903    -8605387.956 8  -6683070.69046  22036114.105    22036121.2644
  21333916.398    -3964294.035 9  -3072756.52747  21333916.347    21333922.8174
  21058655.345      663073.022 9    541882.58847  21058655.076    21058661.3884
  21110642.194    -4642932.471 9  -3407121.87047  21110641.997    21110648.7704
  21415039.246     -696929.007 8   -549598.25347  21415038.857    21415046.1964
  23388551.585    -7942204.650 8  -6169315.17445  23388551.362    23388558.5704
  24087360.526    -3703078.547 7  -2875935.92745  24087360.558    24087370.4764
 99  9 25 16  2 30.0000000  0  7 29 03 23 21 17 31 09
  22019083.958    -8694880.927 8  -6752805.41746  22019084.115    22019091.3064
  21331242.514    -3978345.731 9  -3083705.93647  21331242.458    21331248.9854
  21065808.664      700663.810 9    571174.08047  21065808.384    21065814.7154
  21104016.091    -4677752.888 9  -3434254.67247  21104015.884    21104022.6364
  21426145.559     -638565.248 8   -504120.06547  21426145.178    21426152.5344
  23373862.816    -8019395.090 8  -6229463.58145  23373862.532    23373869.7194
  24078138.500    -3751539.735 7  -2913697.76345  24078138.542    24078148.5954
 99  9 25 16  3  0.0000000  0  7 29 03 23 21 17 31 09
  22002116.612    -8784044.986 8  -6822283.85947  22002116.742    22002123.9414
  21328680.017    -3991811.933 9  -3094199.11647  21328679.982    21328686.5274
  21073007.647      738494.611 9    600652.59547  21073007.390    21073013.7484
  21097442.042    -4712299.938 9  -3461174.45947  21097441.825    21097448.5834
  21437317.631     -579855.951 8   -458372.62947  21437317.254    21437324.6334
  23359256.924    -8096149.710 8  -6289272.38045  23359256.633    23359263.7874
  24068996.902    -3799578.169 7  -2951130.19045  24068996.960    24069007.1054
 99  9 25 16  3 30.0000000  0  7 29 03 23 21 17 31 09
  21985210.031    -8872889.213 8  -6891513.08547  21985210.176    21985217.4634
  21326227.574    -4004699.962 9  -3104241.77147  21326227.540    21326234.0854
  21080247.825      776542.045 9    630299.91747  21080247.578    21080253.9794
  21090916.439    -4746592.005 9  -3487895.55647  21090916.233    21090923.0094
  21448555.685     -520799.985 8   -412355.05747  21448555.294    21448562.6504
  23344734.978    -8172463.191 8  -6348737.43845  23344734.776    23344741.7984
  24059933.152    -3847208.018 7  -2988244.26545  24059933.205    24059943.3094
 99  9 25 16  4  0.0000000  0  7 29 03 23 21 17 31 09
  21968364.182    -8961414.601 8  -6960493.87847  21968364.378    21968371.6594
  21323882.437    -4017023.829 9  -3113844.81747  21323882.413    21323888.9654
  21087527.310      814795.651 9    660107.89047  21087527.049    21087533.4634
  21084435.326    -4780650.639 9  -3514434.75847  21084435.119    21084441.8944
  21459857.101     -461410.774 8   -366077.81347  21459856.720    21459864.1114
  23330294.280    -8248349.117 8  -6407869.34145  23330294.133    23330301.1254
  24050945.130    -3894440.370 7  -3025048.59945  24050945.087    24050955.1624
 99  9 25 16  4 30.0000000  0  7 29 03 23 21 17 31 09
  21951578.673    -9049622.824 8  -7029227.52047  21951578.829    21951586.1324
  21321642.819    -4028793.156 9  -3123015.75847  21321642.784    21321649.3624
  21094846.690      853258.814 9    690079.15747  21094846.402    21094852.8234
  21077997.391    -4814482.048 9  -3540796.89947  21077997.196    21078004.0134
  21471219.861     -401699.048 8   -319549.25947  21471219.484    21471226.9934
  23315933.536    -8323816.049 8  -6466674.73745  23315933.216    23315940.3214
  24042034.397    -3941266.661 7  -3061536.53845  24042034.486    24042044.3234
 99  9 25 16  5  0.0000000  0  7 29 03 23 21 17 31 09
  21934852.242    -9137520.584 8  -7097719.24247  21934852.408    21934859.7344
  21319514.545    -4039977.467 9  -3131730.84247  21319514.497    21319521.0804
  21102204.953      891926.647 9    720209.90447  21102204.648    21102211.0764
  21071602.970    -4848085.270 9  -3566981.22847  21071602.773    21071609.5414
  21482643.653     -341666.928 8   -272771.04847  21482643.236    21482650.7434
  23301648.767    -8398882.241 8  -6525167.87845  23301648.544    23301655.7884
  24033199.727    -3987692.720 7  -3097712.61945  24033199.892    24033209.5754
 99  9 25 16  5 30.0000000  0  7 29 03 23 21 17 31 09
  21918187.038    -9225096.728 8  -7165960.35447  21918187.195    21918194.4974
  21317501.519    -4050556.189 9  -3139974.03847  21317501.481    21317508.0454
  21109605.150      930814.913 9    750512.41747  21109604.865    21109611.2834
  21065254.293    -4881447.799 9  -3592978.00447  21065254.058    21065260.8594
  21494129.550     -281308.582 8   -225738.63347  21494129.164    21494136.6174
  23287439.298    -8473554.221 8  -6583353.81245  23287438.942    23287446.2244
  24024442.965    -4033709.572 7  -3133569.84345  24024443.034    24024452.8414
 99  9 25 16  6  0.0000000  0  7 29 03 23 21 17 31 09
  21901586.291    -9312333.891 8  -7233937.31947  21901586.467    21901593.7494
  21315603.890    -4060528.570 9  -3147744.75847  21315603.844    21315610.4304
  21117049.251      969933.934 9    780994.74147  21117048.991    21117055.3994
  21058957.839    -4914535.980 9  -3618761.00447  21058957.647    21058964.3974
  21505678.325     -220619.945 8   -178448.85947  21505677.929    21505685.3434
  23273307.095    -8547818.679 8  -6641222.22945  23273306.915    23273314.2284
  24015766.867    -4079302.846 7  -3169097.02745  24015766.811    24015776.7514
 99  9 25 16  6 30.0000000  0  7 29 03 23 21 17 31 09
  21885051.103    -9399226.954 8  -7301646.15647  21885051.254    21885058.4704
  21313823.905    -4069882.791 9  -3155033.79747  21313823.847    21313830.4274
  21124535.256     1009272.694 9    811648.29947  21124534.979    21124541.3704
  21052717.506    -4947329.570 9  -3644314.44547  21052717.277    21052723.9894
  21517292.706     -159585.970 8   -130889.98347  21517292.319    21517299.7774
  23259255.001    -8621663.707 8  -6698763.78345  23259254.603    23259262.0344
  24007176.587    -4124445.058 7  -3204272.77145  24007176.518    24007186.2854
 99  9 25 16  7  0.0000000  0  7 29 03 23 21 17 31 09
  21868580.145    -9485782.209 8  -7369091.76647  21868580.297    21868587.4934
  21312162.333    -4078614.456 8  -3161837.72847  21312162.297    21312168.9074
  21132062.235     1048827.022 9    842469.82947  21132061.958    21132068.3484
  21046535.182    -4979817.584 9  -3669629.77447  21046534.987    21046541.7344
  21528972.292      -98209.735 8    -83064.41547  21528971.893    21528979.3714
  23245284.279    -8695079.376 8  -6755970.80745  23245284.095    23245291.5184
  23998671.569    -4169139.652 7  -3239099.69745  23998671.465    23998681.1364
 99  9 25 16  7 30.0000000  0  7 29 03 23 21 17 31 09
  21852174.178    -9571995.753 8  -7436271.11547  21852174.375    21852181.4894
  21310617.944    -4086730.351 9  -3168161.83347  21310617.916    21310624.5444
  21139632.133     1088607.032 9    873467.21947  21139631.847    21139638.2764
  21040411.577    -5011997.651 9  -3694705.15047  21040411.356    21040418.0664
  21540716.473      -36493.854 8    -34974.19747  21540716.092    21540723.6144
  23231398.643    -8768049.090 8  -6812830.31045  23231398.328    23231405.7634
  23990254.175    -4213373.252 7  -3273567.41845  23990254.063    23990263.6634
 99  9 25 16  8  0.0000000  0  7 29 03 23 21 17 31 09
  21835830.915    -9657880.307 8  -7503194.09347  21835831.069    21835838.1804
  21309189.871    -4094234.897 9  -3174009.57147  21309189.855    21309196.4364
  21147245.621     1128615.995 9    904643.00747  21147245.337    21147251.7744
  21034343.719    -5043884.484 9  -3719552.03047  21034343.477    21034350.2304
  21552524.506       25557.339 8     13377.31147  21552524.108    21552531.6494
  23217599.813    -8840562.138 8  -6869333.99245  23217599.600    23217606.9254
  23981927.145    -4257131.942 7  -3307665.08145  23981927.038    23981936.5204
 99  9 25 16  8 30.0000000  0  7 29 03 23 21 17 31 09
  21819547.685    -9743449.106 8  -7569871.03647  21819547.841    21819554.8744
  21307879.076    -4101123.453 9  -3179377.30747  21307879.042    21307885.6194
  21154901.314     1168846.860 9    935991.70147  21154901.047    21154907.4614
  21028325.396    -5075511.107 9  -3744196.15347  21028325.163    21028331.8864
  21564395.578       87940.166 8     61987.23447  21564395.200    21564402.7804
  23203889.978    -8912609.239 8  -6925474.59845  23203889.591    23203896.8004
  23973688.021    -4300428.372 7  -3341402.54745  23973687.991    23973697.4844
 99  9 25 16  9  0.0000000  0  7 29 03 23 21 17 31 09
  21803324.489    -9828702.352 8  -7636302.09447  21803324.673    21803331.7104
  21306682.671    -4107410.990 9  -3184276.71647  21306682.591    21306689.1784
  21162600.451     1209305.874 9    967518.17947  21162600.177    21162606.5774
  21022353.166    -5106895.543 9  -3768651.55247  21022352.898    21022359.6064
  21576327.631      150643.232 8    110846.68747  21576327.249    21576334.8504
  23190268.205    -8984192.067 8  -6981253.42745  23190267.802    23190275.0294
  23965532.786    -4343284.513 7  -3374796.92145  23965532.797    23965542.1504
 99  9 25 16  9 30.0000000  0  7 29 03 23 21 17 31 09
  21787164.994    -9913620.932 8  -7702472.37347  21787165.179    21787172.2014
  21305598.566    -4113108.128 9  -3188716.07547  21305598.501    21305605.1064
  21170340.754     1249981.178 9    999213.19447  21170340.478    21170346.8964
  21016422.965    -5138058.610 9  -3792934.45847  21016422.723    21016429.4344
  21588321.302      213669.832 8    159958.24747  21588320.896    21588328.4634
  23176733.306    -9055318.188 8  -7036676.39045  23176732.971    23176740.1414
  23957461.070    -4385701.834 7  -3407849.36845  23957461.015    23957470.4934
 99  9 25 16 10  0.0000000  0  7 29 03 23 21 17 31 09
  21771069.811    -9998201.645 8  -7768379.38447  21771069.972    21771077.0624
  21304624.212    -4118228.557 9  -3192706.04647  21304624.165    21304630.7634
  21178117.117     1290846.363 9   1031056.16647  21178116.845    21178123.3354
  21010532.247    -5169014.862 9  -3817056.21247  21010532.001    21010538.6464
  21600375.687      277015.828 8    209318.68447  21600375.291    21600382.8914
  23163284.247    -9125993.247 8  -7091747.86845  23163283.922    23163291.1554
  23949468.438    -4427702.980 7  -3440577.51345  23949468.518    23949477.8564
 99  9 25 16 10 30.0000000  0  7 29 03 23 21 17 31 09
  21755041.239   -10082432.270 8  -7834013.60447  21755041.408    21755048.5204
  21303757.976    -4122780.670 9  -3196253.18347  21303757.955    21303764.5564
  21185925.046     1331877.332 9   1063028.31847  21185924.799    21185931.2924
  21004681.106    -5199762.702 9  -3841015.56747  21004680.852    21004687.5624
  21612489.477      340673.828 8    258922.24447  21612489.075    21612496.6804
  23149917.359    -9196236.960 8  -7146483.22545  23149917.036    23149924.2044
  23941552.016    -4469304.354 7  -3472994.12945  23941552.039    23941561.3634
 99  9 25 16 11  0.0000000  0  7 29 03 23 21 17 31 09
  21739082.293   -10166297.089 8  -7899362.77647  21739082.417    21739089.5404
  21302998.631    -4126771.381 9  -3199362.85547  21302998.591    21303005.1734
  21193766.060     1373081.775 9   1095135.65047  21193765.791    21193772.2524
  20998871.546    -5230292.123 9  -3864804.73447  20998871.314    20998877.9514
  21624662.410      404642.983 8    308768.26447  21624662.008    21624669.6474
  23136629.232    -9266065.772 8  -7200895.28345  23136629.055    23136636.1994
  23933712.136    -4510502.863 7  -3505096.81045  23933712.216    23933721.4904
 99  9 25 16 11 30.0000000  0  8 29 03 23 21 17 31 09 08
  21723193.938   -10249790.799 8  -7964422.78047  21723194.036    21723201.1904
  21302346.091    -4130200.725 9  -3202035.10147  21302346.043    21302352.5894
  21201640.109     1414459.933 9   1127378.34247  21201639.840    21201646.2584
  20993106.650    -5260587.116 9  -3888411.22747  20993106.405    20993113.0344
  21636894.713      468923.455 8    358856.86247  21636894.290    21636901.9314
  23123422.523    -9335468.401 8  -7254975.24645  23123422.138    23123429.3104
  23925950.899    -4551288.583 7  -3536877.83345  23925950.919    23925960.2194
  24688755.471    -3301490.632 7  -2554899.65745  24688755.151    24688767.9704
 99  9 25 16 12  0.0000000  0  8 29 03 23 21 17 31 09 08
  21707375.308   -10332917.916 8  -8029197.12747  21707375.477    21707382.6534
  21301801.986    -4133060.397 9  -3204263.44947  21301801.949    21301808.5064
  21209552.826     1456041.462 9   1159779.50447  21209552.552    21209558.9864
  20987391.251    -5290621.518 9  -3911814.66447  20987391.012    20987397.7284
  21649187.035      533519.929 8    409191.69847  21649186.630    21649194.2564
  23110299.036    -9404432.573 8  -7308713.55845  23110298.723    23110305.8734
  23918273.024    -4591635.815 7  -3568317.17545  23918273.024    23918282.3484
  24672112.000    -3388953.169 7  -2623052.18745  24672111.612    24672124.6194
 99  9 25 16 12 30.0000000  0  8 29 03 23 21 17 31 09 08
  21691629.479   -10415662.534 8  -8093673.43547  21691629.637    21691636.8044
  21301371.124    -4135324.587 9  -3206027.78347  21301371.078    21301377.6564
  21217512.238     1497868.168 9   1192371.70847  21217511.962    21217518.4174
  20981730.994    -5320366.493 9  -3934992.57547  20981730.760    20981737.4624
  21661543.964      598455.441 8    459790.71647  21661543.535    21661551.1734
  23097264.784    -9472928.654 8  -7362087.12646  23097264.486    23097271.5324
  23910686.896    -4631501.643 7  -3599381.40845  23910686.896    23910696.0594
  24655490.157    -3476301.757 7  -2691115.91945  24655489.810    24655502.7734
 99  9 25 16 13  0.0000000  0  8 29 03 23 21 17 31 09 08
  21675954.614   -10498034.452 8  -8157859.33347  21675954.789    21675961.9354
  21301055.412    -4136984.085 9  -3207320.92747  21301055.346    21301061.9154
  21225520.523     1539951.716 9   1225164.05247  21225520.218    21225526.7034
  20976126.351    -5349819.175 9  -3957942.72347  20976126.120    20976132.7894
  21673964.378      663724.938 8    510649.98947  21673963.977    21673971.6414
  23084320.412    -9540952.324 8  -7415092.57746  23084320.068    23084327.0884
  23903195.147    -4670870.815 8  -3630058.62645  23903195.182    23903204.3314
  24638888.686    -3563543.488 7  -2759096.34245  24638888.233    24638901.1484
 99  9 25 16 13 30.0000000  0  8 29 03 23 21 17 31 09 08
  21660348.018   -10580047.446 8  -8221765.54847  21660348.243    21660355.3774
  21300858.012    -4138021.454 9  -3208129.29647  21300857.963    21300864.5354
  21233575.918     1582282.961 9   1258149.40847  21233575.641    21233582.1074
  20970577.178    -5378980.321 9  -3980665.69447  20970576.952    20970583.6564
  21686447.990      729326.231 8    561767.80447  21686447.594    21686455.2144
  23071465.719    -9608503.624 8  -7467729.96746  23071465.447    23071472.5164
  23895799.581    -4709734.427 7  -3660341.87945  23895799.642    23895808.8534
  24622310.924    -3650659.453 7  -2826978.75745  24622310.489    24622323.2094
 99  9 25 16 14  0.0000000  0  8 29 03 23 21 17 31 09 08
  21644807.852   -10661711.880 8  -8285400.15147  21644808.031    21644815.1584
  21300782.227    -4138419.675 9  -3208439.63247  21300782.205    21300788.7654
  21241676.227     1624850.227 9   1291318.68047  21241675.934    21241682.3814
  20965080.410    -5407866.156 9  -4003174.14147  20965080.167    20965086.8714
  21698996.145      795266.623 8    613149.84147  21698995.738    21699003.3904
  23058698.847    -9675594.145 8  -7520008.29945  23058698.525    23058705.5494
  23888500.886    -4748088.832 7  -3690228.37445  23888500.925    23888510.1934
  24605757.663    -3737646.604 7  -2894760.77745  24605757.060    24605769.9504
 99  9 25 16 14 30.0000000  0  8 29 03 23 21 17 31 09 08
  21629334.194   -10743026.823 8  -8348762.42347  21629334.323    21629341.4264
  21300828.389    -4138177.132 9  -3208250.67247  21300828.353    21300834.9524
  21249817.410     1667632.288 9   1324655.32347  21249817.078    21249823.5444
  20959633.899    -5436487.797 9  -4025476.72347  20959633.667    20959640.3184
  21711607.424      861539.336 8    664790.83847  21711607.027    21711614.7054
  23046019.775    -9742222.758 8  -7571926.70745  23046019.553    23046026.6114
  23881297.091    -4785944.667 7  -3719726.35445  23881297.072    23881306.4314
  24589224.975    -3824525.838 7  -2962458.71045  24589224.304    24589237.3264
 99  9 25 16 15  0.0000000  0  8 29 03 23 21 17 31 09 08
  21613927.797   -10823987.995 8  -8411849.03147  21613927.929    21613934.9834
  21300997.286    -4137289.828 9  -3207559.29747  21300997.227    21301003.8424
  21257996.446     1710613.312 9   1358147.00147  21257996.146    21258002.6304
  20954237.227    -5464847.644 9  -4047575.30547  20954236.994    20954243.6664
  21724281.882      928143.573 8    716690.16547  21724281.483    21724289.1774
  23033426.403    -9808401.367 8  -7623494.46045  23033426.071    23033433.2844
  23874186.280    -4823311.962 7  -3748843.67445  23874186.265    23874195.5924
  24572711.886    -3911302.450 7  -3030076.66145  24572711.106    24572723.9974
 99  9 25 16 15 30.0000000  0  8 29 03 23 21 17 31 09 08
  21598589.986   -10904588.777 8  -8474654.81547  21598590.107    21598597.1334
  21301284.652    -4135779.876 9  -3206382.74947  21301284.598    21301291.2014
  21266211.851     1753785.321 9   1391787.49647  21266211.558    21266218.0374
  20948888.973    -5492952.805 9  -4069475.42847  20948888.746    20948895.4404
  21737020.479      995084.884 8    768852.13247  21737020.064    21737027.8354
  23020921.167    -9874116.940 8  -7674701.39245  23020920.848    23020928.0344
  23867167.390    -4860196.446 7  -3777584.77745  23867167.314    23867176.6334
  24556221.194    -3997961.822 7  -3097603.28645  24556220.613    24556233.1824
 99  9 25 16 16  0.0000000  0  8 29 03 23 21 17 31 09 08
  21583322.064   -10984822.082 8  -8537174.24547  21583322.197    21583329.2064
  21301683.513    -4133683.811 9  -3204749.48847  21301683.481    21301690.1244
  21274463.126     1797145.890 9   1425574.92147  21274462.826    21274469.2854
  20943588.386    -5520807.838 9  -4091180.64647  20943588.146    20943594.7914
  21749822.866     1062361.464 8    821275.35347  21749822.451    21749830.2114
  23008505.524    -9939360.644 8  -7725540.65645  23008505.323    23008512.5944
  23860238.605    -4896607.482 7  -3805956.94745  23860238.521    23860247.7344
  24539747.796    -4084529.367 7  -3165058.33245  24539747.126    24539759.7514
 99  9 25 16 16 30.0000000  0  8 29 03 23 21 17 31 09 08
  21568127.987   -11064667.080 8  -8599391.09147  21568128.166    21568135.1864
  21302192.344    -4131009.853 9  -3202665.92547  21302192.329    21302199.0084
  21282750.420     1840695.531 9   1459509.67547  21282750.109    21282756.5934
  20938339.198    -5548392.488 9  -4112675.17847  20938338.950    20938345.6054
  21762688.227     1129969.377 8    873956.76747  21762687.825    21762695.5924
  22996181.000   -10004127.369 8  -7776008.23145  22996180.586    22996187.9684
  23853396.501    -4932562.728 7  -3833973.94445  23853396.427    23853405.6594
  24523292.044    -4171003.791 7  -3232440.84045  24523291.459    24523304.1734
 99  9 25 16 17  0.0000000  0  8 29 03 23 21 17 31 09 08
  21553011.506   -11144104.646 8  -8661290.45847  21553011.661    21553018.6864
  21302811.516    -4127756.389 9  -3200130.80047  21302811.490    21302818.1824
  21291074.491     1884438.994 9   1493595.45047  21291074.196    21291080.7424
  20933142.481    -5575701.306 9  -4133954.76947  20933142.257    20933148.9174
  21775619.820     1197925.116 8    926909.19447  21775619.442    21775627.2474
  22983948.296   -10068410.252 8  -7826098.80645  22983947.994    22983955.3344
  23846641.617    -4968060.263 7  -3861634.30545  23846641.534    23846650.5974
  24506858.517    -4257362.672 7  -3299733.30345  24506857.945    24506870.5224
 99  9 25 16 17 30.0000000  0  8 29 03 23 21 17 31 09 08
  21537972.299   -11223136.216 8  -8722873.45847  21537972.452    21537979.4524
  21303541.087    -4123922.874 9  -3197143.68047  21303541.046    21303547.7404
  21299435.238     1928374.938 9   1527831.21147  21299434.948    21299441.5214
  20927998.188    -5602735.157 9  -4155020.10447  20927997.928    20928004.5944
  21788619.017     1266235.862 8    980138.25047  21788618.653    21788626.4354
  22971809.841   -10132198.548 8  -7875803.98446  22971809.437    22971816.8184
  23839974.426    -5003096.415 8  -3888935.14945  23839974.369    23839983.4674
  24490448.248    -4343598.557 7  -3366929.89945  24490447.806    24490460.2464
 99  9 25 16 18  0.0000000  0  8 29 03 23 21 17 31 09 08
  21523009.812   -11301764.646 8  -8784142.31247  21523009.980    21523016.9644
  21304383.792    -4119494.876 9  -3193693.33247  21304383.762    21304390.4384
  21307831.431     1972496.935 9   1562211.94847  21307831.135    21307837.7104
  20922906.961    -5629489.513 9  -4175867.65047  20922906.703    20922913.3454
  21801686.048     1334903.026 8   1033645.04947  21801685.667    21801693.4594
  22959764.911   -10195495.594 8  -7925126.37146  22959764.506    22959771.8164
  23833394.482    -5037674.207 7  -3915878.80745  23833394.464    23833403.5394
  24474060.390    -4429715.891 7  -3434034.16045  24474059.911    24474072.5724
 99  9 25 16 18 30.0000000  0  8 29 03 23 21 17 31 09 08
  21508122.434   -11379998.264 8  -8845103.51247  21508122.607    21508129.6024
  21305343.621    -4114450.863 9  -3189762.97547  21305343.607    21305350.3014
  21316262.382     2016801.805 9   1596735.17747  21316262.089    21316268.6584
  20917868.570    -5655966.353 9  -4196498.95247  20917868.331    20917874.9724
  21814818.952     1403916.427 8   1087421.64347  21814818.555    21814826.3364
  22947812.888   -10258303.557 8  -7974067.65646  22947812.570    22947819.8684
  23826905.519    -5071773.411 7  -3942449.53445  23826905.557    23826914.6794
  24457697.982    -4515700.095 7  -3501034.66245  24457697.538    24457710.0584
 99  9 25 16 19  0.0000000  0  8 29 03 23 21 17 31 09 08
  21493306.017   -11457859.261 8  -8905774.36647  21493306.154    21493313.1104
  21306419.588    -4108797.038 9  -3185357.43347  21306419.542    21306426.1944
  21324728.811     2061293.025 9   1631403.61947  21324728.528    21324735.1114
  20912877.568    -5682194.598 9  -4216936.54947  20912877.316    20912883.9314
  21828015.102     1473262.322 8   1141457.30947  21828014.700    21828022.5374
  22935953.930   -10320623.114 8  -8022628.34246  22935953.550    22935960.8854
  23820512.004    -5105370.617 7  -3968629.10045  23820512.003    23820521.2584
  24441361.561    -4601547.804 7  -3567928.81945  24441361.227    24441373.7384
 99  9 25 16 19 30.0000000  0  8 29 03 23 21 17 31 09 08
  21478557.369   -11535363.882 8  -8966167.52347  21478557.504    21478564.4654
  21307609.610    -4102543.862 9  -3180484.87347  21307609.549    21307616.1744
  21333228.419     2105958.527 9   1666207.86147  21333228.143    21333234.7034
  20907932.846    -5708179.321 9  -4237184.39047  20907932.569    20907939.2394
  21841269.492     1542913.960 8   1195731.21447  21841269.074    21841276.8744
  22924187.610   -10382455.094 8  -8070809.11746  22924187.366    22924194.7074
  23814215.319    -5138459.985 7  -3994412.97645  23814215.202    23814224.3984
  24425047.564    -4687278.418 7  -3634731.74245  24425047.222    24425059.4674
 99  9 25 16 20  0.0000000  0  8 29 03 23 21 17 31 09 08
  21463877.860   -11612504.815 8  -9026277.28447  21463877.997    21463884.9684
  21308911.304    -4095703.749 9  -3175154.95847  21308911.228    21308917.8474
  21341760.991     2150797.126 9   1701146.98947  21341760.666    21341767.1814
  20903032.442    -5733930.829 9  -4257250.50547  20903032.202    20903038.8674
  21854577.251     1612846.174 8   1250223.76947  21854576.811    21854584.6464
  22912514.071   -10443800.078 8  -8118610.40546  22912513.857    22912521.1484
  23808014.649    -5171044.491 8  -4019803.45645  23808014.604    23808023.7144
  24408753.011    -4772904.751 7  -3701453.38345  24408752.903    24408765.1344
 99  9 25 16 20 30.0000000  0  8 29 03 23 21 17 31 09 08
  21449267.875   -11689280.535 8  -9086102.46847  21449268.011    21449274.9714
  21310325.156    -4088274.086 9  -3169365.65447  21310325.069    21310331.6784
  21350327.574     2195814.683 9   1736225.55847  21350327.276    21350333.7944
  20898175.875    -5759452.565 9  -4277137.58447  20898175.634    20898182.2314
  21867937.519     1683055.062 8   1304931.89746  21867937.102    21867945.0924
  22900931.467   -10504667.348 8  -8166039.44546  22900931.205    22900938.4754
  23801910.474    -5203121.654 7  -4044798.59645  23801910.460    23801919.5224
  24392480.337    -4858418.592 7  -3768087.39245  24392480.078    24392492.3064
 99  9 25 16 21  0.0000000  0  8 29 03 23 21 17 31 09 08
  21434730.223   -11765675.932 8  -9145631.30247  21434730.395    21434737.3554
  21311849.961    -4080261.299 9  -3163121.96147  21311849.893    21311856.5664
  21358929.957     2241020.169 9   1771450.56947  21358929.651    21358936.2054
  20893362.573    -5784746.878 9  -4296847.45347  20893362.296    20893368.9004
  21881352.934     1753553.318 8   1359865.50946  21881352.535    21881360.5834
  22889440.639   -10565052.303 8  -8213092.65646  22889440.320    22889447.5944
  23795897.691    -5234719.360 8  -4069420.16145  23795897.653    23795906.6884
  24376229.213    -4943818.168 7  -3834632.33945  24376228.828    24376241.0684
 99  9 25 16 21 30.0000000  0  8 29 03 23 21 17 31 09 08
  21420268.275   -11841673.562 8  -9204850.19047  21420268.437    21420275.3794
  21313487.666    -4071655.191 9  -3156415.94247  21313487.609    21313494.3374
  21367568.472     2286415.710 9   1806823.66747  21367568.150    21367574.7244
  20888597.417    -5809787.639 9  -4316359.74647  20888597.185    20888603.8724
  21894828.271     1824365.817 8   1415043.99146  21894827.846    21894835.8144
  22878043.340   -10624945.303 8  -8259762.52246  22878043.110    22878050.3314
  23789973.811    -5265849.259 7  -4093677.21445  23789973.724    23789982.7534
  24360000.498    -5029100.140 7  -3901085.65345  24360000.153    24360012.3444
 99  9 25 16 22  0.0000000  0  8 29 03 23 21 17 31 09 08
  21405883.094   -11917267.987 8  -9263754.90047  21405883.255    21405890.1184
  21315241.458    -4062439.095 9  -3149234.60747  21315241.395    21315248.1504
  21376246.877     2332020.846 9   1842360.09747  21376246.562    21376253.1684
  20883882.078    -5834567.098 9  -4335668.43147  20883881.839    20883888.5164
  21908367.211     1895512.880 8   1470483.16746  21908366.753    21908374.7444
  22866740.534   -10684342.586 8  -8306046.13346  22866740.245    22866747.3914
  23784140.276    -5296504.495 7  -4117564.39345  23784140.192    23784149.3434
  24343799.466    -5114236.623 7  -3967425.60445  24343799.209    24343811.1054
 99  9 25 16 22 30.0000000  0  8 29 03 23 21 17 31 09 08
  21391576.011   -11992452.286 8  -9322340.03747  21391576.170    21391582.9704
  21317112.738    -4052605.723 9  -3141572.27847  21317112.660    21317119.4474
  21384965.628     2377838.076 9   1878061.80147  21384965.317    21384971.9964
  20879218.987    -5859072.393 9  -4354763.48247  20879218.698    20879225.2924
  21921973.850     1967016.179 8   1526199.94246  21921973.413    21921981.4814
  22855533.184   -10743238.011 8  -8351938.67646  22855532.843    22855539.9284
  23778399.229    -5326673.550 7  -4141072.73445  23778399.146    23778408.4104
  24327630.057    -5199207.945 7  -4033636.82345  24327629.772    24327641.5204
 99  9 25 16 23  0.0000000  0  8 29 03 23 21 17 31 09 08
  21377349.518   -12067212.965 8  -9380595.08247  21377349.639    21377356.4604
  21319099.941    -4042162.929 9  -3133435.07547  21319099.864    21319106.6724
  21393723.476     2423860.626 9   1913923.49147  21393723.163    21393729.8534
  20874608.726    -5883299.423 9  -4373641.70647  20874608.429    20874615.0474
  21935646.653     2038866.781 8   1582187.34046  21935646.217    21935654.2764
  22844424.407   -10801614.777 8  -8397427.08646  22844424.154    22844431.1854
  23772752.817    -5356345.138 8  -4164193.43745  23772752.736    23772762.0234
  24311492.199    -5284012.428 7  -4099718.06245  24311491.985    24311503.6104
 99  9 25 16 23 30.0000000  0  8 29 03 23 21 17 31 09 08
  21363202.157   -12141557.784 8  -9438526.08647  21363202.293    21363209.1144
  21321200.878    -4031122.316 9  -3124832.03847  21321200.800    21321207.6204
  21402516.895     2470069.883 9   1949930.67047  21402516.566    21402523.2464
  20870052.006    -5907244.979 9  -4392300.60147  20870051.764    20870058.3994
  21949381.582     2111043.851 8   1638429.11946  21949381.149    21949389.1514
  22833414.762   -10859471.546 8  -8442510.29046  22833414.456    22833421.4374
  23767207.287    -5385487.179 7  -4186901.48745  23767207.215    23767216.4824
  24295387.441    -5368642.189 7  -4165663.14145  24295387.024    24295398.8314
 99  9 25 16 24  0.0000000  0  8 29 03 23 21 17 31 09 08
  21349133.460   -12215489.246 8  -9496135.00947  21349133.622    21349140.4134
  21323412.478    -4019500.400 9  -3115776.04347  21323412.409    21323419.2324
  21411344.476     2516458.961 9   1986077.96947  21411344.125    21411350.8014
  20865544.004    -5930935.064 9  -4410760.43047  20865543.734    20865550.3484
  21963173.664     2183521.218 8   1694904.89446  21963173.222    21963181.2004
  22822503.342   -10916811.766 8  -8487190.99146  22822503.070    22822509.9774
  23761763.298    -5414096.003 7  -4209194.02645  23761763.153    23761772.3564
  24279316.547    -5453094.925 7  -4231470.30945  24279316.079    24279327.7894
 99  9 25 16 24 30.0000000  0  8 29 03 23 21 17 31 09 08
  21335142.787   -12289010.836 8  -9553424.54147  21335142.918    21335149.7184
  21325732.200    -4007310.687 9  -3106277.60047  21325732.123    21325738.9184
  21420204.196     2563016.941 9   2022356.88647  21420203.851    21420210.5414
  20861082.515    -5954380.813 9  -4429029.86047  20861082.213    20861088.7924
  21977020.324     2256285.358 8   1751604.13446  21977019.876    21977027.8744
  22811688.404   -10973645.171 8  -8531476.76846  22811688.087    22811694.9494
  23756418.550    -5442182.929 8  -4231079.88045  23756418.384    23756427.5884
  24263277.581    -5537380.236 7  -4297146.99745  24263277.143    24263288.7454
 99  9 25 16 25  0.0000000  0  8 29 03 23 21 17 31 09 08
  21321228.048   -12362133.432 8  -9610403.17247  21321228.171    21321234.9874
  21328160.975    -3994547.689 9  -3096332.44747  21328160.881    21328167.6484
  21429097.609     2609751.874 9   2058773.69147  21429097.255    21429103.9424
  20856665.903    -5977590.111 9  -4447115.03747  20856665.611    20856672.1954
  21990921.300     2329335.208 8   1808525.99646  21990920.872    21990928.8904
  22800969.287   -11029974.359 8  -8575369.64046  22800968.958    22800975.8644
  23751173.563    -5469745.464 7  -4252557.10545  23751173.455    23751182.4644
  24247268.927    -5621505.984 7  -4362699.38245  24247268.526    24247280.0184
 99  9 25 16 25 30.0000000  0  8 29 03 23 21 17 31 09 08
  21307387.064   -12434868.499 8  -9667079.84247  21307387.193    21307393.9484
  21330700.096    -3981204.851 9  -3085935.46847  21330700.003    21330706.7444
  21438024.665     2656663.782 9   2095328.39447  21438024.325    21438031.0114
  20852293.024    -6000569.658 9  -4465021.18647  20852292.758    20852299.3764
  22004880.109     2402688.458 8   1865684.28646  22004879.649    22004887.6964
  22790345.458   -11085802.581 8  -8618872.15746  22790345.212    22790352.1654
  23746027.548    -5496787.595 8  -4273628.82345  23746027.448    23746036.5644
  24231291.156    -5705468.238 7  -4428124.38245  24231290.787    24231302.3884
 99  9 25 16 26  0.0000000  0  8 29 03 23 21 17 31 09 08
  21293620.405   -12507212.642 8  -9723451.89647  21293620.543    21293627.2434
  21333353.585    -3967260.890 9  -3075070.08747  21333353.477    21333360.2604
  21446983.846     2703744.514 9   2132014.65247  21446983.512    21446990.2194
  20847962.229    -6023328.502 9  -4482755.35747  20847961.946    20847968.5274
  22018899.390     2476360.069 8   1923090.64546  22018898.943    22018907.0154
  22779814.945   -11141141.225 8  -8661993.18546  22779814.623    22779821.6364
  23740977.372    -5523325.912 7  -4294307.95645  23740977.284    23740986.3774
  24215342.256    -5789279.878 7  -4493431.99345  24215341.938    24215353.5024
 99  9 25 16 26 30.0000000  0  8 29 03 23 21 17 31 09 08
  21279928.609   -12579163.546 9  -9779517.52647  21279928.762    21279935.4314
  21336122.410    -3952710.731 9  -3063732.34347  21336122.310    21336129.1074
  21455973.981     2750987.855 9   2168827.61547  21455973.639    21455980.3634
  20843675.738    -6045854.543 9  -4500308.12447  20843675.434    20843681.9964
  22032981.398     2550361.613 8   1980754.09246  22032980.974    22032989.1004
  22769377.215   -11195991.914 8  -8704733.99646  22769376.908    22769383.8924
  23736024.507    -5549353.014 8  -4314588.73045  23736024.422    23736033.5024
  24199420.065    -5872950.190 7  -4558629.51445  24199419.870    24199431.4254
 99  9 25 16 27  0.0000000  0  8 29 03 23 21 17 31 09 08
  21266313.992   -12650708.895 8  -9835267.13647  21266314.137    21266320.8124
  21339006.387    -3937555.765 9  -3051923.32447  21339006.283    21339013.0474
  21464993.373     2798385.032 9   2205760.44747  21464993.044    21464999.7584
  20839434.006    -6068144.963 9  -4517677.28747  20839433.710    20839440.2834
  22047127.382     2624698.704 8   2038678.99746  22047126.921    22047135.0564
  22759035.074   -11250340.344 8  -8747083.44846  22759034.748    22759041.6964
  23731169.446    -5574867.009 8  -4334469.69145  23731169.313    23731178.2294
  24183525.096    -5956478.370 7  -4623716.29845  24183524.845    24183536.4234
 99  9 25 16 27 30.0000000  0  8 29 03 23 21 17 31 09 08
  21252778.623   -12721837.579 8  -9890692.08047  21252778.777    21252785.4234
  21342002.772    -3921809.632 9  -3039653.65247  21342002.689    21342009.4874
  21474040.118     2845925.773 9   2242805.15247  21474039.791    21474046.5054
  20835238.468    -6090192.395 9  -4534857.10947  20835238.175    20835244.7774
  22061334.832     2699358.698 8   2096855.51946  22061334.386    22061342.5194
  22748788.869   -11304184.248 8  -8789039.73946  22748788.542    22748795.5374
  23726410.337    -5599875.753 8  -4353956.94845  23726410.258    23726419.1624
  24167659.306    -6039852.855 7  -4688683.30545  24167658.958    24167670.6734
 99  9 25 16 28  0.0000000  0  8 29 03 23 21 17 31 09 08
  21239325.340   -12792535.123 8  -9945781.06447  21239325.491    21239332.1504
  21345111.185    -3905475.148 9  -3026925.52547  21345111.117    21345117.8994
  21483118.421     2893632.318 9   2279979.05347  21483118.087    21483124.7944
  20831089.858    -6111993.713 9  -4551845.15247  20831089.567    20831096.1364
  22075601.317     2774328.953 8   2155273.80646  22075600.820    22075609.0014
  22738640.359   -11357514.933 8  -8830596.12546  22738639.977    22738647.0244
  23721747.194    -5624380.713 8  -4373051.66145  23721747.116    23721755.8814
  24151823.778    -6123069.027 7  -4753526.96745  24151823.440    24151835.1504
 99  9 25 16 28 30.0000000  0  8 29 03 23 21 17 31 09 08
  21225955.395   -12862794.657 8 -10000528.73747  21225955.517    21225962.1914
  21348327.921    -3888571.439 9  -3013753.84947  21348327.830    21348334.6304
  21492233.352     2941531.318 9   2317302.91347  21492233.016    21492239.7194
  20826989.505    -6133541.422 9  -4568635.58247  20826989.185    20826995.7374
  22089926.835     2849610.179 8   2213934.40546  22089926.402    22089934.6044
  22728593.720   -11410310.310 8  -8871735.37846  22728593.322    22728600.3524
  23717180.595    -5648378.883 8  -4391751.47845  23717180.428    23717189.1904
  24136024.109    -6206096.639 8  -4818223.72445  24136023.779    24136035.1414
 99  9 25 16 29  0.0000000  0  8 29 03 23 21 17 31 09 08
  21212668.059   -12932619.897 8 -10054937.99347  21212668.185    21212674.9064
  21351654.661    -3871089.685 9  -3000131.74847  21351654.547    21351661.3604
  21501386.138     2989629.226 9   2354781.76347  21501385.780    21501392.5054
  20822939.474    -6154824.480 9  -4585219.78847  20822939.159    20822945.7264
  22104310.951     2925198.851 8   2272834.56746  22104310.514    22104318.7324
  22718650.118   -11462563.721 8  -8912452.33046  22718649.776    22718656.7704
  23712710.375    -5671869.232 8  -4410055.60345  23712710.272    23712719.0424
  24120264.845    -6288912.082 8  -4882755.18545  24120264.518    24120275.7154
 99  9 25 16 29 30.0000000  0  8 29 03 23 21 17 31 09 08
  21199462.549   -13002015.016 8 -10109012.09547  21199462.678    21199469.4084
  21355093.414    -3853019.024 9  -2986050.75447  21355093.336    21355100.1144
  21510578.462     3037935.544 9   2392423.00747  21510578.127    21510584.9314
  20818941.458    -6175834.073 9  -4601590.90547  20818941.157    20818947.7634
  22118752.500     3001089.083 8   2331969.70646  22118752.036    22118760.2534
  22708809.580   -11514276.235 8  -8952747.79646  22708809.159    22708816.2684
  23708338.486    -5694843.751 8  -4427957.80545  23708338.349    23708347.1554
  24104548.249    -6371503.156 8  -4947111.82245  24104547.949    24104559.2074
 99  9 25 16 30  0.0000000  0  8 29 03 23 21 17 31 09 08
  21186338.094   -13070984.324 9 -10162754.39147  21186338.243    21186344.9774
  21358646.847    -3834345.684 9  -2971500.15147  21358646.786    21358653.5774
  21519808.264     3086438.492 9   2430217.46447  21519807.937    21519814.7774
  20814995.565    -6196569.825 9  -4617748.64847  20814995.269    20815001.8974
  22133253.523     3077291.710 8   2391348.27146  22133253.028    22133261.3164
  22699072.471   -11565445.116 8  -8992619.66746  22699072.059    22699079.1604
  23704067.625    -5717287.062 8  -4445446.08845  23704067.496    23704076.3694
  24088874.324    -6453869.793 8  -5011293.56545  24088873.930    24088885.1844
 99  9 25 16 30 30.0000000  0  8 29 03 23 21 17 31 09 08
  21173292.807   -13139537.693 9 -10216172.57147  21173292.964    21173299.6944
  21362315.442    -3815067.307 9  -2956478.08747  21362315.367    21362322.1794
  21529069.781     3135107.649 9   2468141.43147  21529069.435    21529076.2964
  20811103.615    -6217022.291 9  -4633685.65147  20811103.313    20811109.9384
  22147814.876     3153811.970 8   2450974.34346  22147814.397    22147822.7864
  22689436.357   -11616083.370 8  -9032078.05146  22689436.040    22689443.0314
  23699899.601    -5739189.730 8  -4462513.11345  23699899.511    23699908.4214
  24073242.015    -6536018.507 8  -5075305.49745  24073241.592    24073252.7344
 99  9 25 16 31  0.0000000  0  8 29 03 23 21 17 31 09 08
  21160325.363   -13207682.315 9 -10269272.24747  21160325.501    21160332.1804
  21366102.626    -3795165.402 8  -2940970.15547  21366102.555    21366109.4694
  21538360.750     3183931.643 9   2506186.05047  21538360.413    21538367.2574
  20807265.624    -6237190.899 9  -4649401.46947  20807265.360    20807271.9624
  22162435.657     3230644.371 8   2510843.64146  22162435.215    22162443.5934
  22679899.833   -11666198.450 8  -9071128.77246  22679899.492    22679906.4914
  23695837.050    -5760538.488 8  -4479148.55545  23695836.924    23695845.8914
  24057648.334    -6617962.774 8  -5139158.18045  24057647.967    24057659.1224
 99  9 25 16 31 30.0000000  0  8 29 03 23 21 17 31 09 08
  21147438.621   -13275402.532 9 -10322041.21847  21147438.763    21147445.4684
  21370006.570    -3774650.027 9  -2924984.19247  21370006.502    21370013.4924
  21547682.007     3232914.613 9   2544354.55247  21547681.670    21547688.4404
  20803478.033    -6257095.039 9  -4664911.20847  20803477.762    20803484.3704
  22177116.758     3307793.609 8   2570959.82346  22177116.331    22177124.6524
  22670462.631   -11715791.430 8  -9109772.65946  22670462.285    22670469.2844
  23691880.179    -5781331.788 8  -4495351.19245  23691880.083    23691888.9284
  24042092.188    -6699711.073 8  -5202858.10545  24042091.727    24042102.8634
 99  9 25 16 32  0.0000000  0  8 29 03 23 21 17 31 09 08
  21134632.149   -13342700.802 9 -10374481.39447  21134632.309    21134639.0764
  21374024.710    -3753534.828 9  -2908530.83347  21374024.661    21374031.6444
  21557032.990     3282054.186 9   2582645.07347  21557032.627    21557039.4054
  20799739.031    -6276743.775 9  -4680221.92947  20799738.740    20799745.3554
  22191859.144     3385264.854 8   2631326.92746  22191858.726    22191867.0364
  22661124.247   -11764865.124 8  -9148011.90746  22661123.920    22661130.9144
  23688029.604    -5801566.359 7  -4511118.47445  23688029.559    23688038.3334
  24026573.174    -6781263.502 8  -5266405.39845  24026572.710    24026583.8874
 99  9 25 16 32 30.0000000  0  8 29 03 23 21 17 31 09 08
  21121907.127   -13409571.216 9 -10426588.17747  21121907.278    21121914.0664
  21378153.687    -3731837.289 9  -2891623.70947  21378153.602    21378160.6584
  21566418.099     3331373.158 9   2621075.39447  21566417.740    21566424.4994
  20796046.566    -6296147.950 9  -4695342.08447  20796046.287    20796052.9424
  22206660.395     3463045.544 8   2691935.15546  22206659.959    22206668.2774
  22651886.701   -11813408.835 8  -9185838.18446  22651886.435    22651893.3824
  23684282.986    -5821255.030 8  -4526460.38945  23684282.962    23684291.9054
  24011093.987    -6862607.582 8  -5329790.33345  24011093.426    24011104.5644
 99  9 25 16 33  0.0000000  0  8 29 03 23 21 17 31 09 08
  21109264.041   -13476011.018 9 -10478359.41447  21109264.191    21109270.9684
  21382391.727    -3709566.731 9  -2874270.07747  21382391.628    21382398.6234
  21575839.933     3380885.209 9   2659656.16647  21575839.577    21575846.3674
  20792398.518    -6315318.446 9  -4710280.15447  20792398.252    20792404.9354
  22221518.553     3541125.094 8   2752776.26446  22221518.123    22221526.4344
  22642753.259   -11861405.887 8  -9223238.49846  22642752.978    22642759.9144
  23680638.184    -5840408.745 8  -4541385.44045  23680638.176    23680647.1114
  23995656.718    -6943730.347 8  -5393002.77645  23995656.283    23995667.1774
 99  9 25 16 33 30.0000000  0  8 29 03 23 21 17 31 09 08
  21096703.680   -13542016.175 9 -10529791.96947  21096703.816    21096710.5904
  21386735.304    -3686741.322 9  -2856484.08947  21386735.191    21386742.1864
  21585297.335     3430584.319 9   2698382.68947  21585297.040    21585303.8474
  20788795.309    -6334253.348 9  -4725034.64547  20788795.047    20788801.7614
  22236434.224     3619506.822 8   2813852.83446  22236433.757    22236442.0894
  22633724.867   -11908850.850 8  -9260208.61046  22633724.518    22633731.4874
  23677092.699    -5859040.556 8  -4555903.80445  23677092.739    23677101.7844
  23980262.092    -7024629.741 7  -5456041.13445  23980261.580    23980272.5364
 99  9 25 16 34  0.0000000  0  8 29 03 23 21 17 31 09 08
  21084224.516   -13607594.557 9 -10580891.97547  21084224.645    21084231.3414
  21391185.555    -3663355.245 9  -2838261.21847  21391185.450    21391192.4374
  21594787.597     3480455.436 9   2737243.24847  21594787.250    21594794.0614
  20785239.432    -6352939.786 9  -4739595.52747  20785239.158    20785245.8904
  22251407.263     3698190.529 8   2875164.69846  22251406.812    22251415.2474
  22624803.106   -11955734.707 8  -9296741.50146  22624802.795    22624809.7844
  23673645.206    -5877158.308 8  -4570021.57645  23673645.146    23673654.1584
  23964912.106    -7105293.881 8  -5518896.13745  23964911.527    23964922.7664
 99  9 25 16 34 30.0000000  0  8 29 03 23 21 17 31 09 08
  21071827.134   -13672743.173 9 -10631657.09347  21071827.258    21071833.9414
  21395743.650    -3639402.306 9  -2819596.64347  21395743.565    21395750.5684
  21604308.255     3530486.485 9   2776228.43047  21604307.919    21604314.7084
  20781730.684    -6371378.801 9  -4753963.61047  20781730.397    20781737.1054
  22266436.503     3777169.558 8   2936706.68046  22266436.057    22266444.5294
  22615988.690   -12002055.046 8  -9332835.28746  22615988.327    22615995.3084
  23670294.201    -5894767.945 8  -4583743.38445  23670294.196    23670303.2044
  23949603.794    -7185739.621 8  -5581580.96145  23949603.215    23949614.3344
 99  9 25 16 35  0.0000000  0  8 29 03 23 21 17 31 09 08
  21059512.275   -13737457.954 9 -10682084.16447  21059512.413    21059519.0744
  21400411.842    -3614871.002 9  -2800481.39147  21400411.753    21400418.7644
  21613856.094     3580660.303 9   2815324.86247  21613855.729    21613862.5564
  20778270.892    -6389560.285 9  -4768131.01747  20778270.593    20778277.2654
  22281523.928     3856453.644 8   2998486.38246  22281523.472    22281531.9304
  22607279.158   -12047823.952 8  -9368499.39046  22607278.767    22607285.7584
  23667043.440    -5911851.582 8  -4597055.28945  23667043.397    23667052.3374
  23934334.505    -7265979.148 7  -5644105.05545  23934334.066    23934345.1564
 99  9 25 16 35 30.0000000  0  8 29 03 23 21 17 31 09 08
  21047283.568   -13801720.037 9 -10732158.48847  21047283.719    21047290.3834
  21405191.053    -3589756.439 8  -2780911.65247  21405190.945    21405197.9634
  21623429.719     3630970.220 9   2854527.34147  21623429.371    21623436.2504
  20774859.308    -6407488.254 9  -4782100.87747  20774859.014    20774865.6854
  22296670.114     3936047.236 8   3060507.25546  22296669.656    22296678.1884
  22598673.230   -12093047.856 8  -9403738.81246  22598672.904    22598679.9564
  23663894.168    -5928400.924 8  -4609950.82745  23663894.167    23663903.1214
  23919102.932    -7346021.491 7  -5706475.51345  23919102.450    23919113.4244
 99  9 25 16 36  0.0000000  0  8 29 03 23 21 17 31 09 08
  21035144.308   -13865512.330 9 -10781866.73447  21035144.443    21035151.1014
  21410082.411    -3564052.501 9  -2760882.65947  21410082.318    21410089.3724
  21633029.544     3681417.595 8   2893836.93047  21633029.196    21633036.1244
  20771495.526    -6425165.003 9  -4795874.97947  20771495.253    20771501.9414
  22311873.289     4015940.061 8   3122761.29746  22311872.862    22311881.3944
  22590171.067   -12137726.994 8  -9438553.74946  22590170.740    22590177.8574
  23660849.405    -5944401.301 8  -4622418.59545  23660849.285    23660858.2874
  23903910.437    -7425857.385 7  -5768685.08545  23903910.028    23903921.0704
 99  9 25 16 36 30.0000000  0  8 29 03 23 21 17 31 09 08
  21023096.435   -13928824.167 9 -10831200.60347  21023096.563    21023103.2254
  21415083.662    -3537770.664 9  -2740403.35447  21415083.596    21415090.6464
  21642658.266     3732017.036 8   2933265.00747  21642657.940    21642664.9554
  20768179.054    -6442593.172 9  -4809455.38547  20768178.799    20768185.5014
  22327132.248     4096125.854 8   3185243.62146  22327131.838    22327140.4074
  22581772.158   -12181863.342 8  -9472945.73146  22581771.864    22581779.0844
  23657912.751    -5959833.237 8  -4634443.39245  23657912.708    23657921.7054
  23888758.504    -7505480.752 7  -5830729.05245  23888758.048    23888769.1424
 99  9 25 16 37  0.0000000  0  8 29 03 23 21 17 31 09 08
  21011141.442   -13991648.208 9 -10880154.38247  21011141.569    21011148.1614
  21420194.049    -3510915.689 8  -2719477.45347  21420193.968    21420201.0714
  21652317.541     3782776.573 9   2972817.84147  21652317.233    21652324.1994
  20764912.050    -6459761.765 9  -4822833.52147  20764911.781    20764918.4624
  22342448.838     4176614.286 8   3247961.77146  22342448.405    22342456.9244
  22573477.452   -12225452.330 8  -9506911.19746  22573477.187    22573484.3714
  23655084.430    -5974696.302 8  -4646024.92145  23655084.336    23655093.2954
  23873652.864    -7584860.014 7  -5892582.81545  23873652.494    23873663.6034
 99  9 25 16 37 30.0000000  0  8 29 03 23 21 17 31 09 08
  20999278.053   -14053990.610 9 -10928732.84647  20999278.172    20999284.7464
  21425412.793    -3483491.220 9  -2698107.78947  21425412.695    21425419.8194
  21662008.463     3833702.254 8   3012500.13947  21662008.124    21662015.0914
  20761694.195    -6476672.009 9  -4836010.34947  20761693.888    20761700.5534
  22357822.365     4257402.156 8   3310913.24846  22357821.912    22357830.4214
  22565288.909   -12268483.716 8  -9540442.15946  22565288.606    22565295.7944
  23652362.961    -5988997.527 8  -4657168.63045  23652362.911    23652371.8734
  23858599.120    -7663967.553 7  -5954224.86845  23858598.716    23858609.6764
 99  9 25 16 38  0.0000000  0  8 29 03 23 21 17 31 09 08
  20987501.253   -14115878.116 9 -10976956.85347  20987501.375    20987507.9484
  21430737.333    -3455510.911 8  -2676305.00847  21430737.219    21430744.3694
  21671732.517     3884801.877 9   3052317.97947  21671732.182    21671739.1434
  20758525.853    -6493321.969 9  -4848984.36147  20758525.542    20758532.1864
  22373255.891     4338505.871 8   3374110.84046  22373255.467    22373264.0454
  22557205.971   -12310959.626 8  -9573540.29546  22557205.722    22557212.9114
  23649749.188    -6002732.890 8  -4667871.40045  23649749.139    23649758.0454
  23843602.076    -7742776.656 7  -6015634.39545  23843601.599    23843612.6294
 99  9 25 16 38 30.0000000  0  8 29 03 23 21 17 31 09 08
  20975807.042   -14177331.455 9 -11024842.55847  20975807.181    20975813.7594
  21436168.063    -3426972.291 8  -2654067.18047  21436167.960    21436175.1384
  21681490.752     3936081.380 8   3092275.97747  21681490.407    21681497.3534
  20755407.140    -6509711.247 9  -4861755.23747  20755406.831    20755413.4574
  22388751.158     4419933.446 8   3437560.78946  22388750.720    22388759.3254
  22549228.268   -12352882.705 8  -9606207.64846  22549228.044    22549235.2044
  23647240.911    -6015914.083 8  -4678142.36645  23647240.846    23647249.6744
  23828661.626    -7821288.293 8  -6076812.16845  23828661.232    23828672.1054
 99  9 25 16 39  0.0000000  0  8 29 03 23 21 17 31 09 08
  20964193.002   -14238363.513 9 -11072399.98947  20964193.141    20964199.7684
  21441706.638    -3397866.968 9  -2631387.76847  21441706.545    21441713.7554
  21691281.200     3987530.456 8   3132366.11547  21691280.849    21691287.8184
  20752336.996    -6525844.826 9  -4874326.87447  20752336.706    20752343.3234
  22404308.836     4501688.840 8   3501266.16646  22404308.370    22404316.9824
  22541356.282   -12394250.730 8  -9638442.49646  22541355.984    22541363.1564
  23644836.321    -6028550.179 8  -4687988.58545  23644836.131    23644844.9764
  23813775.328    -7899515.822 7  -6137768.56545  23813774.857    23813785.8314
 99  9 25 16 39 30.0000000  0  8 29 03 23 21 17 31 09 08
  20952658.387   -14298978.420 9 -11119632.37247  20952658.516    20952665.1374
  21447352.482    -3368198.280 8  -2608269.36547  21447352.387    21447359.5974
  21701103.612     4039147.465 8   3172587.10847  21701103.249    21701110.2684
  20749311.779    -6541742.321 9  -4886714.54547  20749311.491    20749318.1304
  22419927.372     4583764.472 8   3565221.08446  22419926.967    22419935.5344
  22533588.098   -12435072.855 8  -9670251.96446  22533587.851    22533594.9854
  23642537.969    -6040627.492 8  -4697399.41145  23642537.891    23642546.6004
  23798940.194    -7977474.607 7  -6198515.56945  23798939.637    23798950.5714
 99  9 25 16 40  0.0000000  0  8 29 03 23 21 17 31 09 08
  20941204.056   -14359171.252 9 -11166535.86547  20941204.186    20941210.7814
  21453105.468    -3337966.329 9  -2584712.06747  21453105.364    21453112.5704
  21710954.419     4090913.743 8   3212924.41647  21710954.089    21710961.0704
  20746330.834    -6557407.315 9  -4898921.05147  20746330.564    20746337.1984
  22435606.148     4666156.570 8   3629422.60346  22435605.724    22435614.3254
  22525922.751   -12475355.270 8  -9701640.88046  22525922.438    22525929.5804
  23640347.024    -6052140.611 8  -4706370.56845  23640346.869    23640355.6164
  23784151.023    -8055191.586 8  -6259074.16945  23784150.515    23784161.2684
 99  9 25 16 40 30.0000000  0  8 29 03 23 21 17 31 09 08
  20929832.893   -14418927.295 9 -11213099.01147  20929833.028    20929839.6114
  21458968.624    -3307155.803 9  -2560703.92947  21458968.535    21458975.7124
  21720830.407     4142812.137 8   3253364.67047  21720830.072    21720837.0494
  20743393.002    -6572845.570 9  -4910950.87947  20743392.748    20743399.3744
  22451340.473     4748840.309 8   3693851.37146  22451340.010    22451348.6854
  22518360.859   -12515093.477 8  -9732605.73346  22518360.513    22518367.6654
  23638262.386    -6063095.140 8  -4714906.49745  23638262.222    23638271.0684
  23769403.485    -8132690.729 8  -6319463.04745  23769402.974    23769413.5534
 99  9 25 16 41  0.0000000  0  8 29 03 23 21 17 31 09 08
  20918547.010   -14478234.967 9 -11259312.77647  20918547.131    20918553.6934
  21464939.681    -3275778.131 9  -2536253.85947  21464939.571    21464946.6994
  21730729.631     4194832.427 8   3293899.90547  21730729.279    21730736.2344
  20740497.773    -6588060.357 9  -4922806.58147  20740497.492    20740504.1514
  22467129.099     4831809.412 8   3758502.49046  22467128.640    22467137.3204
  22510902.410   -12554288.042 8  -9763146.96946  22510902.087    22510909.1814
  23636285.555    -6073482.714 8  -4723000.62345  23636285.441    23636294.2354
  23754696.829    -8209974.696 8  -6379684.24945  23754696.306    23754706.8894
 99  9 25 16 41 30.0000000  0  8 29 03 23 21 17 31 09 08
  20907348.601   -14537083.183 9 -11305168.52547  20907348.724    20907355.2184
  21471017.583    -3243838.986 8  -2511366.27747  21471017.454    21471024.5964
  21740651.504     4246971.836 8   3334527.97147  21740651.150    21740658.0754
  20737647.245    -6603040.046 9  -4934479.08847  20737646.966    20737653.6294
  22482970.903     4915058.097 8   3823371.47846  22482970.423    22482979.1214
  22503548.007   -12592936.227 8  -9793262.46546  22503547.698    22503554.7684
  23634416.861    -6083302.829 8  -4730652.61145  23634416.703    23634425.4564
  23740033.664    -8287029.278 8  -6439726.73445  23740033.217    23740043.7874
 99  9 25 16 42  0.0000000  0  8 29 03 23 21 17 31 09 08
  20896238.993   -14595464.375 9 -11350660.36347  20896239.115    20896245.6164
  21477203.062    -3211334.200 8  -2486037.93647  21477202.972    21477210.0914
  21750596.640     4299233.616 8   3375251.38847  21750596.275    21750603.2134
  20734843.516    -6617773.952 9  -4945960.07647  20734843.227    20734849.9224
  22498864.802     4998580.780 8   3888453.97446  22498864.350    22498873.0194
  22496301.145   -12631018.880 8  -9822937.28746  22496300.815    22496307.9074
  23632653.768    -6092567.624 8  -4737871.87645  23632653.684    23632662.3014
  23725416.176    -8363844.416 8  -6499582.62845  23725415.726    23725426.2754
 99  9 25 16 42 30.0000000  0  8 29 03 23 21 17 31 09 08
  20885218.407   -14653377.908 9 -11395787.78147  20885218.524    20885225.0644
  21483494.783    -3178271.033 8  -2460274.49847  21483494.696    21483501.8734
  21760569.809     4351643.003 8   3416089.81347  21760569.471    21760576.4454
  20732086.029    -6632264.953 9  -4957251.78947  20732085.716    20732092.4234
  22514810.196     5082373.863 8   3953747.14846  22514809.751    22514818.4614
  22489163.816   -12668526.043 8  -9852163.66746  22489163.417    22489170.5844
  23630995.711    -6101281.050 8  -4744661.50745  23630995.632    23631004.1414
  23710847.986    -8440400.525 7  -6559236.67145  23710847.462    23710858.0384
 99  9 25 16 43  0.0000000  0  8 29 03 23 21 17 31 09 08
  20874287.084   -14710822.207 9 -11440549.57547  20874287.222    20874293.7204
  21489889.776    -3144665.438 8  -2434088.38647  21489889.689    21489896.9064
  21770574.817     4404219.566 8   3457058.51047  21770574.465    21770581.4984
  20729376.427    -6646504.245 9  -4968347.36147  20729376.111    20729382.8364
  22530809.494     5166450.072 8   4019260.96046  22530809.025    22530817.8044
  22482136.447   -12705454.362 8  -9880939.00346  22482136.161    22482143.3694
  23629442.659    -6109441.628 8  -4751020.40245  23629442.587    23629451.0964
  23696333.506    -8516673.787 7  -6618670.30145  23696332.950    23696343.6024
 99  9 25 16 43 30.0000000  0  8 29 03 23 21 17 31 09 08
  20863444.774   -14767799.009 9 -11484947.07447  20863444.918    20863451.4164
  21496389.518    -3110509.222 8  -2407473.22147  21496389.419    21496396.7014
  21780613.329     4456972.463 8   3498164.60747  21780613.035    21780620.1264
  20726713.949    -6660495.622 9  -4979249.75247  20726713.645    20726720.4134
  22546863.451     5250814.205 8   4084999.12646  22546862.952    22546871.9224
  22475221.552   -12741792.397 8  -9909254.37946  22475221.228    22475228.4674
  23627994.151    -6117053.220 7  -4756951.49645  23627994.060    23628002.6474
  23681876.490    -8592645.374 7  -6677868.84945  23681876.038    23681886.6304
 99  9 25 16 44  0.0000000  0  8 29 03 23 21 17 31 09 08
  20852688.551   -14824323.231 9 -11528991.91347  20852688.704    20852695.1784
  21502994.725    -3075798.757 9  -2380426.17047  21502994.666    21503001.9864
  21790686.257     4509905.547 8   3539411.11247  21790685.932    21790693.0304
  20724095.894    -6674253.422 9  -4989970.13347  20724095.607    20724102.4304
  22562971.091     5335460.412 8   4150957.08646  22562970.641    22562979.6974
  22468416.735   -12777552.174 8  -9937119.16046  22468416.379    22468423.6424
  23626649.656    -6124118.243 8  -4762456.72745  23626649.641    23626658.1734
  23667477.058    -8668313.979 7  -6736831.29345  23667476.647    23667487.2464
 99  9 25 16 44 30.0000000  0  8 29 03 23 21 17 31 09 08
  20842017.689   -14880399.075 9 -11572687.36447  20842017.831    20842024.2714
  21509704.910    -3040536.835 9  -2352949.41447  21509704.851    21509712.1764
  21800793.450     4563018.923 8   3580798.10047  21800793.155    21800800.2034
  20721523.501    -6687771.324 9  -5000503.57947  20721523.238    20721530.1114
  22579133.582     5420394.280 8   4217139.19046  22579133.082    22579142.1534
  22461718.921   -12812749.495 8  -9964545.66646  22461718.595    22461725.8194
  23625409.148    -6130637.122 7  -4767536.39845  23625409.090    23625417.7584
  23653134.302    -8743685.052 7  -6795561.89145  23653133.916    23653144.5154
 99  9 25 16 45  0.0000000  0  8 29 03 23 21 17 31 09 08
  20831433.559   -14936019.180 9 -11616027.68947  20831433.689    20831440.1424
  21516521.356    -3004716.859 8  -2325037.80847  21516521.262    21516528.5514
  21810933.211     4616303.002 8   3622318.10647  21810932.855    21810939.9154
  20719000.330    -6701030.668 9  -5010835.54847  20719000.085    20719006.9754
  22595351.724     5505621.353 8   4283549.76546  22595351.263    22595360.4074
  22455129.247   -12847378.526 8  -9991529.36046  22455128.977    22455136.1674
  23624272.980    -6136607.669 8  -4772188.84945  23624272.926    23624281.5824
  23638849.466    -8818752.145 8  -6854055.60045  23638849.075    23638859.7134
 99  9 25 16 45 30.0000000  0  8 29 03 23 21 17 31 09 08
  20820937.215   -14991177.883 9 -11659008.48047  20820937.355    20820943.7924
  21523447.270    -2968321.393 8  -2296677.76947  21523447.177    21523454.4114
  21821102.889     4669744.803 8   3663960.99947  21821102.545    21821109.6064
  20716526.855    -6714028.950 9  -5020964.09347  20716526.617    20716533.4834
  22611625.183     5591138.166 8   4350186.12446  22611624.707    22611633.9344
  22448648.206   -12881437.330 8 -10018068.71646  22448647.824    22448654.9904
  23623243.020    -6142020.413 8  -4776406.62345  23623242.919    23623251.4694
  23624622.328    -8893516.811 8  -6912313.64545  23624621.974    23624632.4924
 99  9 25 16 46  0.0000000  0  8 29 03 23 21 17 31 09 08
  20810530.546   -15045865.464 9 -11701622.16347  20810530.659    20810537.1514
  21530481.670    -2931355.501 8  -2267873.25147  21530481.568    21530488.8504
  21831303.386     4723348.384 8   3705729.96647  21831302.984    21831310.0864
  20714104.253    -6726760.002 9  -5030884.40747  20714104.004    20714110.8534
  22627953.743     5676944.776 8   4417048.28746  22627953.293    22627962.5424
  22442275.134   -12914928.328 8 -10044165.62546  22442274.777    22442281.8944
  23622320.910    -6146866.088 7  -4780182.55945  23622320.817    23622329.5114
  23610450.850    -8967988.367 8  -6970343.28645  23610450.376    23610460.9384
 99  9 25 16 46 30.0000000  0  8 29 03 23 21 17 31 09 08
  20800217.146   -15100062.577 9 -11743853.65947  20800217.259    20800223.8094
  21537621.701    -2893834.621 8  -2238636.27747  21537621.595    21537628.9174
  21841534.002     4777110.835 8   3747622.71647  21841533.691    21841540.8144
  20711734.900    -6739211.202 9  -5040586.65547  20711734.635    20711741.4424
  22644339.074     5763049.461 8   4484142.72346  22644338.640    22644347.7674
  22436015.274   -12947824.105 8 -10069798.73446  22436014.950    22436022.0244
  23621507.658    -6151140.317 8  -4783513.24645  23621507.541    23621516.2724
  23596337.509    -9042154.069 8  -7028134.60245  23596337.036    23596347.4914
 99  9 25 16 47  0.0000000  0  8 29 03 23 21 17 31 09 08
  20789997.725   -15153765.899 9 -11785700.39047  20789997.864    20790004.3894
  21544865.504    -2855768.470 8  -2208974.41147  21544865.390    21544872.7124
  21851793.938     4831026.678 8   3789634.99747  21851793.608    21851800.7384
  20709416.512    -6751394.388 9  -5050080.05947  20709416.249    20709423.0214
  22660779.877     5849445.582 8   4551464.25446  22660779.409    22660788.5234
  22429870.515   -12980115.091 8 -10094960.57246  22429870.184    22429877.2924
  23620804.815    -6154834.236 8  -4786391.74545  23620804.587    23620813.3874
  23582286.478    -9115992.172 8  -7085670.63145  23582286.003    23582296.4764
 99  9 25 16 47 30.0000000  0  8 29 03 23 21 17 31 09 08
  20779871.624   -15206978.805 9 -11827164.96747  20779871.734    20779878.2934
  21552212.459    -2817160.342 8  -2178890.22647  21552212.344    21552219.6834
  21862081.247     4885086.715 8   3831759.63847  21862080.936    21862088.1084
  20707142.953    -6763342.156 9  -5059390.02447  20707142.683    20707149.4394
  22677274.676     5936125.363 8   4619006.82646  22677274.179    22677283.2864
  22423838.334   -13011814.684 8 -10119661.58446  22423838.000    22423845.0684
  23620213.220    -6157943.797 7  -4788814.90045  23620213.036    23620221.7164
  23568296.540    -9189509.469 8  -7142956.69445  23568296.088    23568306.4974
 99  9 25 16 48  0.0000000  0  8 29 03 23 21 17 31 09 08
  20769836.169   -15259715.141 9 -11868258.20247  20769836.311    20769842.8244
  21559660.996    -2778018.495 8  -2148390.15547  21559660.857    21559668.1924
  21872393.886     4939279.454 8   3873987.68047  21872393.537    21872400.6914
  20704912.613    -6775062.872 9  -5068523.07147  20704912.337    20704919.0614
  22693821.157     6023077.076 8   4686761.27546  22693820.655    22693829.8704
  22417916.781   -13042932.620 8 -10143909.35046  22417916.469    22417923.5474
  23619731.466    -6160475.649 7  -4790787.83945  23619731.430    23619739.9524
  23554365.567    -9262717.015 8  -7200001.40245  23554365.123    23554375.4694
 99  9 25 16 48 30.0000000  0  8 29 03 23 21 17 31 09 08
  20759890.911   -15311978.207 9 -11908982.65047  20759891.037    20759897.4914
  21567210.918    -2738343.615 8  -2117474.73447  21567210.791    21567218.1384
  21882728.309     4993587.019 8   3916305.20347  21882727.953    21882735.1254
  20702724.252    -6786563.149 9  -5077484.34347  20702723.962    20702730.6624
  22710417.010     6110288.600 8   4754718.17546  22710416.516    22710425.8114
  22412103.813   -13073480.075 8 -10167712.58846  22412103.493    22412110.6114
  23619359.314    -6162431.363 8  -4792311.74945  23619359.228    23619367.7564
  23540494.032    -9335611.756 8  -7256802.35645  23540493.616    23540503.8964
 99  9 25 16 49  0.0000000  0  8 29 03 23 21 17 31 09 08
  20750036.338   -15363764.252 9 -11949335.39647  20750036.469    20750042.9254
  21574866.302    -2698114.574 8  -2086127.50047  21574866.181    21574873.5294
  21893084.447     5048008.692 8   3958711.63547  21893084.044    21893091.2814
  20700574.965    -6797857.874 9  -5086285.44947  20700574.660    20700581.3444
  22727061.651     6197756.317 8   4822874.68946  22727061.172    22727070.4394
  22406394.601   -13103482.709 8 -10191091.29946  22406394.236    22406401.3454
  23619096.123    -6163814.750 7  -4793389.63045  23619096.000    23619104.6044
  23526679.997    -9408204.245 8  -7313367.78045  23526679.579    23526689.7904
 99  9 25 16 49 30.0000000  0  8 29 03 23 21 17 31 09 08
  20740271.021   -15415081.253 9 -11989322.66547  20740271.139    20740277.5804
  21582628.436    -2657324.470 8  -2054343.08047  21582628.307    21582635.6764
  21903460.772     5102536.571 8   4001200.83147  21903460.390    21903467.5684
  20698465.880    -6808941.438 9  -5094922.02047  20698465.560    20698472.2364
  22743757.164     6285491.191 8   4891239.36746  22743756.724    22743765.9544
  22400789.102   -13132939.912 8 -10214044.99746  22400788.757    22400795.8834
  23618941.678    -6164626.263 7  -4794021.83445  23618941.587    23618950.2314
  23512919.617    -9480514.852 8  -7369713.56745  23512919.206    23512929.5004
 99  9 25 16 50  0.0000000  0  8 29 03 23 21 17 31 09 08
  20730594.253   -15465932.886 9 -12028947.30447  20730594.388    20730600.8174
  21590492.733    -2615997.632 8  -2022140.42147  21590492.603    21590499.9874
  21913857.215     5157169.698 8   4043772.03947  21913856.842    21913864.0124
  20696400.125    -6819797.259 9  -5103381.13347  20696399.800    20696406.4654
  22760505.614     6373504.077 8   4959820.70346  22760505.110    22760514.3864
  22395289.657   -13161839.946 8 -10236564.52946  22395289.274    22395296.4224
  23618896.174    -6164865.543 8  -4794208.14045  23618896.058    23618904.6734
  23499214.633    -9552534.034 8  -7425832.28645  23499214.242    23499224.5954
 99  9 25 16 50 30.0000000  0  8 29 03 23 21 17 31 09 08
  20721008.863   -15516304.426 9 -12068197.84947  20721009.004    20721015.3944
  21598454.043    -2574160.970 8  -1989540.49047  21598453.951    21598461.3014
  21924275.526     5211917.798 8   4086432.84547  21924275.150    21924282.3174
  20694378.188    -6830422.817 9  -5111660.81547  20694377.860    20694384.5194
  22777309.485     6461808.802 8   5028629.44446  22777309.026    22777318.3984
  22389899.847   -13190163.799 8 -10258635.08846  22389899.445    22389906.6364
  23618958.996    -6164535.220 8  -4793950.63245  23618958.895    23618967.5274
  23485568.136    -9624246.715 8  -7481712.15145  23485567.670    23485577.9444
 99  9 25 16 51  0.0000000  0  8 29 03 23 21 17 31 09 08
  20711513.176   -15566204.731 9 -12107081.20047  20711513.298    20711519.6554
  21606510.749    -2531823.159 8  -1956550.06647  21606510.643    21606517.9844
  21934716.265     5266783.827 8   4129185.55147  21934715.892    21934723.0294
  20692402.673    -6840804.217 9  -5119750.24647  20692402.358    20692409.0184
  22794171.770     6550420.089 8   5097677.06046  22794171.293    22794180.7154
  22384623.177   -13217893.048 8 -10280242.32646  22384622.818    22384630.0154
  23619130.043    -6163635.957 8  -4793249.78745  23619129.937    23619138.5964
  23471980.838    -9695648.347 8  -7537349.65845  23471980.357    23471990.5464
 99  9 25 16 51 30.0000000  0  8 29 03 23 21 17 31 09 08
  20702103.202   -15615654.331 9 -12145613.34947  20702103.312    20702109.7274
  21614658.335    -2489007.888 8  -1923187.57947  21614658.213    21614665.5394
  21945180.327     5321773.065 8   4172034.25647  21945179.988    21945187.1974
  20690477.555    -6850921.162 9  -5127633.60847  20690477.231    20690483.8564
  22811093.396     6639342.755 8   5166967.32046  22811092.939    22811102.2774
  22379462.472   -13245012.806 8 -10301374.63146  22379462.151    22379469.3614
  23619411.421    -6162157.010 7  -4792097.27145  23619411.352    23619419.9834
  23458454.005    -9766731.712 8  -7592739.16746  23458453.501    23458463.7514
 99  9 25 16 52  0.0000000  0  8 29 03 23 21 17 31 09 08
  20692782.485   -15664635.134 9 -12183780.20747  20692782.605    20692789.0184
  21622896.787    -2445714.842 8  -1889452.80947  21622896.650    21622904.0164
  21955670.817     5376900.605 8   4214990.73447  21955670.456    21955677.6344
  20688603.826    -6860767.947 9  -5135306.45747  20688603.498    20688610.1064
  22828071.976     6728565.371 8   5236491.29446  22828071.555    22828080.8994
  22374417.702   -13271523.827 8 -10322032.59646  22374417.323    22374424.6054
  23619800.718    -6160110.930 7  -4790502.87145  23619800.672    23619809.2994
  23444990.467    -9837482.691 8  -7647869.69446  23444990.011    23445000.1464
 99  9 25 16 52 30.0000000  0  8 29 03 23 21 17 31 09 08
  20683552.730   -15713137.771 9 -12221574.46547  20683552.854    20683559.2704
  21631233.914    -2401903.376 8  -1855314.07947  21631233.778    21631241.1304
  21966192.348     5432191.336 8   4258074.37347  21966191.991    21966199.1964
  20686782.078    -6870341.453 9  -5142766.35947  20686781.749    20686788.3214
  22845106.021     6818079.257 8   5306242.23146  22845105.543    22845115.0144
  22369487.012   -13297434.990 8 -10342223.13446  22369486.617    22369493.9494
  23620296.940    -6157502.690 7  -4788470.44645  23620296.979    23620305.6264
  23431593.105    -9907886.160 8  -7702729.44445  23431592.656    23431602.6014
 99  9 25 16 53  0.0000000  0  8 29 03 23 21 17 31 09 08
  20674412.706   -15761169.077 9 -12259001.44947  20674412.832    20674419.2344
  21639676.577    -2357537.072 8  -1820743.00847  21639676.424    21639683.8244
  21976747.191     5487656.971 8   4301294.31047  21976746.815    21976753.9684
  20685012.735    -6879639.594 9  -5150011.68847  20685012.394    20685018.9894
  22862193.594     6907874.709 8   5376212.55946  22862193.153    22862202.7364
  22364666.921   -13322764.430 8 -10361960.38646  22364666.583    22364673.9004
  23620902.530    -6154319.938 8  -4785990.36845  23620902.569    23620911.1884
  23418264.219    -9977929.102 8  -7757308.28245  23418263.803    23418273.7234
 99  9 25 16 53 30.0000000  0  8 29 03 23 21 17 31 09 08
  20665365.182   -15808714.237 9 -12296049.61447  20665365.265    20665371.6924
  21648225.994    -2312609.587 8  -1785734.64547  21648225.865    21648233.3074
  21987337.443     5543308.711 8   4344659.26147  21987337.093    21987344.2824
  20683293.572    -6888673.967 9  -5157051.48747  20683293.214    20683299.8324
  22879331.704     6997934.899 8   5446389.17246  22879331.198    22879340.7294
  22359955.314   -13347523.994 8 -10381253.59046  22359954.995    22359962.3174
  23621618.206    -6150559.230 8  -4783059.94445  23621618.264    23621626.7274
  23405007.296   -10047594.175 8  -7811592.68245  23405006.970    23405016.7824
 99  9 25 16 54  0.0000000  0  8 29 03 23 21 17 31 09 08
  20656414.435   -15855750.852 9 -12332701.50847  20656414.552    20656420.9324
  21656884.508    -2267108.919 8  -1750279.65647  21656884.391    21656891.8804
  21997961.803     5599139.828 8   4388163.99147  21997961.398    21997968.6524
  20681621.110    -6897462.871 9  -5163900.00747  20681620.742    20681627.3914
  22896516.937     7088243.929 8   5516759.67946  22896516.432    22896526.1504
  22355351.398   -13371717.806 8 -10400105.94146  22355351.072    22355358.3554
  23622444.280    -6146218.075 8  -4779677.23045  23622444.283    23622452.7094
  23391825.001   -10116867.747 8  -7865572.03045  23391824.627    23391834.3534
 99  9 25 16 54 30.0000000  0  8 29 03 23 21 17 31 09 08
  20647556.101   -15902301.747 9 -12368974.90547  20647556.184    20647562.6064
  21665649.272    -2221050.319 8  -1714389.91047  21665649.123    21665656.6224
  22008616.593     5655131.082 8   4431793.49647  22008616.222    22008623.4844
  20679994.905    -6906008.793 9  -5170559.18747  20679994.528    20680001.1664
  22913749.648     7178802.717 8   5587324.81045  22913749.241    22913758.9454
  22350855.417   -13395344.457 8 -10418516.35146  22350855.055    22350862.3144
  23623385.432    -6141272.167 8  -4775823.31545  23623385.420    23623393.9744
  23378717.055   -10185750.007 8  -7919246.48545  23378716.722    23378726.4384
 99  9 25 16 55  0.0000000  0  8 29 03 23 21 17 31 09 08
  20638789.732   -15948369.450 9 -12404871.79647  20638789.843    20638796.2044
  21674512.981    -2174471.522 8  -1678094.82147  21674512.827    21674520.3574
  22019296.689     5711255.184 8   4475526.51547  22019296.298    22019303.6304
  20678415.665    -6914307.889 9  -5177026.03547  20678415.291    20678421.9334
  22931030.559     7269613.262 8   5658086.10645  22931030.028    22931039.7234
  22346469.514   -13418392.402 8 -10436475.80846  22346469.161    22346476.4134
  23624441.806    -6135720.889 8  -4771497.67945  23624441.809    23624450.3194
  23365679.905   -10254260.624 8  -7972631.34945  23365679.517    23365689.2244
 99  9 25 16 55 30.0000000  0  8 29 03 23 21 17 31 09 08
  20630118.262   -15993938.507 9 -12440380.12947  20630118.327    20630124.6824
  21683471.666    -2127393.470 8  -1641410.70047  21683471.505    21683479.0814
  22029999.443     5767498.118 8   4519352.13947  22029999.049    22030006.3124
  20676882.709    -6922363.677 9  -5183303.29447  20676882.352    20676889.0044
  22948361.967     7360689.565 8   5729054.48045  22948361.509    22948371.1514
  22342197.423   -13440842.875 8 -10453969.71346  22342197.079    22342204.2674
  23625611.718    -6129573.452 8  -4766707.52045  23625611.649    23625620.1474
  23352710.927   -10322413.155 8  -8025737.19745  23352710.505    23352720.1604
 99  9 25 16 56  0.0000000  0  8 29 03 23 21 17 31 09 08
  20621539.619   -16039019.192 9 -12475507.90947  20621539.725    20621546.0694
  21692523.925    -2079823.533 8  -1604343.28647  21692523.798    21692531.4344
  22040722.904     5823849.990 8   4563262.64747  22040722.496    22040729.7274
  20675397.533    -6930168.268 9  -5189384.81247  20675397.170    20675403.8704
  22965747.649     7452051.122 8   5800245.14545  22965747.154    22965756.8124
  22338041.792   -13462681.402 8 -10470986.76946  22338041.416    22338048.5334
  23626894.633    -6122831.922 8  -4761454.45545  23626894.531    23626903.1044
  23339805.426   -10390231.600 8  -8078582.73146  23339805.029    23339814.7054
 99  9 25 16 56 30.0000000  0  8 29 03 23 21 17 31 09 08
  20613053.761   -16083612.705 9 -12510256.08247  20613053.840    20613060.1804
  21701667.581    -2031773.567 8  -1566901.82647  21701667.468    21701675.1564
  22051467.109     5880310.794 8   4607258.04147  22051466.687    22051473.8884
  20673960.146    -6937721.811 9  -5195270.70647  20673959.805    20673966.5534
  22983189.408     7543707.701 8   5871665.69645  22983188.929    22983198.7124
  22334003.405   -13483903.463 8 -10487523.46146  22334003.031    22334010.1554
  23628288.398    -6115507.632 8  -4755747.29845  23628288.286    23628296.8304
  23326962.235   -10457723.610 8  -8131173.90646  23326961.800    23326971.3624
 99  9 25 16 57  0.0000000  0  8 29 03 23 21 17 31 09 08
  20604665.096   -16127695.253 9 -12544606.09547  20604665.167    20604671.5524
  21710905.742    -1983227.117 8  -1529073.49247  21710905.633    21710913.3454
  22062234.253     5936892.565 8   4651347.68447  22062233.863    22062241.0604
  20672566.910    -6945043.261 9  -5200975.74847  20672566.580    20672573.3874
  23000686.670     7635655.452 8   5943313.12945  23000686.156    23000695.8934
  22330081.799   -13504511.975 8 -10503582.06946  22330081.406    22330088.5064
  23629789.329    -6107620.787 8  -4749601.80545  23629789.187    23629797.6744
  23314182.286   -10524883.158 8  -8183506.03646  23314181.768    23314191.3284
 99  9 25 16 57 30.0000000  0  8 29 03 23 21 17 31 09 08
  20596372.200   -16171274.638 9 -12578564.03747  20596372.268    20596378.6384
  21720240.339    -1934174.099 8  -1490850.42247  21720240.200    21720247.8614
  22073024.953     5993597.624 8   4695533.39647  22073024.513    22073031.7654
  20671214.979    -6952147.641 9  -5206511.64547  20671214.676    20671221.4864
  23018236.845     7727880.827 8   6015176.88745  23018236.296    23018245.8554
  22326276.407   -13524509.548 8 -10519164.61346  22326276.021    22326283.1464
  23631397.586    -6099170.147 8  -4743016.99845  23631397.434    23631405.8414
  23301465.917   -10591707.437 8  -8235576.90646  23301465.431    23301475.0874
 99  9 25 16 58  0.0000000  0  8 29 03 23 21 17 31 09 08
  20588171.550   -16214369.138 9 -12612144.14447  20588171.615    20588177.9834
  21729671.443    -1884613.694 8  -1452231.99447  21729671.311    21729678.9294
  22083837.903     6050420.154 8   4739810.63847  22083837.507    22083844.7924
  20669902.486    -6959044.986 9  -5211886.21847  20669902.194    20669909.0324
  23035834.028     7820354.027 8   6087233.74945  23035833.545    23035843.1704
  22322585.549   -13543905.174 8 -10534278.11446  22322585.136    22322592.2994
  23633112.101    -6090160.654 8  -4735996.73545  23633111.936    23633120.4324
  23288815.727   -10658184.714 8  -8287377.38846  23288815.238    23288824.9194
 99  9 25 16 58 30.0000000  0  8 29 03 23 21 17 31 09 08
  20580064.646   -16256971.212 9 -12645340.54747  20580064.708    20580071.0474
  21739200.542    -1834538.397 8  -1413212.34047  21739200.395    21739208.0104
  22094672.323     6107355.202 8   4784175.56147  22094671.907    22094679.2474
  20668626.807    -6965748.671 9  -5217109.88147  20668626.518    20668633.3954
  23053472.858     7913046.480 8   6159461.46845  23053472.393    23053482.1454
  22319005.734   -13562717.131 8 -10548936.81746  22319005.334    22319012.5214
  23634929.390    -6080610.712 8  -4728555.32945  23634929.209    23634937.7774
  23276235.444   -10724294.618 8  -8338891.58346  23276234.908    23276244.6004
 99  9 25 16 59  0.0000000  0  8 29 03 23 21 17 31 09 08
  20572047.852   -16299099.522 9 -12678167.78047  20572047.938    20572054.2884
  21748828.651    -1783942.849 8  -1373787.31047  21748828.499    21748836.1374
  22105527.274     6164397.889 8   4828624.35347  22105526.862    22105534.1844
  20667390.509    -6972245.665 9  -5222172.49147  20667390.223    20667397.1454
  23071151.421     8005947.447 8   6231851.66945  23071150.935    23071160.7934
  22315536.799   -13580946.527 8 -10563141.57746  22315536.396    22315543.6504
  23636850.414    -6070516.258 8  -4720689.62245  23636850.179    23636858.8084
  23263725.806   -10790032.985 8  -8390116.26245  23263725.308    23263734.9644
 99  9 25 16 59 30.0000000  0  8 29 03 23 21 17 31 09 08
  20564119.425   -16340763.802 9 -12710633.43547  20564119.506    20564125.8224
  21758552.945    -1732841.720 8  -1333968.31747  21758552.777    21758560.4194
  22116402.721     6221548.555 8   4873157.27947  22116402.283    22116409.6674
  20666196.519    -6978520.223 9  -5227061.77147  20666196.240    20666203.1694
  23088869.886     8099057.466 8   6304404.75545  23088869.448    23088879.2424
  22312178.100   -13598596.279 8 -10576894.67046  22312177.711    22312185.0184
  23638876.695    -6059868.715 8  -4712392.94845  23638876.446    23638885.1524
  23251288.276   -10855391.955 8  -8441045.28945  23251287.798    23251297.4884
 99  9 25 17  0  0.0000000  0  8 29 03 23 21 17 31 09 08
  20556281.706   -16381951.259 9 -12742727.54047  20556281.792    20556288.1094
  21768373.623    -1681233.955 8  -1293754.54147  21768373.469    21768381.1774
  22127300.096     6278814.561 8   4917780.07847  22127299.699    22127307.0864
  20665046.748    -6984562.868 9  -5231770.34347  20665046.436    20665053.3484
  23106630.964     8192391.987 8   6377132.78645  23106630.442    23106640.3724
  22308927.025   -13615680.747 8 -10590207.28046  22308926.631    22308933.9974
  23641008.234    -6048667.847 8  -4703665.11645  23641008.020    23641016.7274
  23238925.577   -10920358.566 8  -8491668.55545  23238925.047    23238934.6704
 99  9 25 17  0 30.0000000  0  8 29 03 23 21 17 31 09 08
  20548537.238   -16422648.965 9 -12774440.01948  20548537.304    20548543.6074
  21778290.922    -1629118.531 8  -1253145.18747  21778290.773    21778298.4834
  22138222.676     6336212.936 8   4962506.01947  22138222.267    22138229.6524
  20663946.268    -6990346.334 9  -5236276.95647  20663945.938    20663952.8014
  23124440.873     8285983.918 8   6450061.38845  23124440.413    23124450.4624
  22305783.345   -13632201.081 8 -10603080.30346  22305782.908    22305790.3294
  23643249.237    -6036891.503 8  -4694488.83445  23643248.989    23643257.7674
  23226638.092   -10984929.661 8  -8541983.61546  23226637.554    23226647.1744
 99  9 25 17  1  0.0000000  0  8 29 03 23 21 17 31 09 08
  20540887.469   -16462848.716 9 -12805764.48148  20540887.520    20540893.7984
  21788303.508    -1576502.281 8  -1212145.58547  21788303.371    21788311.0734
  22149173.654     6393760.488 8   5007348.20147  22149173.246    22149180.6434
  20662898.044    -6995855.264 9  -5240569.64647  20662897.693    20662904.4814
  23142303.995     8379854.768 8   6523207.33645  23142303.566    23142313.5964
  22302749.627   -13648143.265 8 -10615502.82846  22302749.258    22302756.6834
  23645605.185    -6024511.064 8  -4684841.83645  23645604.998    23645613.7394
  23214425.775   -11049105.423 8  -8591990.59046  23214425.298    23214434.9144
 99  9 25 17  1 30.0000000  0  8 29 03 23 21 17 31 09 08
  20533337.603   -16502523.404 9 -12836679.81148  20533337.676    20533343.9534
  21798411.459    -1523384.904 8  -1170755.49247  21798411.314    21798418.9734
  22160155.834     6451471.908 8   5052318.07347  22160155.443    22160162.8114
  20661901.074    -7001094.677 9  -5244652.32047  20661900.684    20661907.4524
  23160222.980     8474018.656 8   6596581.61845  23160222.551    23160232.5084
  22299825.988   -13663507.323 8 -10627474.86746  22299825.622    22299833.0584
  23648078.652    -6011513.105 8  -4674713.61745  23648078.476    23648087.2964
  23202289.652   -11112881.463 8  -8641686.08446  23202289.189    23202298.7024
 99  9 25 17  2  0.0000000  0  8 29 03 23 21 17 31 09 08
  20525888.149   -16541670.702 9 -12867184.19248  20525888.203    20525894.4574
  21808615.471    -1469762.904 8  -1128972.19147  21808615.320    21808622.9654
  22171169.069     6509346.401 8   5097415.00547  22171168.659    22171176.0564
  20660956.716    -7006057.126 9  -5248519.18547  20660956.348    20660963.0874
  23178198.965     8568482.331 8   6670189.50345  23178198.557    23178208.5424
  22297015.280   -13678278.268 8 -10638984.74846  22297014.897    22297022.2844
  23650669.947    -5997895.970 8  -4664102.92145  23650669.782    23650678.5904
  23190229.316   -11176258.461 8  -8691070.62846  23190228.849    23190238.4464
 99  9 25 17  2 30.0000000  0  9 29 15 03 23 21 17 31 09 08
  20518535.163   -16580310.737 9 -12897293.29748  20518535.224    20518541.4884
  24288931.964    -6634982.897 7  -5148553.78145  24288931.602    24288941.9044
  21818913.244    -1415648.258 8  -1086805.00247  21818913.081    21818920.7034
  22182211.845     6567376.270 8   5142633.01947  22182211.434    22182218.7694
  20660063.125    -7010752.712 9  -5252178.10347  20660062.776    20660069.5164
  23196228.999     8663229.721 8   6744018.46945  23196228.545    23196238.4994
  22294319.436   -13692445.781 8 -10650024.41146  22294319.004    22294326.2804
  23653376.721    -5983672.243 8  -4653019.53945  23653376.578    23653385.3694
  23178244.889   -11239236.580 8  -8740144.34046  23178244.435    23178254.1084
 99  9 25 17  3  0.0000000  0  9 29 15 03 23 21 17 31 09 08
  20511278.069   -16618446.965 9 -12927009.83948  20511278.128    20511284.4034
  24268911.187    -6740194.177 7  -5230536.59345  24268910.643    24268920.8924
  21829303.455    -1361047.608 8  -1044259.12347  21829303.287    21829310.9354
  22193281.836     6625548.955 8   5187962.30847  22193281.401    22193288.7664
  20659216.190    -7015203.218 9  -5255646.04847  20659215.872    20659222.6364
  23214309.516     8758243.277 8   6818054.83245  23214309.078    23214319.1664
  22291739.203   -13706005.538 8 -10660590.50546  22291738.780    22291745.9944
  23656194.470    -5968865.128 8  -4641481.57745  23656194.337    23656203.1914
  23166335.913   -11301818.362 8  -8788909.23146  23166335.460    23166345.0604
 99  9 25 17  3 30.0000000  0  9 29 15 03 23 21 17 31 09 08
  20504115.346   -16656087.364 9 -12956340.01448  20504115.406    20504121.6804
  24248892.588    -6845393.935 7  -5312510.39645  24248891.782    24248901.7884
  21839784.732    -1305968.624 8  -1001340.50647  21839784.532    21839792.2114
  22204377.182     6683855.018 8   5233395.52647  22204376.769    22204384.0944
  20658413.796    -7019420.078 9  -5258931.93147  20658413.488    20658420.2554
  23232441.817     8853527.657 8   6892302.21845  23232441.235    23232451.3734
  22289275.669   -13718951.800 8 -10670678.54646  22289275.226    22289282.4014
  23659121.062    -5953486.038 8  -4629497.89745  23659120.971    23659129.8544
  23154502.249   -11364004.086 8  -8837365.50046  23154501.773    23154511.4034
 99  9 25 17  4  0.0000000  0  9 29 15 03 23 21 17 31 09 08
  20497042.890   -16693253.484 9 -12985300.62648  20497042.962    20497049.2094
  24228875.441    -6950586.466 7  -5394478.56445  24228874.519    24228884.4414
  21850356.024    -1250416.202 8   -958052.97847  21850355.843    21850363.5834
  22215495.152     6742280.189 8   5278921.55247  22215494.733    22215502.1204
  20657654.947    -7023408.202 9  -5262039.58247  20657654.603    20657661.3724
  23250624.279     8949076.035 8   6966755.31945  23250623.658    23250633.8634
  22286929.884   -13731279.417 8 -10680284.52846  22286929.450    22286936.5634
  23662152.010    -5937558.713 8  -4617087.00745  23662151.874    23662160.7364
  23142745.979   -11425782.935 8  -8885504.73446  23142745.541    23142755.1844
 99  9 25 17  4 30.0000000  0  9 29 15 03 23 21 17 31 09 08
  20490060.920   -16729944.046 9 -13013890.66948  20490060.976    20490067.2004
  24208858.357    -7055777.485 7  -5476445.56045  24208857.247    24208867.3044
  21861016.020    -1194397.662 8   -914402.25347  21861015.863    21861023.6434
  22226633.264     6800810.639 8   5324529.62947  22226632.812    22226640.1694
  20656937.365    -7027179.160 9  -5264978.00547  20656937.010    20656943.7984
  23268852.619     9044865.955 8   7041396.63845  23268852.039    23268862.2834
  22284700.449   -13742995.453 8 -10689413.95646  22284700.033    22284707.1234
  23665287.179    -5921083.305 8  -4604249.03145  23665287.062    23665295.9054
  23131066.521   -11487158.653 8  -8933329.83046  23131066.017    23131075.5974
 99  9 25 17  5  0.0000000  0  9 29 15 03 23 21 17 31 09 08
  20483172.226   -16766144.382 9 -13042098.71648  20483172.305    20483178.4994
  24188841.615    -7160966.723 7  -5558411.16345  24188840.523    24188850.2924
  21871762.645    -1137924.287 8   -870397.10547  21871762.434    21871770.2374
  22237788.348     6859430.695 8   5370207.51747  22237787.919    22237795.3514
  20656259.562    -7030741.173 9  -5267753.62047  20656259.179    20656266.0034
  23287125.114     9140887.875 8   7116218.73545  23287124.509    23287134.8664
  22282587.633   -13754098.575 8 -10698065.78346  22282587.226    22282594.3354
  23668529.848    -5904043.266 8  -4590971.05445  23668529.767    23668538.6164
  23119463.244   -11548133.541 8  -8980842.62646  23119462.769    23119472.2854
 99  9 25 17  5 30.0000000  0  9 29 15 03 23 21 17 31 09 08
  20476376.985   -16801853.716 9 -13069924.17348  20476377.059    20476383.2174
  24168826.526    -7266146.714 7  -5640369.54245  24168825.420    24168835.0504
  21882593.831    -1081006.203 8   -826045.43847  21882593.626    21882601.4584
  22248960.916     6918142.661 8   5415957.02747  22248960.475    22248967.9034
  20655622.534    -7034088.675 9  -5270362.08247  20655622.170    20655629.0014
  23305438.211     9237123.260 8   7191207.15745  23305437.621    23305448.0714
  22280590.685   -13764592.631 8 -10706243.01746  22280590.308    22280597.4314
  23671881.307    -5886431.469 8  -4577247.55545  23671881.188    23671890.0934
  23107939.412   -11608691.321 8  -9028030.42846  23107938.927    23107948.3964
 99  9 25 17  6  0.0000000  0  9 29 15 03 23 21 17 31 09 08
  20469676.303   -16837065.958 9 -13097362.27648  20469676.358    20469682.5364
  24148813.991    -7371312.598 7  -5722316.92345  24148812.855    24148822.5484
  21893511.215    -1023635.389 8   -781340.99347  21893511.008    21893518.8634
  22260151.496     6976949.225 8   5461780.24747  22260151.058    22260158.5044
  20655029.652    -7037204.287 9  -5272789.84947  20655029.311    20655036.1344
  23323789.252     9333558.122 8   7266351.01545  23323788.677    23323799.2184
  22278708.387   -13774484.288 8 -10713950.85546  22278708.001    22278715.1824
  23675341.581    -5868247.618 8  -4563078.29345  23675341.472    23675350.3874
  23096498.394   -11668813.984 8  -9074879.18746  23096497.928    23096507.3084
 99  9 25 17  6 30.0000000  0  9 29 15 03 23 21 17 31 09 08
  20463074.843   -16871757.136 9 -13124394.35948  20463074.888    20463081.0394
  24128806.230    -7476453.421 7  -5804244.77645  24128805.126    24128814.7764
  21904514.870     -965811.118 8   -736283.20647  21904514.680    21904522.5304
  22271362.601     7035863.855 8   5507687.66847  22271362.167    22271369.6374
  20654482.943    -7040077.294 9  -5275028.57547  20654482.629    20654489.4274
  23342180.404     9430203.712 8   7341659.08145  23342179.815    23342190.2974
  22276940.356   -13783775.286 8 -10721190.63546  22276939.975    22276947.2314
  23678914.761    -5849470.583 7  -4548446.81545  23678914.688    23678923.5694
  23085139.535   -11728504.850 8  -9121391.51346  23085139.051    23085148.3974
 99  9 25 17  7  0.0000000  0  9 29 15 03 23 21 17 31 09 08
  20456572.658   -16905926.246 9 -13151019.63248  20456572.689    20456578.8714
  24108806.675    -7581550.872 7  -5886138.84945  24108805.911    24108815.4094
  21915605.571     -907529.188 8   -690868.80247  21915605.372    21915613.2534
  22282597.774     7094904.745 8   5553693.47447  22282597.329    22282604.8374
  20653984.399    -7042697.273 9  -5277070.13647  20653984.084    20653990.8454
  23360616.192     9527083.175 8   7417149.37745  23360615.492    23360626.1144
  22275285.071   -13792473.973 8 -10727968.86846  22275284.671    22275291.9644
  23682601.331    -5830097.754 7  -4533351.06245  23682601.266    23682610.0634
  23073865.864   -11787748.076 8  -9167555.05446  23073865.406    23073874.6834
 99  9 25 17  7 30.0000000  0  9 29 15 03 23 21 17 31 09 08
  20450166.101   -16939592.610 9 -13177253.15848  20450166.165    20450172.3274
  24088816.493    -7686598.995 7  -5967994.47045  24088816.000    24088825.2924
  21926787.694     -848767.132 8   -645080.27247  21926787.521    21926795.4104
  22293859.952     7154087.605 8   5599809.92247  22293859.502    22293866.9974
  20653537.204    -7045047.610 9  -5278901.58647  20653536.864    20653543.5834
  23379099.408     9624212.894 8   7492834.67445  23379098.816    23379109.5714
  22273740.247   -13800592.008 8 -10734294.64846  22273739.871    22273747.2454
  23686398.228    -5810144.458 7  -4517802.98045  23686398.128    23686406.9764
  23062677.911   -11846541.445 8  -9213368.07246  23062677.431    23062686.6624
 99  9 25 17  8  0.0000000  0  9 29 15 03 23 21 17 31 09 08
  20443852.839   -16972769.061 9 -13203104.92648  20443852.895    20443859.0704
  24068834.825    -7791603.090 7  -6049815.79345  24068834.323    24068843.6084
  21938062.450     -789518.353 8   -598912.47147  21938062.265    21938070.1634
  22305146.670     7213399.501 8   5646026.90847  22305146.248    22305153.7464
  20653139.879    -7047135.910 9  -5280528.85347  20653139.539    20653146.2434
  23397633.768     9721610.549 8   7568728.75145  23397633.185    23397644.0434
  22272306.005   -13808128.961 8 -10740167.63646  22272305.644    22272313.0224
  23690307.076    -5789602.971 7  -4501796.57645  23690306.882    23690315.8354
  23051572.482   -11904900.937 8  -9258843.02746  23051572.019    23051581.0754
 99  9 25 17  8 30.0000000  0  9 29 15 03 23 21 17 31 09 08
  20437630.893   -17005465.791 9 -13228582.89148  20437630.962    20437637.0894
  24048861.022    -7896565.878 7  -6131604.92745  24048860.461    24048869.8484
  21949428.407     -729790.333 8   -552371.23847  21949428.237    21949436.1094
  22316456.764     7272833.987 8   5692339.42847  22316456.309    22316463.8524
  20652789.654    -7048976.629 9  -5281963.20647  20652789.281    20652796.0154
  23416218.152     9819271.023 8   7644827.62845  23416217.569    23416228.2834
  22270981.972   -13815087.087 8 -10745589.59646  22270981.600    22270989.0254
  23694329.115    -5768466.720 7  -4485326.72845  23694328.957    23694337.9154
  23040546.400   -11962843.268 8  -9303992.92046  23040545.972    23040554.9794
 99  9 25 17  9  0.0000000  0  9 29 15 03 23 21 17 31 09 08
  20431497.875   -17037695.174 9 -13253696.68248  20431497.928    20431504.0674
  24028893.170    -8001497.089 7  -6213369.46545  24028892.624    24028902.0944
  21960883.841     -669592.277 8   -505463.74847  21960883.656    21960891.5264
  22327788.153     7332380.561 8   5738739.29147  22327787.714    22327795.3114
  20652484.253    -7050581.454 9  -5283213.74047  20652483.903    20652490.6804
  23434850.229     9917182.952 8   7721122.44545  23434849.791    23434860.4874
  22269767.714   -13821468.960 8 -10750562.51446  22269767.291    22269774.6984
  23698462.961    -5746743.050 7  -4468399.15145  23698462.816    23698471.6674
  23029600.033   -12020367.200 8  -9348816.79346  23029599.580    23029608.6124
 99  9 25 17  9 30.0000000  0  9 29 15 03 23 21 17 31 09 08
  20425454.600   -17069452.812 9 -13278442.88748  20425454.672    20425460.8134
  24008928.869    -8106410.488 7  -6295120.13445  24008928.135    24008937.7014
  21972425.970     -608938.571 8   -458201.20047  21972425.746    21972433.6324
  22339137.636     7392022.348 8   5785213.32946  22339137.187    22339144.8604
  20652221.341    -7051962.940 9  -5284290.24347  20652221.005    20652227.8424
  23453527.093    10015329.597 7   7797600.14345  23453526.641    23453537.3244
  22268664.903   -13827264.767 8 -10755078.75446  22268664.474    22268671.8344
  23702707.032    -5724440.394 7  -4451020.42045  23702706.868    23702715.7414
  23018732.530   -12077476.580 8  -9393317.64846  23018732.033    23018741.1074
 99  9 25 17 10  0.0000000  0  9 29 15 03 23 21 17 31 09 08
  20419506.740   -17100708.872 9 -13302798.25248  20419506.790    20419512.9504
  23988968.476    -8211302.351 7  -6376854.03045  23988967.863    23988977.5054
  21984048.959     -547859.615 8   -410607.29647  21984048.759    21984056.6804
  22350504.514     7451755.229 8   5831758.34346  22350504.058    22350511.7314
  20652000.254    -7053124.811 9  -5285195.62147  20651999.918    20652006.7724
  23472246.438    10113700.212 7   7874252.37945  23472246.012    23472256.7844
  22267675.223   -13832465.646 8 -10759131.43346  22267674.779    22267682.1694
  23707062.481    -5701551.861 7  -4433185.20945  23707062.402    23707071.3024
  23007944.130   -12134169.827 8  -9437494.23746  23007943.622    23007952.7834
 99  9 25 17 10 30.0000000  0  9 29 15 03 23 21 17 31 09 08
  20413660.515   -17131431.047 9 -13326737.60348  20413660.587    20413666.7144
  23969015.169    -8316156.762 7  -6458558.73645  23969014.757    23969024.2884
  21995752.930     -486355.149 8   -362681.81947  21995752.737    21995760.6744
  22361891.838     7511595.978 8   5878387.41046  22361891.415    22361899.0874
  20651823.706    -7054052.753 9  -5285918.71147  20651823.360    20651830.1844
  23491008.279    10212293.193 7   7951077.87745  23491007.874    23491018.6764
  22266800.059   -13837064.516 8 -10762714.99846  22266799.675    22266807.0624
  23711527.419    -5678087.997 7  -4414901.70145  23711527.321    23711536.3044
  22997237.217   -12190435.015 8  -9481337.22546  22997236.704    22997245.9184
 99  9 25 17 11  0.0000000  0  9 29 15 03 23 21 17 31 09 08
  20407918.313   -17161606.713 9 -13350251.09948  20407918.372    20407924.5014
  23949070.948    -8420963.519 7  -6540226.28045  23949070.573    23949080.2154
  22007538.638     -424420.910 8   -314421.45647  22007538.448    22007546.4854
  22373302.340     7571558.054 8   5925111.01846  22373301.915    22373309.5804
  20651693.882    -7054735.237 9  -5286450.53747  20651693.530    20651700.3224
  23509813.799    10311114.989 7   8028081.66845  23509813.184    23509823.9964
  22266041.888   -13841048.969 8 -10765819.80446  22266041.480    22266048.8864
  23716102.663    -5654044.560 7  -4396166.55745  23716102.543    23716111.5764
  22986616.569   -12246246.548 8  -9524826.71646  22986616.057    22986625.3604
 99  9 25 17 11 30.0000000  0  9 29 15 03 23 21 17 31 09 08
  20402279.881   -17191236.918 9 -13373339.56848  20402279.935    20402286.0184
  23929137.956    -8525711.331 7  -6621847.90345  23929137.543    23929147.2874
  22019407.997     -362047.474 8   -265818.86347  22019407.801    22019415.9084
  22384740.282     7631664.529 8   5971947.14146  22384739.837    22384747.5244
  20651611.945    -7055166.140 9  -5286786.32347  20651611.597    20651618.3334
  23528662.685    10410165.491 7   8105263.67945  23528662.086    23528672.8574
  22265402.719   -13844407.950 8 -10768437.22946  22265402.293    22265409.7174
  23720788.519    -5629420.865 7  -4376979.27445  23720788.330    23720797.3604
  22976082.346   -12301604.045 8  -9567962.38246  22976081.879    22976091.1464
 99  9 25 17 12  0.0000000  0  9 29 15 03 23 21 17 31 09 08
  20396743.376   -17220331.571 9 -13396010.71748  20396743.428    20396749.5134
  23909216.902    -8630396.842 7  -6703420.98045  23909216.493    23909226.2874
  22031363.077     -299223.453 8   -216865.16547  22031362.865    22031370.9664
  22396209.078     7691933.197 8   6018909.65246  22396208.657    22396216.3134
  20651577.180    -7055348.914 9  -5286928.76047  20651576.811    20651583.5704
  23547555.991    10509450.611 7   8182628.50745  23547555.477    23547566.4284
  22264882.139   -13847143.569 8 -10770568.93046  22264881.763    22264889.1424
  23725584.386    -5604218.474 7  -4357341.04345  23725584.230    23725593.2174
  22965633.010   -12356515.976 8  -9610750.83346  22965632.483    22965641.6964
 99  9 25 17 12 30.0000000  0  9 29 15 03 23 21 17 31 09 08
  20391303.112   -17248920.270 9 -13418287.62648  20391303.175    20391309.2414
  23889306.591    -8735026.430 7  -6784950.47045  23889306.128    23889315.9214
  22043406.736     -235934.263 8   -167548.99547  22043406.527    22043414.6444
  22407708.857     7752364.639 8   6065998.99746  22407708.436    22407716.1534
  20651588.064    -7055291.576 9  -5286884.09847  20651587.703    20651594.5354
  23566493.928    10608969.202 7   8260175.29545  23566493.326    23566504.3734
  22264477.867   -13849267.928 8 -10772224.32946  22264477.523    22264484.9224
  23730488.905    -5578445.639 7  -4337258.35345  23730488.695    23730497.5854
  22955269.940   -12410974.209 8  -9653185.73446  22955269.398    22955278.6304
 99  9 25 17 13  0.0000000  0  9 29 15 03 23 21 17 31 09 08
  20385952.577   -17277037.666 9 -13440197.28348  20385952.629    20385958.6714
  23869404.282    -8839613.908 7  -6866447.14645  23869403.736    23869413.4944
  22055535.928     -172195.236 8   -117882.30347  22055535.700    22055543.8284
  22419237.641     7812948.489 8   6113207.10346  22419237.245    22419244.9484
  20651640.910    -7055013.882 9  -5286667.73647  20651640.567    20651647.4194
  23585475.461    10708717.662 7   8337901.16445  23585475.055    23585486.1024
  22264186.949   -13850797.097 8 -10773415.94346  22264186.584    22264193.9344
  23735501.811    -5552102.893 7  -4316731.52345  23735501.584    23735510.5174
  22944993.536   -12464976.748 8  -9695265.52246  22944993.022    22945002.2974
 99  9 25 17 13 30.0000000  0  9 29 15 03 23 21 17 31 09 08
  20380690.063   -17304692.500 9 -13461746.49548  20380690.092    20380696.1334
  23849508.745    -8944166.189 7  -6947916.41245  23849508.059    23849517.8804
  22067747.706     -108022.338 8    -67877.53447  22067747.466    22067755.6234
  22430790.420     7873658.406 8   6160513.44446  22430790.057    22430797.7764
  20651734.788    -7054520.604 9  -5286283.37847  20651734.452    20651741.2844
  23604500.348    10808693.238 7   8415804.00345  23604500.005    23604511.0744
  22264005.387   -13851751.351 8 -10774159.57346  22264005.010    22264012.3694
  23740619.827    -5525207.701 7  -4295774.24145  23740619.571    23740628.5154
  22934801.724   -12518534.913 8  -9736999.03246  22934801.258    22934810.5114
 99  9 25 17 14  0.0000000  0  9 29 15 03 23 21 17 31 09 08
  20375516.689   -17331878.758 9 -13482930.59048  20375516.723    20375522.7414
  23829619.790    -9048683.213 7  -7029358.20345  23829619.089    23829628.9324
  22080041.297      -43419.191 8    -17537.50747  22080041.056    22080049.2094
  22442360.801     7934460.764 8   6207891.80846  22442360.417    22442368.1794
  20651871.676    -7053801.746 9  -5285723.24547  20651871.307    20651878.0884
  23623566.697    10908885.891 7   8493876.00645  23623566.236    23623577.2724
  22263931.274   -13852140.829 8 -10774463.11546  22263930.911    22263938.2274
  23745843.484    -5497757.303 7  -4274384.34045  23745843.205    23745852.1104
  22924696.591   -12571637.707 8  -9778377.71646  22924696.093    22924705.3154
 99  9 25 17 14 30.0000000  0  9 29 15 03 23 21 17 31 09 08
  20370434.551   -17358585.311 9 -13503740.88448  20370434.612    20370440.6524
  23809739.298    -9153155.753 7  -7110765.33445  23809738.621    23809748.4304
  22092414.850       21604.075 8     33129.88747  22092414.639    22092422.8184
  22453946.416     7995342.809 8   6255332.27246  22453945.927    22453953.7724
  20652053.750    -7052845.090 9  -5284977.81447  20652053.351    20652060.1124
  23642673.402    11009292.615 7   8572114.79445  23642673.078    23642684.1924
  22263964.628   -13851966.246 8 -10774327.14046  22263964.288    22263971.5794
  23751175.276    -5469738.230 7  -4252551.31545  23751175.094    23751183.9644
  22914681.561   -12624266.678 8  -9819387.18246  22914681.086    22914690.2344
 99  9 25 17 15  0.0000000  0  9 29 15 03 23 21 17 31 09 08
  20365446.776   -17384796.049 9 -13524164.82548  20365446.835    20365452.9364
  23789868.758    -9257576.424 7  -7192132.05045  23789868.107    23789877.7104
  22104867.768       87044.354 8     84122.22747  22104867.578    22104875.7794
  22465547.508     8056306.493 8   6302836.35646  22465547.006    22465554.8094
  20652282.778    -7051641.380 9  -5284039.87247  20652282.412    20652289.2084
  23661821.159    11109913.819 7   8650520.72645  23661820.872    23661831.9054
  22264108.357   -13851211.467 8 -10773739.06046  22264107.989    22264115.2794
  23756614.970    -5441152.679 7  -4230276.89645  23756614.788    23756623.7694
  22904755.100   -12676430.392 8  -9860034.12546  22904754.619    22904763.6724
 99  9 25 17 15 30.0000000  0  9 29 15 03 23 21 17 31 09 08
  20360558.446   -17410484.411 9 -13544181.72748  20360558.489    20360564.5904
  23770010.197    -9361934.436 7  -7273449.94545  23770009.545    23770019.0394
  22117403.303      152918.671 8    135452.78047  22117403.080    22117411.3264
  22477164.955     8117356.418 8   6350407.64446  22477164.453    22477172.2884
  20652562.608    -7050170.780 9  -5282893.96847  20652562.249    20652569.1024
  23681008.324    11210741.953 7   8729087.88345  23681007.850    23681019.1724
  22264365.260   -13849861.713 8 -10772687.35546  22264364.880    22264372.2464
  23762163.250    -5411995.660 7  -4207557.16645  23762163.077    23762172.1654
  22894914.730   -12728141.101 8  -9900328.09846  22894914.281    22894923.3634
 99  9 25 17 16  0.0000000  0  9 29 15 03 23 21 17 31 09 08
  20355770.781   -17435643.674 9 -13563786.33548  20355770.843    20355776.9784
  23750164.966    -9466222.139 7  -7354713.05945  23750164.383    23750173.8104
  22130024.021      219240.641 8    187132.14747  22130023.833    22130032.0894
  22488803.084     8178514.596 8   6398063.29246  22488802.586    22488810.3644
  20652891.698    -7048441.390 9  -5281546.41047  20652891.351    20652898.2324
  23700237.187    11311789.110 7   8807825.73145  23700236.777    23700247.9594
  22264737.931   -13847903.761 8 -10771161.74346  22264737.513    22264744.8854
  23767823.859    -5382248.662 7  -4184377.71545  23767823.728    23767832.9254
  22885162.876   -12779386.799 8  -9940259.72646  22885162.452    22885171.4784
 99  9 25 17 16 30.0000000  0  9 29 15 03 23 21 17 31 09 08
  20351083.034   -17460277.992 9 -13582981.90148  20351083.078    20351089.2224
  23730332.217    -9570443.841 7  -7435924.75945  23730331.603    23730340.9994
  22142727.341      285996.580 8    239149.67847  22142727.149    22142735.4004
  22500465.101     8239798.838 8   6445817.16846  22500464.672    22500472.4664
  20653267.203    -7046468.362 9  -5280009.00547  20653266.801    20653273.6874
  23719511.545    11413075.681 7   8886750.12445  23719511.184    23719522.4564
  22265226.002   -13845339.080 8 -10769163.35846  22265225.595    22265233.0404
  23773594.217    -5351925.532 7  -4160749.35845  23773593.933    23773603.2274
  22875500.329   -12830163.690 8  -9979826.07846  22875499.881    22875508.8224
 99  9 25 17 17  0.0000000  0  9 29 15 03 23 21 17 31 09 08
  20346495.058   -17484387.771 9 -13601768.73648  20346495.144    20346501.2404
  23710510.900    -9674605.364 7  -7517089.56545  23710510.355    23710519.5804
  22155511.592      353177.637 8    291498.46147  22155511.378    22155519.6464
  22512150.544     8301206.205 8   6493666.98446  22512150.142    22512157.9984
  20653686.774    -7044263.398 9  -5278290.87547  20653686.400    20653693.3024
  23738830.659    11514597.628 7   8965857.94845  23738830.210    23738841.7724
  22265828.960   -13842170.418 8 -10766694.32246  22265828.567    22265836.0814
  23779471.461    -5321040.157 7  -4136682.88745  23779471.345    23779480.4724
  22865925.963   -12880477.182 8 -10019031.35246  22865925.450    22865934.4824
 99  9 25 17 17 30.0000000  0  9 29 15 03 23 21 17 31 09 08
  20342006.149   -17507977.302 9 -13620150.17248  20342006.222    20342012.3384
  23690701.784    -9778702.699 7  -7598204.33745  23690701.339    23690710.4454
  22168375.224      420776.371 8    344172.71547  22168374.994    22168383.2424
  22523858.131     8362729.906 8   6541607.45146  22523857.748    22523865.6574
  20654149.080    -7041833.890 9  -5276397.77247  20654148.750    20654155.6564
  23758193.532    11616350.310 7   9045145.54945  23758193.065    23758204.7614
  22266546.207   -13838401.167 8 -10763757.30746  22266545.801    22266553.4114
  23785457.997    -5289580.384 7  -4112168.86945  23785457.970    23785466.9924
  22856443.348   -12930308.169 8 -10057860.66946  22856442.844    22856451.8744
 99  9 25 17 18  0.0000000  0  9 29 15 03 23 21 17 31 09 08
  20337612.170   -17531067.873 9 -13638142.81848  20337612.234    20337618.3304
  23670904.149    -9882739.759 7  -7679272.14645  23670903.665    23670912.8414
  22181314.307      488771.604 8    397155.92647  22181314.136    22181322.4024
  22535587.020     8424365.555 8   6589635.14546  22535586.678    22535594.6374
  20654651.948    -7039191.797 9  -5274339.01247  20654651.602    20654658.5104
  23777599.102    11718326.023 7   9124606.95745  23777598.630    23777610.1294
  22267376.339   -13834038.709 8 -10760358.03746  22267375.966    22267383.6074
  23791551.976    -5257555.848 7  -4087214.78345  23791551.932    23791561.1264
  22847056.463   -12979636.726 8 -10096298.48946  22847055.943    22847064.8834
 99  9 25 17 18 30.0000000  0  9 29 15 03 23 21 17 31 09 08
  20333313.567   -17553657.128 9 -13655744.82748  20333313.630    20333319.7234
  23651118.355    -9986715.387 7  -7760292.08945  23651117.612    23651126.8234
  22194326.463      557150.394 8    450438.01147  22194326.288    22194334.5454
  22547335.748     8486105.049 8   6637743.75946  22547335.394    22547343.3494
  20655197.936    -7036322.715 9  -5272103.37947  20655197.554    20655204.4884
  23797041.519    11820495.461 7   9204219.31645  23797041.111    23797052.4714
  22268319.463   -13829082.781 8 -10756496.32346  22268319.074    22268326.7624
  23797750.999    -5224980.219 7  -4061831.30845  23797750.799    23797760.1434
  22837763.949   -13028469.263 8 -10134349.81546  22837763.366    22837772.3684
 99  9 25 17 19  0.0000000  0  9 29 15 03 23 21 17 31 09 08
  20329111.217   -17575740.328 9 -13672952.50448  20329111.289    20329117.4364
  23631346.213   -10090619.014 8  -7841255.94445  23631345.460    23631354.4964
  22207413.333      625921.863 8    504026.08947  22207413.177    22207421.4244
  22559103.532     8547944.568 8   6685930.32146  22559103.128    22559111.1304
  20655789.503    -7033213.604 9  -5269680.71847  20655789.155    20655796.1054
  23816517.442    11922842.107 7   9283969.72945  23816517.128    23816528.5524
  22269377.103   -13823525.293 8 -10752165.87146  22269376.741    22269384.3994
  23804059.636    -5191829.024 7  -4035999.31945  23804059.422    23804068.7444
  22828565.262   -13076808.542 8 -10172016.78846  22828564.763    22828573.6854
 99  9 25 17 19 30.0000000  0  9 29 15 03 23 21 17 31 09 08
  20325002.723   -17597330.990 9 -13689776.39048  20325002.773    20325008.8654
  23611588.585   -10194446.293 8  -7922160.28345  23611587.748    23611596.7054
  22220576.593      695094.920 8    557927.08347  22220576.425    22220584.7254
  22570893.191     8609898.956 8   6734206.38946  22570892.746    22570900.7064
  20656430.366    -7029845.992 9  -5267056.62847  20656430.041    20656436.9534
  23836028.382    12025371.686 7   9363862.73245  23836027.941    23836039.4354
  22270548.361   -13817370.663 8 -10747370.11446  22270548.000    22270555.6294
  23810477.930    -5158101.917 8  -4009718.54545  23810477.698    23810486.9074
  22819461.689   -13124648.191 8 -10209294.41846  22819461.156    22819470.1374
 99  9 25 17 20  0.0000000  0  9 29 15 03 23 21 17 31 09 08
  20320989.607   -17618420.069 9 -13706209.42948  20320989.661    20320995.7514
  23591845.574   -10298196.091 7  -8003004.26045  23591844.806    23591853.7444
  22233815.608      764666.108 8    612138.31447  22233815.470    22233823.8254
  22582705.459     8671972.325 8   6782575.16146  22582704.969    22582712.9764
  20657121.413    -7026214.779 9  -5264227.12947  20657121.053    20657127.9714
  23855576.276    12128095.970 7   9443907.42845  23855575.748    23855587.3914
  22271833.313   -13810618.724 8 -10742108.91046  22271832.971    22271840.5094
  23817004.066    -5123808.118 7  -3982996.18845  23817003.801    23817012.9054
  22810451.228   -13171998.414 8 -10246190.68546  22810450.704    22810459.6164
 99  9 25 17 20 30.0000000  0  9 29 15 03 23 21 17 31 09 08
  20317073.915   -17638997.280 9 -13722243.60648  20317073.942    20317080.0404
  23572118.608   -10401861.174 7  -8083782.21645  23572117.913    23572126.9114
  22247130.796      834637.567 8    666661.43946  22247130.642    22247139.0804
  22594540.292     8734164.225 8   6831036.29246  22594539.786    22594547.8084
  20657862.939    -7022318.186 9  -5261190.84747  20657862.559    20657869.5184
  23875166.118    12231040.330 7   9524123.60645  23875165.687    23875177.4954
  22273233.018   -13803263.924 8 -10736377.94546  22273232.622    22273240.1384
  23823639.549    -5088938.653 7  -3955825.28045  23823639.287    23823648.2674
  22801533.219   -13218863.259 8 -10282708.73546  22801532.667    22801541.5074
 99  9 25 17 21  0.0000000  0  9 29 15 03 23 21 17 31 09 08
  20313252.970   -17659076.313 9 -13737889.60148  20313253.018    20313259.0784
  23552407.683   -10505441.429 7  -8164494.06245  23552407.158    23552416.3214
  22260521.936      905007.894 8    721495.37547  22260521.751    22260530.2004
  22606398.700     8796480.121 8   6879594.03646  22606398.206    22606406.2264
  20658652.000    -7018171.476 9  -5257959.67347  20658651.673    20658658.6194
  23894800.515    12334218.129 7   9604521.68345  23894799.904    23894811.8684
  22274747.231   -13795307.037 8 -10730177.82246  22274746.794    22274754.3114
  23830382.749    -5053503.472 7  -3928213.53845  23830382.559    23830391.3744
  22792708.203   -13265239.148 8 -10318845.78146  22792707.667    22792716.4524
 99  9 25 17 21 30.0000000  0  9 29 15 03 23 21 17 31 09 08
  20309526.042   -17678661.433 9 -13753150.72548  20309526.078    20309532.1464
  23532712.678   -10608938.220 7  -8245140.87745  23532712.323    23532721.6304
  22273988.322      975773.478 8    776637.28946  22273988.109    22273996.5404
  22618278.076     8858906.385 8   6928237.77746  22618277.622    22618285.6244
  20659485.598    -7013791.424 9  -5254546.66847  20659485.246    20659492.1614
  23914478.586    12437625.637 7   9685098.76545  23914477.881    23914489.7164
  22276375.456   -13786751.219 8 -10723510.99746  22276374.976    22276382.4484
  23837227.835    -5017532.638 8  -3900184.37645  23837227.700    23837236.5174
  22783976.304   -13311125.722 8 -10354601.53946  22783975.762    22783984.5134
 99  9 25 17 22  0.0000000  0  9 29 15 03 23 21 17 31 09 08
  20305894.341   -17697745.970 9 -13768021.77748  20305894.392    20305900.4634
  23513033.779   -10712351.235 7  -8325722.39645  23513033.446    23513042.7774
  22287527.879     1046923.738 8    832078.95946  22287527.665    22287536.0834
  22630173.984     8921419.669 8   6976949.32746  22630173.547    22630181.5934
  20660359.315    -7009200.218 9  -5250969.12847  20660358.941    20660365.8534
  23934197.084    12541246.771 7   9765842.27245  23934196.430    23934208.3214
  22278117.718   -13777595.911 8 -10716377.03046  22278117.210    22278124.7524
  23844174.496    -4981028.543 8  -3871739.67745  23844174.241    23844183.1204
  22775338.935   -13356515.344 8 -10389970.05246  22775338.391    22775347.1614
 99  9 25 17 22 30.0000000  0  9 29 15 03 23 21 17 31 09 08
  20302355.936   -17716340.735 9 -13782511.19948  20302355.971    20302361.9994
  23493370.160   -10815684.502 7  -8406241.75745  23493369.659    23493378.9694
  22301140.827     1118460.041 8    887821.43446  22301140.601    22301149.0294
  22642085.838     8984016.203 8   7025725.75746  22642085.410    22642093.4434
  20661273.641    -7004395.385 9  -5247225.13447  20661273.278    20661280.2054
  23953953.002    12645063.360 7   9846738.11345  23953952.333    23953964.0804
  22279970.535   -13767859.182 8 -10708790.01546  22279970.058    22279977.6784
  23851222.526    -4943991.087 7  -3842879.34545  23851222.272    23851231.0894
  22766799.103   -13401392.176 8 -10424939.00546  22766798.583    22766807.3614
 99  9 25 17 23  0.0000000  0  9 29 15 03 23 21 17 31 09 08
  20298910.523   -17734446.218 9 -13796619.35448  20298910.566    20298916.6434
  23473721.730   -10918938.284 7  -8486699.17945  23473721.051    23473730.3614
  22314826.519     1190378.288 8    943861.52946  22314826.237    22314834.6994
  22654015.916     9046708.768 8   7074576.99546  22654015.481    22654023.5184
  20662229.389    -6999373.071 9  -5243311.66947  20662229.036    20662235.9524
  23973743.009    12749059.755 7   9927774.05745  23973742.293    23973754.2364
  22281930.983   -13757556.874 8 -10700762.28146  22281930.530    22281938.2104
  23858370.190    -4906430.105 8  -3813611.07945  23858370.004    23858378.9134
  22758357.860   -13445751.154 8 -10459504.42146  22758357.337    22758366.1234
 99  9 25 17 23 30.0000000  0  9 29 15 03 23 21 17 31 09 08
  20295560.274   -17752051.929 9 -13810338.08048  20295560.316    20295566.3534
  23454088.934   -11022109.096 7  -8567091.96745  23454088.232    23454097.6384
  22328584.510     1262676.940 8   1000198.04246  22328584.293    22328592.7534
  22665964.710     9109499.708 8   7123504.89846  22665964.260    22665972.2704
  20663228.316    -6994124.293 9  -5239221.73747  20663227.895    20663234.7954
  23993567.879    12853239.704 8  10008953.01545  23993567.218    23993579.3634
  22283996.354   -13746703.012 8 -10692304.77046  22283995.911    22284003.7234
  23865620.833    -4868327.748 8  -3783920.96345  23865620.635    23865629.5984
  22750016.946   -13489582.827 8 -10493658.94746  22750016.422    22750025.2114
 99  9 25 17 24  0.0000000  0  9 29 15 03 23 21 17 31 09 08
  20292305.769   -17769154.506 9 -13823664.74848  20292305.799    20292311.8394
  23434471.844   -11125197.176 7  -8647420.29245  23434471.313    23434480.4954
  22342411.975     1335340.427 8   1056818.83646  22342411.710    22342420.2304
  22677935.407     9172406.030 8   7172522.70046  22677935.002    22677943.0284
  20664273.924    -6988629.668 9  -5234940.23747  20664273.511    20664280.3964
  24013429.647    12957612.073 7  10090281.94245  24013428.939    24013440.8684
  22286166.364   -13735299.515 8 -10683418.97246  22286165.948    22286173.7694
  23872978.371    -4829663.794 8  -3753793.22545  23872978.211    23872987.0644
  22741776.794   -13532884.871 8 -10527400.78946  22741776.286    22741785.1534
 99  9 25 17 24 30.0000000  0  9 29 15 03 23 21 17 31 09 08
  20289146.831   -17785755.115 9 -13836600.27548  20289146.836    20289152.8664
  23414872.548   -11228192.022 7  -8727675.94345  23414871.991    23414881.2854
  22356310.029     1408375.109 8   1113728.87746  22356309.799    22356318.3684
  22689930.619     9235441.018 8   7221640.76646  22689930.178    22689938.2684
  20665367.271    -6982883.922 9  -5230463.06047  20665366.904    20665373.7974
  24033330.997    13062193.739 7  10171773.94445  24033330.241    24033342.4064
  22288443.254   -13723334.438 8 -10674095.58246  22288442.812    22288450.6864
  23880444.046    -4790431.453 8  -3723222.58445  23880443.873    23880452.8554
  22733635.642   -13575666.767 8 -10560737.31346  22733635.142    22733643.9914
 99  9 25 17 25  0.0000000  0  9 29 15 03 23 21 17 31 09 08
  20286083.618   -17801852.240 9 -13849143.47348  20286083.637    20286089.7114
  23395292.121   -11331088.228 7  -8807854.74145  23395291.457    23395300.7054
  22370277.811     1481775.911 8   1170924.20546  22370277.598    22370286.1584
  22701949.358     9298599.163 8   7270854.79846  22701948.888    22701956.9574
  20666506.011    -6976900.364 9  -5225800.57547  20666505.606    20666512.4874
  24053271.903    13166983.293 7  10253427.93245  24053271.356    24053283.6934
  22290831.016   -13710787.066 8 -10664318.45646  22290830.579    22290838.4374
  23888017.714    -4750632.678 8  -3692210.58245  23888017.470    23888026.2904
  22725589.618   -13617948.662 8 -10593684.21446  22725589.112    22725597.9464
 99  9 25 17 25 30.0000000  0  9 29 15 03 23 21 17 31 09 08
  20283116.417   -17817445.058 9 -13861293.71148  20283116.431    20283122.4614
  23375730.116   -11433887.335 7  -8887957.86345  23375729.409    23375738.6964
  22384314.595     1555539.020 8   1228401.84546  22384314.341    22384322.9054
  22713986.623     9361854.844 8   7320144.84146  22713986.124    22713994.2154
  20667687.999    -6970689.054 9  -5220960.62347  20667687.568    20667694.4844
  24073249.429    13271965.037 8  10335231.69145  24073248.995    24073260.9994
  22293332.873   -13697640.138 8 -10654074.14046  22293332.437    22293340.2534
  23895699.923    -4710261.469 8  -3660752.55645  23895699.851    23895708.5564
  22717638.239   -13659733.192 8 -10626243.57146  22717637.737    22717646.5874
 99  9 25 17 26  0.0000000  0  9 29 15 03 23 21 17 31 09 08
  20280244.970   -17832534.484 9 -13873051.69048  20280244.979    20280251.0324
  23356186.829   -11536587.805 7  -8967984.13445  23356186.199    23356195.4234
  22398419.397     1629659.856 8   1286158.23246  22398419.177    22398427.7784
  22726040.498     9425197.753 8   7369502.85446  22726039.990    22726048.1114
  20668913.303    -6964249.931 9  -5215943.15647  20668912.919    20668919.7944
  24093260.717    13377123.675 7  10417173.29645  24093260.183    24093271.9354
  22295950.629   -13683884.130 8 -10643355.21946  22295950.205    22295957.9474
  23903490.314    -4669323.315 8  -3628852.75445  23903490.138    23903498.8084
  22709782.127   -13701017.268 8 -10658412.94946  22709781.605    22709790.4794
 99  9 25 17 26 30.0000000  0  9 29 15 03 23 21 17 31 09 08
  20277470.557   -17847114.074 9 -13884412.40448  20277470.569    20277476.6314
  23336662.799   -11639187.350 8  -9047931.77345  23336662.185    23336671.2764
  22412593.720     1704146.035 8   1344199.31146  22412593.534    22412602.0924
  22738111.808     9488632.496 8   7418932.41846  22738111.333    22738119.4494
  20670178.572    -6957601.255 9  -5210762.39847  20670178.173    20670185.0184
  24113302.404    13482442.472 8  10499239.67445  24113301.888    24113313.8844
  22298682.883   -13669526.238 8 -10632167.29546  22298682.473    22298690.1894
  23911386.272    -4627830.128 8  -3596520.47045  23911386.121    23911394.7454
  22702022.946   -13741792.095 8 -10690185.48146  22702022.427    22702031.2734
 99  9 25 17 27  0.0000000  0  9 29 15 03 23 21 17 31 09 08
  20274795.215   -17861172.876 9 -13895367.31148  20274795.251    20274801.2704
  23317157.513   -11741688.450 8  -9127802.70745  23317156.878    23317165.8494
  22426835.709     1778987.529 8   1402517.24346  22426835.535    22426844.1124
  22750201.835     9552165.731 8   7468438.73546  22750201.413    22750209.5234
  20671485.065    -6950735.684 9  -5205412.63447  20671484.669    20671491.5364
  24133373.206    13587914.409 7  10581425.40645  24133372.664    24133384.5964
  22301527.087   -13654580.444 8 -10620521.27946  22301526.664    22301534.3074
  23919386.493    -4585788.629 8  -3563760.94545  23919386.353    23919395.0714
  22694362.571   -13782047.802 8 -10721553.51146  22694362.010    22694370.8564
 99  9 25 17 27 30.0000000  0  9 29 15 03 23 21 17 31 09 08
  20272219.851   -17874706.749 9 -13905913.18448  20272219.864    20272225.9064
  23297672.316   -11844083.057 8  -9207590.67745  23297671.818    23297680.7514
  22441146.017     1854188.245 8   1461115.09146  22441145.828    22441154.4254
  22762313.017     9615810.021 8   7518031.57746  22762312.589    22762320.7494
  20672836.280    -6943635.132 9  -5199879.77347  20672835.903    20672842.7484
  24153474.880    13693548.961 7  10663737.83745  24153474.278    24153486.5674
  22304480.527   -13639060.411 8 -10608427.80146  22304480.100    22304487.6874
  23927491.963    -4543194.726 8  -3530571.02745  23927491.852    23927500.5404
  22686804.304   -13821766.763 8 -10752503.30346  22686803.803    22686812.6104
 99  9 25 17 28  0.0000000  0  9 29 15 03 23 21 17 31 09 08
  20269744.147   -17887716.727 9 -13916050.83448  20269744.148    20269750.1964
  23278209.305   -11946361.527 8  -9287288.14545  23278208.782    23278217.8044
  22455525.997     1929754.925 8   1519998.11046  22455525.783    22455534.4124
  22774446.926     9679573.794 8   7567717.53146  22774446.489    22774454.6964
  20674234.678    -6936286.817 9  -5194153.84347  20674234.285    20674241.0944
  24173612.784    13799374.746 7  10746199.25045  24173612.316    24173624.8004
  22307542.582   -13622969.561 8 -10595889.52546  22307542.130    22307549.7554
  23935700.665    -4500057.981 8  -3496958.08345  23935700.599    23935709.1854
  22679348.093   -13860949.444 8 -10783035.18846  22679347.575    22679356.3574
 99  9 25 17 28 30.0000000  0  9 29 15 03 23 21 17 31 09 08
  20267366.753   -17900209.911 9 -13925785.79748  20267366.774    20267372.8074
  23258769.525   -12048518.654 8  -9366891.06145  23258768.870    23258777.8244
  22469976.932     2005694.944 8   1579172.03546  22469976.719    22469985.4464
  22786603.569     9743456.880 8   7617496.46246  22786603.103    22786611.3454
  20675680.105    -6928691.232 9  -5188235.24147  20675679.695    20675686.5614
  24193791.443    13905413.000 7  10828826.23445  24193790.887    24193803.3044
  22310713.304   -13606307.238 8 -10582905.95546  22310712.885    22310720.4934
  23944011.820    -4456383.368 8  -3462926.02945  23944011.696    23944020.2184
  22671990.637   -13899612.666 8 -10813162.31146  22671990.128    22671998.9264
 99  9 25 17 29  0.0000000  0  9 29 15 03 23 21 17 31 09 08
  20265083.707   -17912207.523 9 -13935134.60248  20265083.734    20265089.7484
  23239353.224   -12150552.320 8  -9446397.76045  23239352.402    23239361.4294
  22484497.770     2082002.190 8   1638632.11746  22484497.606    22484506.3654
  22798779.664     9807442.280 8   7667355.12946  22798779.204    22798787.4304
  20677175.608    -6920832.230 9  -5182111.37647  20677175.229    20677182.1204
  24214012.478    14011674.015 7  10911626.75745  24214011.898    24214024.3274
  22313993.765   -13589068.362 8 -10569473.11946  22313993.314    22314001.0184
  23952426.222    -4412165.898 8  -3428470.94145  23952426.110    23952434.6774
  22664730.120   -13937766.900 8 -10842892.84146  22664729.584    22664738.3314
 99  9 25 17 29 30.0000000  0  9 29 15 03 23 21 17 31 09 08
  20262893.614   -17923716.747 9 -13944102.84648  20262893.611    20262899.6084
  23219959.881   -12252464.819 8  -9525810.06645  23219959.087    23219968.1644
  22499087.258     2158669.905 8   1698373.08346  22499087.076    22499095.8174
  22810972.740     9871517.081 8   7717283.44746  22810972.332    22810980.5924
  20678720.045    -6912716.565 9  -5175787.51347  20678719.650    20678726.5044
  24234274.601    14118150.880 7  10994595.49645  24234274.150    24234286.4514
  22317384.566   -13571249.488 8 -10555588.34746  22317384.146    22317391.8304
  23960945.194    -4367398.507 8  -3393587.35945  23960945.092    23960953.6584
  22657566.859   -13975409.880 8 -10872224.99246  22657566.303    22657575.0394
 99  9 25 17 30  0.0000000  0  9 29 15 03 23 21 17 31 09 08
  20260796.147   -17934738.895 9 -13952691.55848  20260796.153    20260802.1504
  23200587.770   -12354265.477 8  -9605135.21945  23200587.108    23200596.1244
  22513743.276     2235687.217 8   1758386.46046  22513743.090    22513751.8284
  22823183.715     9935685.574 8   7767284.78946  22823183.319    22823191.5494
  20680310.915    -6904356.394 9  -5169273.12847  20680310.519    20680317.3944
  24254576.009    14224834.030 7  11077724.99945  24254575.387    24254587.6154
  22320885.429   -13552852.826 8 -10541253.33246  22320885.013    22320892.7014
  23969568.033    -4322085.641 8  -3358278.74345  23969567.914    23969576.5394
  22650501.287   -14012539.615 8 -10901157.21246  22650500.725    22650509.4374
 99  9 25 17 30 30.0000000  0  9 29 15 03 23 21 17 31 09 08
  20258791.019   -17945276.052 9 -13960902.35748  20258791.001    20258797.0624
  23181236.040   -12455958.962 8  -9684376.85545  23181235.375    23181244.4824
  22528463.112     2313039.814 8   1818661.10046  22528462.890    22528471.6754
  22835416.236     9999967.765 8   7817374.72446  22835415.851    22835424.1634
  20681947.230    -6895757.570 9  -5162572.78247  20681946.856    20681953.7554
  24274910.794    14331694.348 7  11160992.48545  24274910.110    24274922.7714
  22324493.655   -13533891.913 8 -10526478.65746  22324493.245    22324500.9774
  23978297.573    -4276212.320 8  -3322533.37345  23978297.350    23978306.1384
  22643535.524   -14049144.785 8 -10929680.69446  22643534.977    22643543.6384
 99  9 25 17 31  0.0000000  0  9 29 15 03 23 21 17 31 09 08
  20256878.844   -17955324.384 9 -13968732.25448  20256878.874    20256884.9324
  23161904.422   -12557546.441 8  -9763535.90145  23161903.848    23161912.9764
  22543243.717     2390711.939 8   1879184.72046  22543243.527    22543252.2954
  22847671.667    10064369.824 8   7867558.06046  22847671.226    22847679.5794
  20683629.091    -6886919.492 9  -5155686.00447  20683628.682    20683635.6104
  24295273.908    14438704.148 7  11244376.49945  24295273.422    24295286.5754
  22328207.670   -13514374.922 8 -10511270.67246  22328207.264    22328215.0244
  23987134.033    -4229776.406 8  -3286349.62545  23987133.853    23987142.8504
  22636675.154   -14085195.939 8 -10957772.47446  22636674.617    22636683.2944
 99  9 25 17 31 30.0000000  0  9 29 15 03 23 21 17 31 09 08
  20255061.222   -17964876.391 9 -13976175.40048  20255061.233    20255067.2444
  23142593.449   -12659025.191 8  -9842610.22045  23142592.996    23142602.2034
  22558086.240     2468709.351 8   1939961.81946  22558086.022    22558094.7574
  22859950.461    10128895.030 8   7917837.34546  22859950.016    22859958.4394
  20685355.751    -6877845.753 9  -5148615.59647  20685355.386    20685362.3184
  24315664.832    14545858.569 7  11327873.16845  24315664.315    24315677.8344
  22332027.806   -13494300.433 8 -10495628.27446  22332027.389    22332035.1264
  23996075.650    -4182788.450 8  -3249735.68445  23996075.452    23996084.4564
  22629921.710   -14120685.135 8 -10985426.38546  22629921.182    22629929.8814
 99  9 25 17 32  0.0000000  0  9 29 15 03 23 21 17 31 09 08
  20253336.056   -17973942.201 9 -13983239.68448  20253336.087    20253342.1324
  23123304.377   -12760389.761 8  -9921595.56845  23123303.950    23123313.1254
  22572991.153     2547034.859 8   2000994.56646  22572990.934    22572999.6994
  22872253.426    10193547.408 8   7968215.71946  22872253.018    22872261.4754
  20687127.867    -6868533.342 9  -5141359.20647  20687127.510    20687134.4514
  24336084.582    14653162.698 7  11411486.51445  24336083.939    24336097.3784
  22335954.953   -13473663.332 8 -10479547.48346  22335954.540    22335962.3294
  24005120.258    -4135258.955 8  -3212699.74945  24005120.102    24005129.0344
  22623273.775   -14155620.025 8 -11012648.37346  22623273.284    22623281.9424
 99  9 25 17 32 30.0000000  0  9 29 15 03 23 21 17 31 09 08
  20251703.470   -17982521.680 9 -13989925.01648  20251703.497    20251709.4944
  23104039.317   -12861628.797 8 -10000483.08945  23104038.887    23104047.9004
  22587959.954     2625696.205 8   2062289.00846  22587959.760    22587968.5234
  22884575.639    10258300.664 8   8018672.71846  22884575.208    22884583.7744
  20688945.383    -6858982.568 9  -5133917.07747  20688944.991    20688951.9484
  24356533.321    14760620.515 7  11495219.61345  24356532.902    24356546.0794
  22339991.067   -13452453.581 8 -10463020.46346  22339990.666    22339998.4874
  24014266.193    -4087197.453 8  -3175249.26345  24014265.980    24014274.8494
  22616730.404   -14190005.792 8 -11039442.48146  22616729.874    22616738.5974
 99  9 25 17 33  0.0000000  0  9 29 15 03 23 21 17 31 09 08
  20250162.168   -17990621.005 9 -13996236.19348  20250162.195    20250168.2754
  23084798.356   -12962740.521 8 -10079271.40145  23084797.977    23084807.0144
  22602992.220     2704691.138 8   2123843.39146  22602992.014    22603000.8384
  22896912.754    10323132.384 8   8069190.84446  22896912.317    22896920.8834
  20690808.646    -6849190.959 9  -5126287.28947  20690808.291    20690815.2574
  24377014.151    14868245.478 7  11579082.96545  24377013.634    24377026.5994
  22344138.226   -13430660.424 8 -10446038.84846  22344137.795    22344145.6394
  24023508.478    -4038628.771 8  -3137403.58345  24023508.282    24023517.2454
  22610288.082   -14223860.119 8 -11065822.48746  22610287.604    22610296.3574
 99  9 25 17 33 30.0000000  0  9 29 15 03 23 21 17 31 09 08
  20248714.148   -17998230.517 9 -14002165.69648  20248714.217    20248720.2924
  23065582.593   -13063720.254 8 -10157956.85745  23065582.120    23065591.2614
  22618088.474     2784021.879 8   2185659.43946  22618088.283    22618097.1794
  22909266.428    10388051.125 8   8119776.76746  22909266.005    22909274.6064
  20692717.469    -6839159.943 9  -5118470.95447  20692717.120    20692724.1304
  24397529.038    14976051.658 7  11663087.54445  24397528.562    24397541.5914
  22348396.589   -13408282.575 8 -10428601.61446  22348396.187    22348404.0914
  24032844.560    -3989567.326 8  -3099173.92245  24032844.288    24032853.3774
  22603942.337   -14257207.519 8 -11091807.48746  22603941.857    22603950.5774
 99  9 25 17 34  0.0000000  0  9 29 15 03 23 21 17 31 09 08
  20247361.070   -18005341.201 9 -14007706.49548  20247361.124    20247367.1484
  23046393.637   -13164559.826 8 -10236533.08145  23046393.013    23046402.1064
  22633247.820     2863684.324 8   2247733.95946  22633247.648    22633256.5564
  22921638.619    10453067.092 8   8170438.45646  22921638.210    22921646.8504
  20694672.721    -6828885.078 9  -5110464.60347  20694672.366    20694679.4214
  24418077.086    15084030.962 7  11747227.00445  24418076.677    24418089.3864
  22352764.400   -13385329.655 8 -10410716.27346  22352764.013    22352771.9804
  24042274.072    -3940015.090 8  -3060561.82245  24042273.781    24042282.9124
  22597694.993   -14290037.254 8 -11117389.12246  22597694.552    22597703.2904
 99  9 25 17 34 30.0000000  0  9 29 15 03 23 21 17 31 09 08
  20246103.886   -18011947.639 9 -14012854.37848  20246103.954    20246109.9924
  23027233.369   -13265247.558 8 -10314990.99545  23027232.749    23027241.8884
  22648471.568     2943685.215 8   2310072.22046  22648471.400    22648480.2914
  22934031.294    10518190.576 8   8221183.92346  22934030.901    22934039.5174
  20696676.895    -6818353.229 9  -5102258.00747  20696676.539    20696683.5884
  24438656.729    15192177.632 7  11831496.93845  24438656.370    24438669.2674
  22357239.609   -13361812.391 8 -10392391.19246  22357239.225    22357247.2344
  24051797.689    -3889968.374 8  -3021564.42245  24051797.467    24051806.5964
  22591549.553   -14322331.660 8 -11142553.60446  22591549.106    22591557.8654
 99  9 25 17 35  0.0000000  0  9 29 15 03 23 21 17 31 09 08
  20244942.836   -18018049.288 9 -14017608.92048  20244942.878    20244948.9114
  23008102.056   -13365782.954 8 -10393330.21845  23008101.403    23008110.5414
  22663757.529     3024012.970 8   2372665.15746  22663757.287    22663766.2844
  22946448.707    10583443.845 8   8272030.51646  22946448.284    22946456.8964
  20698730.472    -6807561.889 9  -5093849.20447  20698730.107    20698737.1304
  24459265.146    15300474.555 7  11915883.88245  24459264.634    24459277.7544
  22361821.456   -13337735.034 8 -10373629.66546  22361821.013    22361829.0414
  24061417.612    -3839415.515 8  -2982172.61845  24061417.298    24061426.6104
  22585508.410   -14354078.383 8 -11167291.33646  22585507.958    22585516.6804
 99  9 25 17 35 30.0000000  0  9 29 15 03 23 21 17 31 09 08
  20243878.035   -18023644.837 9 -14021969.09648  20243878.085    20243884.1394
  22989000.265   -13466162.961 8 -10471548.34145  22988999.677    22989008.8484
  22679105.739     3104667.660 8   2435512.86746  22679105.492    22679114.4774
  22958890.243    10648823.812 8   8322975.83046  22958889.791    22958898.3604
  20700832.217    -6796517.623 9  -5085243.31347  20700831.822    20700838.8314
  24479901.225    15408916.613 7  12000383.98445  24479900.647    24479913.7194
  22366507.603   -13313109.250 8 -10354440.80046  22366507.179    22366515.1804
  24071136.138    -3788344.073 8  -2942376.73745  24071135.860    24071145.2664
  22579577.084   -14385247.689 8 -11191579.14146  22579576.644    22579585.3674
 99  9 25 17 36  0.0000000  0  8 29 15 03 23 21 31 09 08
  20242908.573   -18028739.791 9 -14025939.20348  20242908.606    20242914.6214
  22969928.598   -13566384.765 8 -10549643.21645  22969928.060    22969937.2114
  22694514.271     3185639.751 8   2498607.89846  22694514.014    22694523.0054
  22971353.259    10714316.590 8   8374009.03746  22971352.783    22971361.3704
  20702981.608    -6785222.735 9  -5076442.13347  20702981.224    20702988.2334
  22371299.246   -13287929.318 8 -10334820.13446  22371298.852    22371306.8554
  24080958.871    -3736725.845 8  -2902154.78045  24080958.549    24080967.9624
  22573759.724   -14415818.286 8 -11215400.41346  22573759.292    22573767.9604
 99  9 25 17 36 30.0000000  0  8 29 15 03 23 21 31 09 08
  20242033.046   -18033340.718 9 -14029524.34948  20242033.062    20242039.1054
  22950885.281   -13666457.673 8 -10627622.06045  22950884.833    22950893.8444
  22709977.656     3266900.084 8   2561927.52446  22709977.440    22709986.4024
  22983835.539    10779910.912 8   8425121.37546  22983835.062    22983843.6744
  20705174.037    -6773701.335 9  -5067464.45047  20705173.647    20705180.7034
  22376197.229   -13262190.401 8 -10314763.90146  22376196.811    22376204.7974
  24090886.590    -3684556.028 7  -2861503.03945  24090886.236    24090895.5904
  22568055.602   -14445793.921 8 -11238758.05946  22568055.170    22568063.7934
 99  9 25 17 37  0.0000000  0  8 29 15 03 23 21 31 09 08
  20241251.540   -18037447.655 9 -14032724.57848  20241251.583    20241257.5824
  22931866.389   -13766403.043 8 -10705501.53245  22931865.780    22931874.8234
  22725490.729     3348421.320 8   2625450.46146  22725490.451    22725499.4744
  22996332.816    10845584.376 8   8476295.36446  22996332.360    22996341.0304
  20707404.108    -6761982.206 9  -5058332.69447  20707403.753    20707410.8174
  22381198.902   -13235906.924 8 -10294283.32346  22381198.438    22381206.4014
  24100914.847    -3631857.396 7  -2820439.22045  24100914.704    24100923.9444
  22562460.815   -14475195.049 8 -11261668.05546  22562460.364    22562468.9744
 99  9 25 17 37 30.0000000  0  8 29 15 03 23 21 31 09 08
  20240564.920   -18041055.961 9 -14035536.25948  20240564.929    20240570.9524
  22912873.737   -13866209.500 8 -10783272.75545  22912873.198    22912882.1964
  22741055.352     3430213.631 8   2689184.62446  22741055.115    22741064.2004
  23008845.508    10911338.480 8   8527532.21446  23008845.008    23008853.7674
  20709673.997    -6750054.366 9  -5049038.30247  20709673.631    20709680.6624
  22386303.011   -13209084.953 8 -10273383.15546  22386302.545    22386310.4634
  24111044.751    -3578624.573 7  -2778959.15745  24111044.522    24111053.8784
  22556976.279   -14504016.294 8 -11284126.18146  22556975.870    22556984.4924
 99  9 25 17 38  0.0000000  0  8 29 15 03 23 21 31 09 08
  20239974.548   -18044158.472 9 -14037953.81248  20239974.597    20239980.6044
  22893909.117   -13965868.881 8 -10860929.37045  22893908.717    22893917.6484
  22756671.760     3512277.773 8   2753130.60546  22756671.494    22756680.6774
  23021374.964    10977180.688 8   8578837.69546  23021374.474    23021383.2544
  20711983.903    -6737916.166 9  -5039579.99247  20711983.522    20711990.5214
  22391511.919   -13181712.220 8 -10252053.81846  22391511.459    22391519.3564
  24121276.396    -3524856.629 7  -2737062.08445  24121276.128    24121285.5674
  22551599.406   -14532272.226 8 -11306143.80346  22551598.933    22551607.5164
 99  9 25 17 38 30.0000000  0  8 29 15 03 23 21 31 09 08
  20239481.279   -18046750.806 9 -14039973.82448  20239481.289    20239487.2824
  22874973.961   -14065373.703 8 -10938465.54545  22874973.466    22874982.4844
  22772344.366     3594637.292 8   2817306.75246  22772344.134    22772353.3014
  23033921.256    11043111.336 8   8630212.12046  23033920.759    23033929.5024
  20714336.522    -6725553.280 9  -5029946.60347  20714336.153    20714343.1074
  22396825.202   -13153791.006 8 -10230297.10146  22396824.750    22396832.6414
  24131606.464    -3470571.527 7  -2694762.05445  24131606.267    24131615.7624
  22546328.596   -14559970.528 8 -11327726.91246  22546328.122    22546336.7324
 99  9 25 17 39  0.0000000  0  8 29 15 03 23 21 31 09 08
  20239083.314   -18048841.955 9 -14041603.30848  20239083.334    20239089.3884
  22856069.934   -14164714.614 8 -11015874.00245  22856069.532    22856078.5544
  22788077.227     3677313.555 8   2881729.70446  22788076.982    22788086.2034
  23046484.602    11109131.587 8   8681656.35146  23046484.101    23046492.9254
  20716736.491    -6712941.506 9  -5020119.27847  20716736.122    20716743.0914
  22402243.830   -13125316.263 8 -10208109.06646  22402243.389    22402251.2964
  24142034.872    -3415770.240 7  -2652059.78845  24142034.667    24142044.1594
  22541163.458   -14587113.660 8 -11348877.40646  22541163.017    22541171.6084
 99  9 25 17 39 30.0000000  0  8 29 15 03 23 21 31 09 08
  20238776.950   -18050452.078 9 -14042857.97248  20238776.956    20238782.9794
  22837197.352   -14263890.060 8 -11093153.51245  22837197.068    22837206.0624
  22803869.694     3760303.172 8   2946396.84746  22803869.469    22803878.6774
  23059064.146    11175237.197 8   8733167.09746  23059063.692    23059072.4954
  20719183.191    -6700084.081 9  -5010100.53547  20719182.828    20719189.8124
  22407769.306   -13096279.941 8 -10185483.43446  22407768.854    22407776.7564
  24152564.253    -3360438.570 7  -2608944.23445  24152563.958    24152573.3274
  22536104.383   -14613699.707 8 -11369593.80446  22536103.890    22536112.4604
 99  9 25 17 40  0.0000000  0  8 29 15 03 23 21 31 09 08
  20238560.916   -18051587.464 9 -14043742.70148  20238560.916    20238566.9634
  22818355.106   -14362907.344 8 -11170309.79545  22818354.672    22818363.5874
  22819719.374     3843593.615 8   3011298.38746  22819719.187    22819728.4164
  23071658.374    11241419.844 8   8784737.87146  23071657.874    23071666.7214
  20721675.575    -6686986.770 9  -4999894.87247  20721675.193    20721682.1694
  22413403.886   -13066670.207 8 -10162410.99146  22413403.463    22413411.3904
  24163189.662    -3304602.333 7  -2565435.48245  24163189.342    24163198.7544
  22531150.767   -14639731.009 8 -11389877.93346  22531150.289    22531158.8694
 99  9 25 17 40 30.0000000  0  8 29 15 03 23 21 31 09 08
  20238432.259   -18052263.433 9 -14044269.44448  20238432.255    20238438.3174
  22799541.975   -14461770.948 8 -11247346.32845  22799541.566    22799550.3934
  22835623.805     3927171.564 8   3076423.96846  22835623.557    22835632.8174
  23084269.440    11307691.035 8   8836377.63946  23084268.963    23084277.8404
  20724214.130    -6673646.798 9  -4989500.12047  20724213.745    20724220.7254
  22419145.951   -13036495.761 8 -10138898.50746  22419145.549    22419153.5404
  24173908.863    -3248272.848 7  -2521542.40145  24173908.541    24173917.9024
  22526305.325   -14665193.874 8 -11409719.12246  22526304.844    22526313.4654
 99  9 25 17 41  0.0000000  0  8 29 15 03 23 21 31 09 08
  20238388.846   -18052491.534 9 -14044447.20548  20238388.885    20238394.9384
  22780757.570   -14560483.132 8 -11324264.87345  22780757.230    22780765.9984
  22851577.846     4011010.478 8   3141752.87146  22851577.572    22851586.9664
  23096899.362    11374061.128 8   8888094.48646  23096898.899    23096907.7504
  20726795.585    -6660081.525 9  -4978929.81547  20726795.188    20726802.1724
  22424993.246   -13005768.260 8 -10114955.07446  22424992.840    22425000.8254
  24184721.559    -3191451.161 7  -2477265.78845  24184721.306    24184730.6904
  22521571.204   -14690072.072 8 -11429104.74946  22521570.691    22521579.3024
 99  9 25 17 41 30.0000000  0  8 29 15 03 23 21 31 09 08
  20238431.939   -18052265.238 9 -14044270.88648  20238431.945    20238438.0424
  22762001.595   -14659046.961 8 -11401067.79945  22762001.055    22762009.8314
  22867578.527     4095094.091 8   3207272.47346  22867578.235    22867587.6864
  23109546.439    11440521.521 8   8939881.68946  23109545.964    23109554.8714
  20729417.596    -6646302.886 9  -4968193.24847  20729417.193    20729424.1604
  22430940.884   -12974513.384 8 -10090600.69346  22430940.503    22430948.5144
  24195625.310    -3134151.564 7  -2432616.79745  24195625.027    24195634.5814
  22516948.488   -14714364.518 8 -11448033.94346  22516948.011    22516956.5994
 99  9 25 17 42  0.0000000  0  8 29 15 03 23 21 31 09 08
  20238563.606   -18051573.444 9 -14043731.84148  20238563.634    20238569.7464
  22743275.466   -14757453.020 8 -11477747.78845  22743274.869    22743283.6734
  22883624.946     4179418.092 8   3272979.38846  22883624.716    22883634.1634
  23122213.173    11507085.271 8   8991749.42846  23122212.725    23122221.6374
  20732083.506    -6632293.390 9  -4957276.79147  20732083.108    20732090.1164
  22436986.751   -12942742.035 8 -10065843.85946  22436986.378    22436994.5124
  24206616.232    -3076393.999 7  -2387610.96745  24206615.969    24206625.4674
  22512437.233   -14738071.610 8 -11466507.02946  22512436.744    22512445.3664
 99  9 25 17 42 30.0000000  0  8 29 15 03 23 21 31 09 08
  20238786.376   -18050402.813 9 -14042819.67748  20238786.410    20238792.5094
  22724582.043   -14855686.517 8 -11554293.32545  22724581.550    22724590.4354
  22899718.260     4263988.379 8   3338878.20146  22899717.985    22899727.5234
  23134901.711    11573763.523 8   9043706.39146  23134901.271    23134910.2024
  20734796.306    -6618037.708 9  -4946168.51047  20734795.900    20734802.9794
  22443128.071   -12910469.426 8 -10040696.44346  22443127.696    22443135.8724
  24217700.005    -3018148.003 7  -2342224.52645  24217699.745    24217709.3924
  22508037.589   -14761192.011 8 -11484522.95646  22508037.070    22508045.6874
 99  9 25 17 43  0.0000000  0  8 29 15 03 23 21 31 09 08
  20239103.568   -18048736.047 9 -14041520.91248  20239103.580    20239109.7194
  22705924.172   -14953734.862 8 -11630694.56745  22705923.487    22705932.4214
  22915862.148     4348824.883 8   3404984.45646  22915861.889    22915871.3904
  23147610.461    11640547.779 8   9095745.97146  23147609.993    23147618.9494
  20737558.605    -6603521.692 9  -4934857.36447  20737558.187    20737565.2844
  22449365.137   -12877694.034 8 -10015157.23946  22449364.718    22449372.8844
  24228879.372    -2959401.046 7  -2296447.70645  24228879.126    24228888.7224
  22503747.988   -14783734.126 8 -11502088.27346  22503747.490    22503756.0944
 99  9 25 17 43 30.0000000  0  8 29 15 03 23 21 31 09 08
  20239516.032   -18046568.514 9 -14039831.93648  20239516.065    20239522.2144
  22687303.154   -15051588.870 8 -11706944.39845  22687302.427    22687311.3404
  22932060.285     4433945.845 8   3471312.37146  22932060.025    22932069.5114
  23160340.096    11707442.308 8   9147871.46646  23160339.601    23160348.6214
  20740375.027    -6588721.449 9  -4923324.74647  20740374.637    20740381.7474
  22455701.462   -12844396.996 8  -9989211.56846  22455701.041    22455709.2424
  24240155.821    -2900143.559 7  -2250273.06145  24240155.479    24240164.9834
  22499566.548   -14805708.036 8 -11519210.82046  22499566.015    22499574.6514
 99  9 25 17 44  0.0000000  0  8 29 15 03 23 21 31 09 08
  20240021.667   -18043911.588 9 -14037761.61448  20240021.675    20240027.8174
  22668718.905   -15149249.252 8 -11783043.34545  22668718.273    22668727.0654
  22948313.046     4519354.235 8   3537864.25346  22948312.773    22948322.3054
  23173091.289    11774449.793 8   9200084.96046  23173090.803    23173099.8514
  20743246.242    -6573633.387 9  -4911567.85347  20743245.830    20743252.9384
  22462141.245   -12810556.102 8  -9962842.10346  22462140.823    22462148.9864
  24251533.541    -2840353.490 7  -2203683.41045  24251533.352    24251542.7134
  22495493.631   -14827111.157 8 -11535888.59146  22495493.115    22495501.8334
 99  9 25 17 44 30.0000000  0  8 29 15 03 23 21 31 09 08
  20240618.077   -18040777.414 9 -14035319.41148  20240618.102    20240624.2494
  22650170.037   -15246724.570 8 -11858998.08546  22650169.325    22650178.1384
  22964619.800     4605046.228 8   3604637.12446  22964619.524    22964629.0204
  23185861.498    11841557.316 8   9252376.42446  23185860.982    23185870.1554
  20746169.085    -6558273.901 9  -4899599.45747  20746168.696    20746175.7534
  22468684.926   -12776169.305 8  -9936047.24646  22468684.493    22468692.6934
  24263015.273    -2780016.945 7  -2156667.93845  24263015.015    24263024.4034
  22491530.183   -14847939.469 8 -11552118.48346  22491529.658    22491538.3744
 99  9 25 17 45  0.0000000  0  8 29 15 03 23 21 31 09 08
  20241302.046   -18037183.508 9 -14032518.97748  20241302.038    20241308.2124
  22631654.592   -15344023.621 8 -11934815.46346  22631653.862    22631662.7254
  22980978.301     4691010.297 8   3671622.00146  22980978.010    22980987.5094
  23198648.499    11908752.917 8   9304736.49646  23198647.940    23198657.1834
  20749138.091    -6542671.762 9  -4887441.98047  20749137.681    20749144.7944
  22475335.273   -12741221.820 8  -9908815.49646  22475334.839    22475343.0544
  24274595.754    -2719160.540 7  -2109247.40745  24274595.478    24274605.0134
  22487675.824   -14868194.303 8 -11567901.47646  22487675.266    22487684.0224
 99  9 25 17 45 30.0000000  0  8 29 15 03 23 21 31 09 08
  20242072.891   -18033132.661 9 -14029362.47948  20242072.895    20242079.0674
  22613170.804   -15441156.141 8 -12010503.09846  22613170.208    22613178.9524
  22997381.999     4777211.861 8   3738791.93046  22997381.704    22997391.3074
  23211451.808    11976034.506 8   9357163.58546  23211451.286    23211460.5584
  20752147.824    -6526855.482 9  -4875117.63947  20752147.447    20752154.5614
  22482090.208   -12705724.470 8  -9881155.26546  22482089.763    22482098.0174
  24286272.489    -2657798.283 7  -2061432.70145  24286272.174    24286281.8404
  22483931.152   -14887872.956 8 -11583235.51246  22483930.639    22483939.3784
 99  9 25 17 46  0.0000000  0  8 29 15 03 23 21 31 09 08
  20242934.753   -18028603.714 9 -14025833.44248  20242934.758    20242940.8894
  22594719.091   -15538121.013 8 -12086060.08346  22594718.412    22594727.2104
  23013827.374     4863632.680 8   3806132.71746  23013827.089    23013836.7434
  23224270.744    12043398.079 8   9409654.53946  23224270.262    23224279.5554
  20755195.259    -6510841.277 9  -4862639.07447  20755194.838    20755202.0084
  22488946.095   -12669696.444 8  -9853081.52746  22488945.677    22488953.9874
  24298041.841    -2595949.475 7  -2013238.84745  24298041.576    24298051.3464
  22480297.254   -14906969.545 8 -11598115.98846  22480296.704    22480305.4244
 99  9 25 17 46 30.0000000  0  8 29 15 03 23 21 31 09 08
  20243891.310   -18023577.012 9 -14021916.53748  20243891.316    20243897.4964
  22576302.669   -15634899.954 8 -12161472.19346  22576301.922    22576310.7944
  23030315.498     4950277.569 8   3873648.10146  23030315.224    23030324.8624
  23237109.075    12110863.537 8   9462224.89046  23237108.594    23237117.9004
  20758280.530    -6494628.200 9  -4850005.54647  20758280.141    20758287.3194
  22495899.339   -12633157.082 8  -9824609.34046  22495898.893    22495907.2464
  24309899.971    -2533635.066 7  -1964682.18545  24309899.737    24309909.3544
  22476776.091   -14925473.432 8 -11612534.59846  22476775.532    22476784.2944
 99  9 25 17 47  0.0000000  0  8 29 15 03 23 21 31 09 08
  20244945.230   -18018038.696 9 -14017600.97248  20244945.236    20244951.4034
  22557923.550   -15731482.045 8 -12236730.91546  22557922.935    22557931.7904
  23046847.267     5037152.268 8   3941342.55546  23046847.040    23046856.6904
  23249968.084    12178437.577 8   9514879.84046  23249967.632    23249976.9534
  20761405.189    -6478208.349 9  -4837210.89047  20761404.769    20761411.9094
  22502950.098   -12596105.299 8  -9795737.87746  22502949.682    22502957.9884
  24321844.829    -2470864.480 7  -1915770.03545  24321844.617    24321854.1634
  22473368.371   -14943381.038 8 -11626488.58646  22473367.841    22473376.5594
 99  9 25 17 47 30.0000000  0  8 29 15 03 23 21 31 09 08
  20246099.286   -18011974.344 9 -14012875.51148  20246099.267    20246105.4074
  22539583.982   -15827857.052 8 -12311828.27746  22539583.301    22539592.1604
  23063423.770     5124261.736 8   4009219.94546  23063423.544    23063433.2074
  23262850.445    12246134.173 8   9567630.28946  23262850.043    23262859.2654
  20764574.611    -6461553.053 9  -4824232.76947  20764574.214    20764581.3404
  22510095.919   -12558554.384 8  -9766477.46846  22510095.455    22510103.7424
  24333879.560    -2407621.542 7  -1866489.83045  24333879.366    24333888.9914
  22470074.449   -14960690.694 8 -11639976.62246  22470073.931    22470082.6794
 99  9 25 17 48  0.0000000  0  8 29 15 03 23 21 31 09 08
  20247351.311   -18005394.796 9 -14007748.59648  20247351.300    20247357.4514
  22521286.749   -15924009.614 8 -12386752.30746  22521286.038    22521294.8824
  23080049.417     5211629.554 8   4077298.64146  23080049.224    23080058.8284
  23275757.244    12313959.037 8   9620480.67846  23275756.879    23275766.0384
  20767794.401    -6444633.299 9  -4811048.57547  20767793.965    20767801.0904
  22517339.253   -12520490.612 8  -9736817.43046  22517338.821    22517347.0464
  24346006.024    -2343897.365 7  -1816834.62845  24346005.751    24346015.3274
  22466894.435   -14977402.162 8 -11652998.53946  22466893.873    22466902.6114
 99  9 25 17 48 30.0000000  0  9 29 15 03 23 21 25 31 09 08
  20248697.292   -17998321.823 9 -14002237.20448  20248697.279    20248703.4114
  22503031.865   -16019938.649 8 -12461502.17246  22503031.316    22503040.1154
  23096725.414     5299262.450 8   4145583.89746  23096725.220    23096734.9324
  23288687.587    12381907.810 8   9673427.63646  23288687.168    23288696.3944
  20771066.971    -6427435.964 9  -4797648.08747  20771066.560    20771073.6534
  24719004.526    -6380646.639 7  -4953382.80545  24719004.210    24719017.0724
  22524683.397   -12481897.317 8  -9706744.77346  22524682.956    22524691.1534
  24358225.242    -2279684.257 7  -1766798.44345  24358225.112    24358234.5824
  22463826.915   -14993521.945 8 -11665559.41846  22463826.367    22463835.0514
 99  9 25 17 49  0.0000000  0  9 29 15 03 23 21 25 31 09 08
  20250134.120   -17990771.107 9 -13996353.53948  20250134.114    20250140.2474
  22484818.010   -16115653.143 8 -12536084.85046  22484817.415    22484826.2474
  23113449.842     5387149.849 8   4214067.46746  23113449.652    23113459.4464
  23301637.754    12449960.829 8   9726455.80046  23301637.292    23301646.6424
  20774393.842    -6409953.362 9  -4784025.30747  20774393.407    20774400.5444
  24699745.450    -6481852.986 7  -5032244.87845  24699745.142    24699758.2034
  22532129.211   -12442769.319 8  -9676255.44846  22532128.782    22532137.0244
  24370537.798    -2214980.692 7  -1716380.09445  24370537.708    24370547.2994
  22460867.756   -15009072.225 8 -11677676.51346  22460867.255    22460875.9374
 99  9 25 17 49 30.0000000  0  9 29 15 03 23 21 25 31 09 08
  20251658.646   -17982759.850 9 -13990111.01548  20251658.648    20251664.7504
  22466646.197   -16211146.558 8 -12610495.25946  22466645.555    22466654.4614
  23130221.886     5475287.191 8   4282745.80846  23130221.701    23130231.4874
  23314607.707    12518117.462 8   9779564.71646  23314607.213    23314616.6274
  20777775.100    -6392184.712 9  -4770179.63347  20777774.716    20777781.8404
  24680482.075    -6583081.988 7  -5111124.58845  24680481.898    24680494.8944
  22539675.036   -12403115.636 8  -9645356.51546  22539674.618    22539682.8544
  24382944.214    -2149784.945 7  -1665578.22245  24382943.949    24382953.5894
  22458017.593   -15024050.094 8 -11689347.57846  22458017.058    22458025.7664
 99  9 25 17 50  0.0000000  0  9 29 15 03 23 21 25 31 09 08
  20253267.721   -17974304.313 9 -13983522.30048  20253267.714    20253273.8144
  22448515.627   -16306422.640 8 -12684736.32246  22448515.076    22448524.0454
  23147040.502     5563669.150 8   4351614.73646  23147040.298    23147050.1894
  23327594.097    12586361.039 8   9832741.37946  23327593.663    23327603.1294
  20781206.533    -6374152.697 9  -4756128.74047  20781206.110    20781213.2354
  24661212.252    -6684345.637 7  -5190031.29845  24661212.088    24661225.0674
  22547321.475   -12362933.682 8  -9614045.94046  22547321.074    22547329.3724
  24395440.172    -2084117.261 7  -1614408.61245  24395440.018    24395449.9284
  22455278.874   -15038442.004 8 -11700562.06146  22455278.344    22455287.0704
 99  9 25 17 50 30.0000000  0  9 29 15 03 23 21 25 31 09 08
  20254959.836   -17965412.329 9 -13976593.49548  20254959.823    20254965.9244
  22430425.019   -16401490.046 8 -12758814.77446  22430424.390    22430433.2904
  23163903.741     5652285.185 8   4420666.07746  23163903.493    23163913.3624
  23340596.605    12654689.013 8   9885983.81745  23340596.142    23340605.5914
  20784685.438    -6355870.770 9  -4741883.10547  20784685.042    20784692.1854
  24641933.604    -6785655.536 7  -5268974.05545  24641933.425    24641946.2274
  22555064.876   -12322242.101 8  -9582338.24846  22555064.434    22555072.7434
  24408024.516    -2017986.762 7  -1562878.39345  24408024.246    24408034.0424
  22452653.855   -15052236.628 8 -11711311.09946  22452653.322    22452662.0634
 99  9 25 17 51  0.0000000  0  9 29 15 03 23 21 25 31 09 08
  20256733.311   -17956092.796 9 -13969331.54448  20256733.305    20256739.3834
  22412373.666   -16496350.432 8 -12832731.92546  22412373.047    22412381.8984
  23180808.719     5741120.603 8   4489888.36146  23180808.440    23180818.2474
  23353614.807    12723099.519 8   9939290.56445  23353614.339    23353623.8064
  20788207.955    -6337360.055 9  -4727459.19247  20788207.513    20788214.6684
  24622645.441    -6887014.558 7  -5347955.01545  24622645.178    24622657.9874
  22562902.324   -12281056.443 8  -9550245.56846  22562901.888    22562910.1444
  24420696.516    -1951395.914 7  -1510989.47845  24420696.244    24420705.8614
  22450144.792   -15065421.466 8 -11721584.97846  22450144.309    22450153.0604
 99  9 25 17 51 30.0000000  0  9 29 15 03 23 21 25 31 09 08
  20258587.487   -17946349.089 9 -13961739.06248  20258587.472    20258593.5564
  22394360.479   -16591010.306 8 -12906492.82046  22394359.867    22394368.6694
  23197752.696     5830161.550 8   4559270.80846  23197752.460    23197762.3054
  23366648.933    12791593.705 8   9992662.52245  23366648.466    23366657.8904
  20791768.093    -6318651.378 9  -4712881.03047  20791767.679    20791774.8754
  24603346.629    -6988429.874 7  -5426979.81045  24603346.378    24603359.1724
  22570832.137   -12239385.322 8  -9517774.60446  22570831.688    22570839.9334
  24433453.044    -1884359.969 7  -1458753.73045  24433452.832    24433462.5394
  22447754.959   -15077980.254 8 -11731371.01346  22447754.453    22447763.1964
 99  9 25 17 52  0.0000000  0  9 29 15 03 23 21 25 31 09 08
  20260522.744   -17936179.369 9 -13953814.61848  20260522.742    20260528.8054
  22376383.003   -16685482.580 8 -12980107.53246  22376382.353    22376391.2144
  23214733.035     5919393.268 8   4628801.90046  23214732.805    23214742.6934
  23379697.973    12860166.590 8  10046095.79345  23379697.542    23379706.9664
  20795364.572    -6299752.103 9  -4698154.34647  20795364.129    20795371.3474
  24584038.094    -7089896.439 7  -5506044.50945  24584037.905    24584050.5994
  22578853.228   -12197234.172 8  -9484929.58946  22578852.746    22578861.0604
  24446290.887    -1816897.394 7  -1406185.57245  24446290.675    24446300.2434
  22445482.269   -15089923.318 8 -11740677.25646  22445481.717    22445490.5004
 99  9 25 17 52 30.0000000  0  9 29 15 03 23 21 25 31 09 08
  20262541.510   -17925570.865 9 -13945548.26548  20262541.475    20262547.5194
  22358442.624   -16779759.703 8 -13053570.17946  22358442.003    22358450.8344
  23231748.066     6008807.508 8   4698475.21646  23231747.845    23231757.7564
  23392762.980    12928823.013 8  10099594.15245  23392762.498    23392772.0084
  20798998.966    -6280653.298 9  -4683272.18947  20798998.543    20799005.7514
  24564722.487    -7191399.601 7  -5585137.69245  24564722.307    24564735.1424
  22586964.239   -12154610.454 8  -9451716.35246  22586963.760    22586972.0924
  24459211.516    -1749000.001 7  -1353278.59745  24459211.201    24459220.9164
  22443324.638   -15101261.543 8 -11749512.19846  22443324.140    22443332.8504
 99  9 25 17 53  0.0000000  0  9 29 15 03 23 21 25 31 09 08
  20264647.654   -17914502.966 9 -13936923.94248  20264647.626    20264653.6804
  22340541.432   -16873830.909 8 -13126872.37146  22340540.766    22340549.6974
  23248796.595     6098397.769 8   4768285.68946  23248796.433    23248806.3394
  23405843.687    12997562.079 8  10153156.92946  23405843.242    23405852.8094
  20802671.114    -6261356.180 9  -4668235.50847  20802670.691    20802677.9474
  24545401.171    -7292932.922 7  -5664254.34845  24545400.964    24545413.7684
  22595167.418   -12111502.228 8  -9418125.57746  22595166.992    22595175.3194
  24472213.977    -1680671.242 7  -1300035.48545  24472213.849    24472223.5214
  22441280.624   -15112002.889 8 -11757882.04246  22441280.125    22441288.7834
 99  9 25 17 53 30.0000000  0  9 29 15 03 23 21 25 31 09 08
  20266843.316   -17902964.755 9 -13927933.14348  20266843.306    20266849.3324
  22322681.564   -16967684.533 8 -13200005.01346  22322680.960    22322689.8754
  23265880.034     6188170.998 8   4838238.73046  23265879.856    23265889.7784
  23418940.042    13066383.589 8  10206783.93246  23418939.625    23418949.2974
  20806387.131    -6241828.579 9  -4653019.23247  20806386.708    20806393.9484
  24526075.906    -7394486.763 7  -5743386.96545  24526075.741    24526088.5994
  22603464.582   -12067901.287 8  -9384150.87146  22603464.097    22603472.4794
  24485299.196    -1611908.181 7  -1246453.95045  24485298.960    24485308.6984
  22439350.656   -15122145.021 8 -11765784.95646  22439350.111    22439358.8274
 99  9 25 17 54  0.0000000  0  9 29 15 03 23 21 25 31 09 08
  20269129.687   -17890949.982 9 -13918570.98948  20269129.673    20269135.7064
  22304866.004   -17061306.795 8 -13272957.37346  22304865.223    22304874.1284
  23282998.433     6278128.850 8   4908335.65246  23282998.266    23283008.2814
  23432051.292    13135282.535 8  10260471.28646  23432050.739    23432060.4504
  20810154.855    -6222029.357 9  -4637591.30847  20810154.410    20810161.6544
  24506747.955    -7496055.253 7  -5822530.98745  24506747.911    24506760.4664
  22611857.386   -12023797.150 8  -9349784.06746  22611856.907    22611865.2864
  24498468.241    -1542704.187 7  -1192528.85145  24498467.963    24498477.9124
  22437534.306   -15131690.052 8 -11773222.59046  22437533.739    22437542.4414
 99  9 25 17 54 30.0000000  0  9 29 15 03 23 21 25 31 09 08
  20271508.373   -17878449.922 9 -13908830.69448  20271508.367    20271514.4024
  22287097.435   -17154680.694 8 -13345716.21646  22287096.744    22287105.6304
  23300154.074     6368281.769 8   4978584.57646  23300153.869    23300163.9194
  23445179.583    13204271.113 8  10314228.47246  23445178.990    23445188.7094
  20813976.316    -6201947.536 9  -4621943.17947  20813975.874    20813983.1204
  24487417.108    -7597640.038 7  -5901687.71345  24487417.054    24487429.4184
  22620349.430   -11979171.370 8  -9315010.79746  22620348.958    22620357.4084
  24511724.997    -1473039.796 7  -1138245.00445  24511724.776    24511734.5374
  22435833.192   -15140629.564 8 -11780188.42246  22435832.626    22435841.2784
 99  9 25 17 55  0.0000000  0  9 29 15 03 23 21 25 31 09 08
  20273978.464   -17865469.701 9 -13898716.25248  20273978.447    20273984.4464
  22269376.623   -17247803.615 8 -13418279.46946  22269376.032    22269384.8134
  23317347.640     6458633.571 8   5048988.45746  23317347.366    23317357.4384
  23458325.847    13273354.269 8  10368059.37246  23458325.178    23458334.9194
  20817853.229    -6181574.361 9  -4606068.01847  20817852.790    20817859.9844
  24468083.010    -7699241.401 7  -5980857.36545  24468082.928    24468095.0624
  22628940.769   -11934023.684 8  -9279830.85246  22628940.330    22628948.7984
  24525070.382    -1402910.022 7  -1083598.51645  24525070.057    24525079.7574
  22434248.545   -15148956.717 8 -11786677.06746  22434247.983    22434256.6804
 99  9 25 17 55 30.0000000  0  9 29 15 03 23 21 25 31 09 08
  20276540.146   -17852008.076 9 -13888226.68548  20276540.133    20276546.1144
  22251703.517   -17340676.385 8 -13490647.82246  22251702.906    22251711.6454
  23334578.032     6549179.580 8   5119543.68146  23334577.827    23334587.8764
  23471491.184    13342538.007 8  10421968.64946  23471490.585    23471500.3204
  20821785.711    -6160909.380 9  -4589965.47947  20821785.288    20821792.4734
  24448748.224    -7800846.195 7  -6060029.68145  24448748.114    24448760.1604
  22637629.211   -11888365.993 8  -9244253.48446  22637628.706    22637637.1554
  24538505.208    -1332309.905 7  -1028585.52245  24538505.036    24538514.8134
  22432781.961   -15156663.788 8 -11792682.55246  22432781.329    22432790.0204
 99  9 25 17 56  0.0000000  0  9 29 15 03 23 21 25 31 09 08
  20279195.929   -17838051.929 9 -13877351.77748  20279195.905    20279201.9364
  22234078.430   -17433296.414 8 -13562819.22746  22234077.898    22234086.5864
  23351846.739     6639926.172 8   5190255.20146  23351846.443    23351856.4824
  23484678.891    13411839.211 8  10475969.44446  23484678.335    23484688.0414
  20825769.237    -6139976.032 9  -4573653.82547  20825768.780    20825775.9214
  24429414.446    -7902444.818 7  -6139197.21445  24429414.409    24429426.3484
  22646412.867   -11842207.952 8  -9208286.25146  22646412.355    22646420.7974
  24552030.019    -1261237.101 7   -973204.24245  24552029.724    24552039.4964
  22431432.549   -15163754.404 8 -11798207.69646  22431431.953    22431440.6264
 99  9 25 17 56 30.0000000  0  8 29 15 03 23 21 25 31 08
  20281941.089   -17823626.269 9 -13866111.01648  20281941.064    20281947.0414
  22216497.809   -17525683.703 8 -13634809.27346  22216497.099    22216505.7674
  23369151.652     6730863.700 8   5261115.49946  23369151.383    23369161.4114
  23497885.355    13481239.213 8  10530047.23446  23497884.833    23497894.6124
  20829794.294    -6118824.458 9  -4557172.12347  20829793.864    20829801.0284
  24410080.207    -8004045.451 7  -6218366.32645  24410080.054    24410092.3014
  22655284.896   -11795585.076 8  -9171956.80046  22655284.433    22655292.8454
  22430197.420   -15170244.764 8 -11803265.09846  22430196.888    22430205.5224
 99  9 25 17 57  0.0000000  0  8 29 15 03 23 21 25 31 08
  20284780.888   -17808703.097 9 -13854482.58648  20284780.839    20284786.8334
  22198966.174   -17617812.302 8 -13706597.76246  22198965.576    22198974.1344
  23386496.696     6822012.423 8   5332140.36546  23386496.385    23386506.5174
  23511114.733    13550759.598 8  10584218.82745  23511114.234    23511124.0654
  20833865.653    -6097429.385 9  -4540500.68347  20833865.195    20833872.3754
  24390753.785    -8105604.739 7  -6297503.24345  24390753.703    24390765.9584
  22664248.010   -11748483.588 8  -9135254.40846  22664247.558    22664256.0294
  22429081.595   -15176108.598 8 -11807834.31746  22429081.050    22429089.6374
 99  9 25 17 57 30.0000000  0  8 29 15 03 23 21 25 31 08
  20287714.366   -17793287.268 9 -13842470.26348  20287714.338    20287720.3634
  22181484.863   -17709677.380 8 -13778180.89046  22181484.258    22181492.7504
  23403881.082     6913368.060 8   5403326.46246  23403880.750    23403891.0034
  23524367.732    13620404.207 8  10638487.21446  23524367.219    23524377.0824
  20837983.034    -6075792.562 9  -4523640.85947  20837982.605    20837989.8084
  24371434.971    -8207125.398 7  -6376610.08645  24371434.727    24371446.8704
  22673304.312   -11700892.423 8  -9098170.45046  22673303.868    22673312.3644
  22428085.462   -15181343.670 8 -11811913.59346  22428084.860    22428093.4014
 99  9 25 17 58  0.0000000  0  8 29 15 03 23 21 25 31 08
  20290734.449   -17777417.058 9 -13830103.88948  20290734.397    20290740.3974
  22164053.446   -17801279.956 8 -13849559.48246  22164052.816    22164061.3354
  23421303.943     7004925.308 8   5474669.66445  23421303.618    23421313.8714
  23537642.319    13690162.448 8  10692844.14745  23537641.879    23537651.7634
  20842147.262    -6053909.336 9  -4506589.03947  20842146.842    20842154.1044
  24352119.673    -8308627.351 8  -6455702.37145  24352119.469    24352131.5554
  22682453.404   -11652813.919 8  -9060706.74946  22682452.935    22682461.4404
  22427208.514   -15185951.764 8 -11815504.30446  22427207.947    22427216.5974
 99  9 25 17 58 30.0000000  0  8 29 15 03 23 21 25 31 08
  20293835.226   -17761122.277 9 -13817406.67448  20293835.180    20293841.2074
  22146670.060   -17892629.995 8 -13920741.29246  22146669.529    22146677.9784
  23438758.942     7096651.048 8   5546144.17145  23438758.625    23438768.8514
  23550935.671    13760018.825 8  10747277.56245  23550935.236    23550945.1324
  20846357.376    -6031785.386 9  -4489349.62747  20846356.957    20846364.1624
  24332803.763    -8410133.095 8  -6534797.60745  24332803.601    24332815.5744
  22691693.996   -11604254.822 8  -9022868.55746  22691693.497    22691702.0024
  22426448.861   -15189943.484 8 -11818614.72546  22426448.324    22426456.9724
 99  9 25 17 59  0.0000000  0  8 29 15 03 23 21 25 31 08
  20297014.320   -17744416.045 9 -13804388.85948  20297014.289    20297020.3034
  22129333.763   -17983733.135 8 -13991730.70846  22129333.211    22129341.6084
  23456239.345     7188510.806 8   5617723.09545  23456239.033    23456249.3284
  23564247.533    13829972.054 8  10801786.42445  23564247.111    23564256.9364
  20850612.206    -6009425.996 9  -4471926.76547  20850611.792    20850619.0714
  24313482.650    -8511665.536 8  -6613913.67145  24313482.526    24313494.3914
  22701025.046   -11555220.004 8  -8984659.67346  22701024.558    22701033.0894
  22425804.269   -15193330.383 8 -11821253.86446  22425803.749    22425812.4724
 99  9 25 17 59 30.0000000  0  8 29 15 03 23 21 25 31 08
  20300268.996   -17727312.761 9 -13791061.65448  20300268.966    20300274.9944
  22112043.920   -18074591.926 8 -14062529.73246  22112043.321    22112051.7134
  23473745.544     7280505.576 8   5689407.23946  23473745.194    23473755.4634
  23577576.435    13900015.366 8  10856365.48745  23577575.993    23577585.8654
  20854910.125    -5986840.450 9  -4454327.66747  20854909.676    20854916.9434
  24294153.651    -8613239.307 8  -6693061.90945  24294153.667    24294165.4404
  22710444.818   -11505719.232 8  -8946087.71046  22710444.326    22710452.8984
  22425274.824   -15196112.988 8 -11823422.11746  22425274.276    22425283.0044
 99  9 25 18  0  0.0000000  0  8 29 15 03 23 21 25 31 08
  20303599.975   -17709808.354 9 -13777421.87848  20303599.930    20303606.0334
  22094800.239   -18165207.995 8 -14133139.62446  22094799.679    22094808.0284
  23491278.124     7372639.697 8   5761199.95246  23491277.827    23491288.1334
  23590919.720    13970134.201 8  10911003.40545  23590919.296    23590929.1344
  20859249.005    -5964039.430 9  -4436560.66947  20859248.582    20859255.8914
  24274817.996    -8714848.102 7  -6772237.45045  24274818.054    24274829.7544
  22719950.344   -11455767.636 8  -8907164.45946  22719949.876    22719958.4424
  22424857.856   -15198303.956 8 -11825129.37446  22424857.314    22424865.9364
 99  9 25 18  0 30.0000000  0  8 29 15 03 23 21 25 31 08
  20307013.425   -17691870.479 9 -13763444.34148  20307013.437    20307019.5044
  22077603.718   -18255576.592 8 -14203556.66746  22077603.054    22077611.4564
  23508837.657     7464915.345 8   5833102.93846  23508837.390    23508847.7094
  23604277.741    14040330.403 8  10965701.60745  23604277.309    23604287.1384
  20863628.521    -5941024.966 9  -4418627.35047  20863628.081    20863635.3984
  24255479.613    -8816470.246 7  -6851423.39945  24255479.622    24255491.2504
  22729542.645   -11405360.151 8  -8867885.96446  22729542.136    22729550.7124
  22424550.267   -15199920.761 8 -11826389.22346  22424549.707    22424558.2884
 99  9 25 18  1  0.0000000  0  8 29 15 03 23 21 25 31 08
  20310510.972   -17673491.023 9 -13749122.71948  20310510.966    20310516.9674
  22060456.347   -18345686.282 8 -14273771.97346  22060455.734    22060464.1024
  23526428.726     7557356.088 8   5905134.56746  23526428.422    23526438.6774
  23617651.197    14110608.106 8  11020463.31545  23617650.740    23617660.7304
  20868052.466    -5917777.217 9  -4400512.25347  20868052.028    20868059.3684
  24236144.401    -8918076.882 7  -6930597.25545  24236144.376    24236155.8494
  22739223.463   -11354487.549 8  -8828245.04446  22739222.963    22739231.5824
  22424354.529   -15200949.644 8 -11827190.95346  22424353.933    22424362.4754
 99  9 25 18  1 30.0000000  0  9 29 15 03 23 21 25 31 01 08
  20314092.737   -17654668.715 9 -13734456.01148  20314092.726    20314098.7984
  22043358.001   -18435538.732 8 -14343786.81546  22043357.342    22043365.7564
  23544054.171     7649978.056 8   5977307.41946  23544053.940    23544064.2184
  23631038.350    14180957.982 8  11075281.25945  23631037.953    23631047.9504
  20872523.470    -5894282.066 9  -4382204.37547  20872523.053    20872530.4134
  24216815.640    -9019648.828 7  -7009744.08045  24216815.599    24216826.9564
  22748991.313   -11303157.469 8  -8788247.63546  22748990.851    22748999.4224
  24663013.708    -5710130.781 7  -4431006.57045  24663013.241    24663025.3374
  22424270.360   -15201391.667 8 -11827535.39446  22424269.761    22424278.2624
 99  9 25 18  2  0.0000000  0  9 29 15 03 23 21 25 31 01 08
  20317759.749   -17635398.405 9 -13719440.20948  20317759.758    20317765.8834
  22026309.223   -18525130.264 8 -14413598.35646  22026308.594    22026316.9944
  23561709.976     7742759.103 8   6049604.22846  23561709.708    23561719.9264
  23644441.087    14251389.284 8  11130162.65945  23644440.644    23644450.7114
  20877042.355    -5870535.497 9  -4363700.58847  20877041.925    20877049.2984
  24197497.456    -9121165.141 7  -7088847.54245  24197497.620    24197508.9104
  22758846.158   -11251370.087 8  -8747893.89546  22758845.719    22758854.2904
  24643386.733    -5813270.871 7  -4511375.45745  24643386.339    24643398.3564
  22424297.988   -15201246.614 8 -11827422.36646  22424297.372    22424305.9264
 99  9 25 18  2 30.0000000  0  9 29 15 03 23 21 25 31 01 08
  20321515.541   -17615661.984 9 -13704061.20948  20321515.527    20321521.6334
  22009314.524   -18614438.069 8 -14483188.80046  22009313.809    22009322.2394
  23579397.426     7835707.333 8   6122031.29845  23579397.193    23579407.5404
  23657865.423    14321934.115 8  11185132.50845  23657864.951    23657875.2064
  20881613.188    -5846515.909 9  -4344984.05847  20881612.770    20881620.1544
  24178194.544    -9222602.136 7  -7167889.20745  24178194.674    24178205.9504
  22768789.651   -11199117.086 8  -8707177.34646  22768789.185    22768797.7884
  24623788.176    -5916262.050 7  -4591628.28745  24623787.676    24623799.7594
  22424443.577   -15200481.701 8 -11826826.35646  22424442.951    22424451.4584
 99  9 25 18  3  0.0000000  0  9 29 15 03 23 21 25 31 01 08
  20325356.823   -17595476.204 9 -13688332.05548  20325356.788    20325362.8404
  21992373.261   -18703464.165 8 -14552559.75146  21992372.658    21992381.0724
  23597115.598     7928817.008 8   6194584.16845  23597115.397    23597125.7524
  23671309.749    14392583.664 8  11240183.95345  23671309.214    23671319.5314
  20886233.783    -5822234.769 9  -4326063.71747  20886233.341    20886240.7354
  24158905.574    -9323965.885 7  -7246873.77345  24158905.728    24158917.0484
  22778818.292   -11146416.865 8  -8666112.30646  22778817.793    22778826.3204
  24604217.508    -6019106.380 7  -4671766.66245  24604217.094    24604229.1434
  22424710.402   -15199079.880 8 -11825734.05546  22424709.746    22424718.1934
 99  9 25 18  3 30.0000000  0  9 29 15 03 23 21 25 31 01 08
  20329285.506   -17574830.907 9 -13672244.82748  20329285.479    20329291.5484
  21975485.944   -18792207.131 8 -14621710.06946  21975485.388    21975493.8214
  23614861.310     8022070.663 8   6267249.23345  23614861.062    23614871.4624
  23684772.569    14463330.712 8  11295311.38845  23684772.064    23684782.3334
  20890902.883    -5797698.609 9  -4306944.65647  20890902.439    20890909.7874
  24139629.226    -9425263.309 7  -7325806.64245  24139629.412    24139640.8904
  22788928.440   -11093288.256 8  -8624713.45446  22788927.943    22788936.4914
  24584670.749    -6121825.129 7  -4751807.15845  24584670.347    24584682.3874
  22425098.836   -15197038.639 8 -11824143.49046  22425098.217    22425106.6904
 99  9 25 18  4  0.0000000  0  9 29 15 03 23 21 25 31 01 08
  20333300.470   -17553732.486 9 -13655804.51448  20333300.409    20333306.4804
  21958654.431   -18880656.631 8 -14690631.71846  21958653.930    21958662.3644
  23632632.838     8115459.959 8   6340020.00245  23632632.569    23632642.9904
  23698255.354    14534182.567 8  11350520.49745  23698254.859    23698265.1204
  20895618.914    -5772915.786 9  -4287633.39147  20895618.474    20895625.8024
  24120363.133    -9526507.032 8  -7404697.67045  24120363.340    24120374.8574
  22799122.004   -11039720.987 8  -8582972.79546  22799121.506    22799130.0624
  24565148.477    -6224414.626 7  -4831746.91545  24565148.191    24565160.1874
  22425609.626   -15194355.094 8 -11822052.43646  22425608.984    22425617.3804
 99  9 25 18  4 30.0000000  0  9 29 15 03 23 21 25 31 01 08
  20337398.174   -17532198.999 9 -13639025.19448  20337398.122    20337404.1964
  21941878.647   -18968814.031 8 -14759325.76046  21941878.144    21941886.5764
  23650431.494     8208991.725 8   6412901.77345  23650431.197    23650441.6154
  23711755.847    14605127.553 8  11405802.17245  23711755.243    23711765.6924
  20900382.404    -5747883.820 9  -4268127.98947  20900381.957    20900389.2644
  24101103.465    -9627717.391 8  -7483562.73045  24101103.603    24101115.0884
  22809398.613   -10985717.356 8  -8540892.11446  22809398.122    22809406.7324
  24545649.215    -6326883.672 7  -4911592.80145  24545648.981    24545661.0304
  22426242.252   -15191030.674 8 -11819461.98146  22426241.626    22426250.1014
 99  9 25 18  5  0.0000000  0  9 29 15 03 23 21 25 31 01 08
  20341574.454   -17510252.327 9 -13621923.91148  20341574.401    20341580.5294
  21925157.552   -19056683.773 8 -14827795.65446  21925157.040    21925165.4964
  23668253.411     8302646.436 8   6485879.33945  23668253.179    23668263.7284
  23725273.460    14676162.656 8  11461154.05545  23725272.915    23725283.2624
  20905193.236    -5722602.951 9  -4248428.63847  20905192.776    20905200.0684
  24081848.933    -9728900.406 8  -7562406.46845  24081849.003    24081860.5274
  22819758.657   -10931274.907 8  -8498469.50446  22819758.140    22819766.8244
  24526171.175    -6429241.211 7  -4991351.78845  24526170.955    24526183.1074
  22426995.335   -15187073.383 8 -11816378.38646  22426994.685    22427003.1884
 99  9 25 18  5 30.0000000  0  9 29 15 03 23 21 25 31 01 08
  20345828.011   -17487899.790 9 -13604506.36848  20345827.976    20345834.0984
  21908490.344   -19144270.486 8 -14896045.00246  21908489.788    21908498.2154
  23686095.322     8396405.817 8   6558938.47445  23686095.048    23686105.6384
  23738808.574    14747289.243 8  11516577.22345  23738807.975    23738818.3054
  20910051.218    -5697074.224 9  -4228536.14447  20910050.763    20910058.0674
  24062597.029    -9830069.411 8  -7641239.28245  24062597.051    24062608.6464
  22830202.548   -10876391.905 8  -8455703.59046  22830202.050    22830210.7554
  24506715.744    -6531480.152 7  -5071018.40245  24506715.444    24506727.5074
  22427865.881   -15182498.512 8 -11812813.57146  22427865.242    22427873.7174
 99  9 25 18  6  0.0000000  0  9 29 15 03 23 21 25 31 01 08
  20350154.986   -17465161.898 9 -13586788.55048  20350154.931    20350161.0214
  21891875.563   -19231581.767 8 -14964079.72846  21891874.970    21891883.3984
  23703955.786     8490263.047 8   6632073.84045  23703955.513    23703966.2014
  23752361.073    14818507.470 8  11572071.79745  23752360.512    23752370.7754
  20914954.905    -5671305.326 9  -4208456.50347  20914954.448    20914961.7714
  24043347.673    -9931224.698 8  -7720061.43645  24043347.757    24043359.2584
  22840731.880   -10821060.134 8  -8412587.99446  22840731.371    22840740.1034
  24487285.135    -6633588.003 7  -5150582.86145  24487284.856    24487297.0414
  22428850.723   -15177323.125 8 -11808780.82546  22428850.120    22428858.5774
 99  9 25 18  6 30.0000000  0  9 29 15 03 23 21 25 31 01 08
  20354557.240   -17442027.865 9 -13568762.04548  20354557.163    20354563.2774
  21875311.746   -19318625.590 8 -15031906.05646  21875311.107    21875319.4494
  23721832.305     8584204.452 8   6705274.80545  23721832.047    23721842.7284
  23765928.387    14889803.482 8  11627626.97945  23765927.770    23765938.0864
  20919903.616    -5645300.054 9  -4188192.67247  20919903.142    20919910.4354
  24024103.037   -10032355.841 7  -7798864.77445  24024103.110    24024114.4584
  22851344.077   -10765293.005 8  -8369133.15946  22851343.514    22851352.2654
  24467879.258    -6735566.627 7  -5230046.62745  24467878.960    24467891.0784
  22429949.723   -15171547.468 8 -11804280.34046  22429949.110    22429957.6214
 99  9 25 18  7  0.0000000  0  9 29 15 03 23 21 25 31 01 08
  20359039.662   -17418472.427 9 -13550407.17348  20359039.600    20359045.7554
  21858800.512   -19405393.223 8 -15099517.16346  21858799.778    21858808.0844
  23739724.844     8678229.727 7   6778541.12745  23739724.560    23739735.2424
  23779510.396    14961176.813 7  11683242.40945  23779509.778    23779520.1344
  20924895.586    -5619067.113 9  -4167751.44047  20924895.117    20924902.4064
  24004865.042   -10133451.552 7  -7877640.51645  24004865.078    24004876.3724
  22862039.954   -10709086.123 8  -8325335.65746  22862039.409    22862048.0784
  24448502.066    -6837394.298 7  -5309392.77145  24448501.784    24448513.8394
  22431163.096   -15165171.359 8 -11799311.98646  22431162.509    22431170.9684
 99  9 25 18  7 30.0000000  0  9 29 15 03 23 21 25 31 01 08
  20363607.091   -17394470.640 9 -13531704.50048  20363607.028    20363613.1384
  21842344.573   -19491869.648 8 -15166901.36446  21842343.860    21842352.1314
  23757637.908     8772362.818 8   6851891.45945  23757637.589    23757648.2184
  23793106.686    15032625.355 7  11738916.44845  23793106.126    23793116.4864
  20929931.736    -5592601.898 9  -4147129.22047  20929931.260    20929938.5734
  23985635.622   -10234502.337 7  -7956381.26945  23985635.560    23985646.8134
  22872821.739   -10652427.912 8  -8281186.46946  22872821.196    22872829.8564
  24429156.774    -6939054.026 7  -5388608.06945  24429156.527    24429168.6454
  22432492.689   -15158184.193 8 -11793867.47846  22432492.109    22432500.6524
 99  9 25 18  8  0.0000000  0  9 29 15 03 23 21 25 31 01 08
  20368259.273   -17370023.600 9 -13512654.87548  20368259.188    20368265.2944
  21825947.098   -19578039.157 8 -15234046.39646  21825946.372    21825954.6134
  23775575.619     8866624.937 8   6925342.33745  23775575.281    23775585.7754
  23806719.390    15104160.206 8  11794657.74745  23806718.841    23806729.3344
  20935014.219    -5565893.416 9  -4126317.43947  20935013.742    20935021.1024
  23966418.531   -10335487.738 7  -8035071.08245  23966418.604    23966429.7954
  22883689.437   -10595318.016 8  -8236685.32646  22883688.902    22883697.5764
  24409842.280    -7040552.587 7  -5467697.79045  24409841.918    24409853.9384
  22433939.742   -15150580.422 8 -11787942.49746  22433939.137    22433947.6394
 99  9 25 18  8 30.0000000  0  9 29 15 03 23 21 25 31 01 08
  20372996.760   -17345127.764 9 -13493255.54248  20372996.688    20373002.8454
  21809610.595   -19663887.803 8 -15300941.42046  21809609.891    21809618.1104
  23793540.743     8961031.451 8   6998905.73545  23793540.404    23793550.8494
  23820351.554    15175796.688 8  11850478.22545  23820350.964    23820361.3814
  20940143.075    -5538941.133 9  -4105315.68047  20940142.601    20940149.9934
  23947212.849   -10436414.099 8  -8113714.91745  23947212.800    23947224.0294
  22894639.761   -10537773.969 8  -8191845.87346  22894639.231    22894647.9104
  24390557.070    -7141896.489 7  -5546667.00345  24390556.470    24390568.7774
  22435504.608   -15142356.969 8 -11781534.65446  22435504.014    22435512.5624
 99  9 25 18  9  0.0000000  0  9 29 15 03 23 21 25 31 01 08
  20377816.092   -17319801.986 9 -13473521.18448  20377816.041    20377822.1954
  21793335.712   -19749412.812 8 -15367584.25046  21793335.028    21793343.1804
  23811534.294     9055587.399 8   7072585.58445  23811533.948    23811544.4344
  23834004.687    15247543.572 8  11906384.73545  23834003.982    23834014.4284
  20945319.985    -5511736.594 9  -4084117.35647  20945319.507    20945326.8864
  23928018.047   -10537283.148 8  -8192314.09445  23928018.017    23928029.0854
  22905670.393   -10479808.308 8  -8146677.90146  22905669.865    22905678.6214
  24371300.527    -7243090.034 7  -5625519.11645  24371300.060    24371312.3144
  22437185.828   -15133522.601 8 -11774650.78346  22437185.270    22437193.7894
 99  9 25 18  9 30.0000000  0  9 29 15 03 23 21 25 31 01 08
  20382713.444   -17294066.476 9 -13453467.56148  20382713.381    20382719.5094
  21777121.383   -19834619.661 8 -15433979.16346  21777120.663    21777128.8334
  23829553.642     9150279.231 8   7146371.32045  23829553.323    23829563.8794
  23847678.262    15319398.323 8  11962375.31945  23847677.656    23847688.1484
  20950548.263    -5484262.016 9  -4062708.61447  20950547.768    20950555.1344
  23908835.779   -10638086.852 8  -8270862.37645  23908835.758    23908846.6884
  22916778.563   -10421434.508 8  -8101191.88346  22916778.054    22916786.8294
  24352068.753    -7344154.339 7  -5704270.53045  24352068.204    24352080.2704
  22438981.741   -15124084.794 8 -11767296.69446  22438981.167    22438989.7744
 99  9 25 18 10  0.0000000  0  9 29 15 03 23 21 25 31 01 08
  20387687.137   -17267929.551 9 -13433101.14348  20387687.068    20387693.2364
  21760966.498   -19919513.637 8 -15500130.28446  21760965.897    21760974.0064
  23847595.071     9245087.677 8   7220247.89445  23847594.784    23847605.4734
  23861372.742    15391362.748 8  12018451.35245  23861372.126    23861382.7514
  20955828.594    -5456513.538 9  -4041086.45247  20955828.112    20955835.5084
  23889667.675   -10738816.016 8  -8349352.56045  23889667.527    23889678.6294
  22927961.853   -10362666.053 8  -8055398.34646  22927961.382    22927970.2224
  24332859.136    -7445101.591 7  -5782930.72645  24332858.533    24332870.4714
  22440892.428   -15114044.339 8 -11759473.01146  22440891.844    22440900.4714
 99  9 25 18 10 30.0000000  0  9 29 15 03 23 21 25 31 01 08
  20392739.620   -17241378.322 9 -13412411.89148  20392739.560    20392745.7794
  21744870.219   -20004100.140 8 -15566041.81846  21744869.550    21744877.6854
  23865654.494     9339990.377 7   7294197.89645  23865654.152    23865665.0214
  23875085.537    15463423.474 8  12074602.41845  23875084.873    23875095.5784
  20961159.981    -5428496.924 9  -4019255.35147  20961159.501    20961166.8954
  23870513.667   -10839471.219 8  -8427785.11045  23870513.437    23870524.5174
  22939220.427   -10303502.273 8  -8009296.76846  22939219.958    22939228.8944
  24313674.817    -7545915.775 7  -5861487.20745  24313674.313    24313686.1084
  22442921.673   -15103380.255 8 -11751163.36646  22442921.149    22442929.7644
 99  9 25 18 11  0.0000000  0  9 29 15 03 23 21 25 31 01 08
  20397871.677   -17214409.236 9 -13391397.03448  20397871.627    20397877.8784
  21728832.080   -20088380.894 8 -15631715.09646  21728831.453    21728839.5814
  23883727.909     9434966.358 7   7368204.98945  23883727.590    23883738.4304
  23888814.399    15535567.986 8  12130818.76745  23888813.728    23888824.4264
  20966543.127    -5400208.412 9  -3997212.38547  20966542.694    20966550.0744
  23851376.398   -10940038.648 8  -8506149.26945  23851376.086    23851387.1114
  22950556.792   -10243929.333 8  -7962876.37246  22950556.331    22950565.3644
  24294518.177    -7646584.596 7  -5939930.39545  24294517.726    24294529.6114
  22445072.020   -15092080.796 8 -11742358.63746  22445071.470    22445079.9994
 99  9 25 18 11 30.0000000  0  9 29 15 03 23 21 25 31 01 08
  20403084.569   -17187015.652 9 -13370051.40048  20403084.509    20403090.7184
  21712854.141   -20172345.539 8 -15697142.06246  21712853.474    21712861.6174
  23901815.859     9530018.569 7   7442271.49545  23901815.577    23901826.4754
  23902560.205    15607802.425 8  12187105.20645  23902559.582    23902570.3284
  20971975.806    -5371659.647 9  -3974966.62147  20971975.344    20971982.7364
  23832255.151   -11040521.278 8  -8584447.31645  23832254.893    23832265.8644
  22961972.368   -10183940.463 8  -7916131.85946  22961971.917    22961980.9784
  24275390.673    -7747099.703 7  -6018253.77345  24275390.237    24275402.0644
  22447345.355   -15080134.159 8 -11733049.58046  22447344.786    22447353.4254
 99  9 25 18 12  0.0000000  0  9 29 15 03 23 21 25 31 01 08
  20408376.944   -17159203.914 9 -13348379.93048  20408376.875    20408383.1054
  21696937.098   -20255990.061 8 -15762319.57246  21696936.483    21696944.6114
  23919918.706     9625149.292 8   7516399.20645  23919918.515    23919929.3654
  23916323.700    15680129.701 8  12243463.97545  23916323.184    23916334.0304
  20977452.433    -5342880.029 9  -3952540.97847  20977451.992    20977459.3754
  23813146.989   -11140935.477 8  -8662692.06245  23813146.741    23813157.5814
  22973466.392   -10123539.229 8  -7869066.02646  22973465.950    22973475.0194
  24256294.875    -7847447.928 7  -6096447.05545  24256294.437    24256306.3774
  22449742.462   -15067537.390 8 -11723233.94146  22449741.917    22449750.5054
 99  9 25 18 12 30.0000000  0  9 29 15 03 23 21 25 31 01 08
  20413747.518   -17130981.286 9 -13326388.27848  20413747.487    20413753.7284
  21681081.284   -20339313.023 8 -15827246.51946  21681080.630    21681088.7534
  23938037.227     9720361.278 8   7590590.23945  23938036.961    23938047.7724
  23930104.387    15752546.909 8  12299892.81745  23930103.844    23930114.7274
  20982970.499    -5313882.185 9  -3929945.29647  20982970.072    20982977.4994
  23794048.414   -11241298.931 8  -8740897.24945  23794048.194    23794058.9624
  22985037.989   -10062730.385 8  -7821682.56946  22985037.559    22985046.6004
  24237232.677    -7947619.842 7  -6174502.98145  24237232.293    24237244.0944
  22452258.447   -15054315.821 8 -11712931.40446  22452257.905    22452266.5754
 99  9 25 18 13  0.0000000  0  9 29 15 03 23 21 25 31 01 08
  20419196.585   -17102346.345 9 -13304075.34048  20419196.544    20419202.7784
  21665288.157   -20422306.512 8 -15891916.73946  21665287.504    21665295.5944
  23956171.345     9815655.647 8   7664845.47845  23956171.098    23956181.7484
  23943904.436    15825066.315 8  12356401.29745  23943903.860    23943914.8414
  20988531.819    -5284657.338 9  -3907172.72947  20988531.382    20988538.8434
  23774961.531   -11341600.817 8  -8819054.44445  23774961.367    23774972.0474
  22996686.546   -10001517.378 8  -7773984.18546  22996686.066    22996695.0544
  24218201.854    -8047627.317 8  -6252430.73045  24218201.438    24218213.2894
  22454886.748   -15040504.241 8 -11702169.13146  22454886.126    22454894.8504
 99  9 25 18 13 30.0000000  0  9 29 15 03 23 21 25 31 01 08
  20424724.628   -17073296.565 9 -13281439.15148  20424724.577    20424730.7904
  21649558.890   -20504964.125 8 -15956325.23446  21649558.233    21649566.3554
  23974323.051     9911042.856 8   7739173.07145  23974322.812    23974333.2194
  23957723.483    15897684.860 8  12412987.03345  23957722.914    23957733.6794
  20994137.148    -5255201.269 9  -3884219.99547  20994136.722    20994144.1374
  23755890.383   -11441820.072 7  -8897147.26845  23755890.179    23755900.7464
  23008413.168    -9939893.839 8  -7725965.91446  23008412.667    23008421.6704
  24199203.251    -8147465.333 8  -6330226.45245  24199202.821    24199214.7134
  22457626.761   -15026104.894 8 -11690948.85046  22457626.199    22457634.9094
 99  9 25 18 14  0.0000000  0  9 29 15 03 23 21 25 31 01 08
  20430334.032   -17043819.021 9 -13258469.63647  20430333.974    20430340.2014
  21633894.066   -20587283.216 8 -16020469.94346  21633893.367    21633901.5114
  23992490.344    10006512.658 8   7813565.02845  23992490.144    23992500.5404
  23971560.473    15970398.611 8  12469646.95245  23971559.994    23971570.7714
  20999787.907    -5225506.705 9  -3861081.42447  20999787.450    20999794.8674
  23736839.216   -11541933.771 8  -8975157.81745  23736839.039    23736849.6704
  23020218.555    -9877856.490 8  -7677625.18346  23020217.975    23020226.9714
  24180238.462    -8247125.960 8  -6407883.92345  24180237.930    24180249.7994
  22460478.746   -15011117.557 8 -11679270.39446  22460478.224    22460486.9374
 99  9 25 18 14 30.0000000  0  9 29 15 03 23 21 25 31 01 08
  20436027.413   -17013899.755 9 -13235155.93047  20436027.373    20436033.6084
  21618295.432   -20669254.216 8 -16084343.41146  21618294.766    21618302.9654
  24010674.793    10102072.167 7   7888026.84645  24010674.535    24010684.9984
  23985416.787    16043213.406 8  12526385.61445  23985416.302    23985427.0374
  21005489.746    -5195543.675 9  -3837733.65947  21005489.292    21005496.6874
  23717812.574   -11641919.430 8  -9053068.60945  23717812.300    23717822.9494
  23032102.841    -9815404.174 8  -7628961.12246  23032102.317    23032111.3634
  24161308.984    -8346600.796 8  -6485396.60945  24161308.414    24161320.3794
  22463443.352   -14995538.499 8 -11667130.85246  22463442.802    22463451.4954
 99  9 25 18 15  0.0000000  0  9 29 15 03 23 21 25 31 01 08
  20441804.037   -16983543.413 9 -13211501.64547  20441804.023    20441810.2604
  21602764.744   -20750868.468 8 -16147938.90246  21602764.067    21602772.2414
  24028876.282    10197721.195 7   7962558.42345  24028876.035    24028886.6764
  23999292.062    16116127.824 8  12583201.88945  23999291.506    23999302.4044
  21011245.010    -5165299.508 9  -3814166.83247  21011244.578    21011252.0014
  23698813.086   -11741761.902 8  -9130867.84545  23698812.894    23698823.3264
  23044066.291    -9752535.998 8  -7579972.99146  23044065.725    23044074.7684
  24142415.582    -8445885.742 7  -6562761.32845  24142415.084    24142426.9304
  22466528.761   -14979324.845 8 -11654496.81946  22466528.186    22466536.8714
 99  9 25 18 15 30.0000000  0  9 29 15 03 23 21 25 31 01 08
  20447658.756   -16952776.819 9 -13187527.68847  20447658.720    20447664.9434
  21587300.877   -20832131.435 8 -16211260.66046  21587300.203    21587308.3874
  24047094.842    10293459.783 8   8037159.77145  24047094.582    24047105.3394
  24013184.027    16189129.826 8  12640086.43345  24013183.479    24013194.3544
  21017052.483    -5134781.187 9  -3790386.37647  21017052.048    21017059.5064
  23679836.007   -11841486.807 8  -9208575.43045  23679835.771    23679846.2924
  23056105.271    -9689270.710 8  -7530675.44946  23056104.731    23056113.8504
  24123560.395    -8544969.932 7  -6639969.61345  24123559.887    24123571.6234
  22469738.543   -14962457.461 8 -11641353.39946  22469737.974    22469746.6524
 99  9 25 18 16  0.0000000  0  9 29 15 03 23 21 25 31 01 08
  20453587.219   -16921622.731 9 -13163251.79247  20453587.176    20453593.3994
  21571902.515   -20913049.744 8 -16274313.85046  21571901.863    21571910.0594
  24065327.580    10389272.989 7   8111819.28245  24065327.351    24065338.1924
  24027093.668    16262225.024 8  12697043.57845  24027093.179    24027104.1644
  21022911.553    -5103991.512 9  -3766394.47347  21022911.161    21022918.6494
  23660874.602   -11941128.798 8  -9286218.39845  23660874.408    23660884.8654
  23068213.315    -9625642.672 8  -7481095.23246  23068212.758    23068221.8814
  24104740.792    -8643866.714 7  -6717031.88345  24104740.326    24104751.9754
  22473071.555   -14944942.296 8 -11627705.21246  22473071.017    22473079.6374
 99  9 25 18 16 30.0000000  0  9 29 15 03 23 21 25 31 01 08
  20459582.439   -16890117.472 9 -13138702.25747  20459582.396    20459588.6334
  21556568.058   -20993632.731 8 -16337105.75946  21556567.429    21556575.5754
  24083572.809    10485151.874 8   8186529.97445  24083572.559    24083583.4504
  24041019.159    16335403.741 7  12754065.81945  24041018.650    24041029.7154
  21028822.536    -5072929.457 9  -3742190.33447  21028822.129    21028829.6154
  23641926.111   -12040702.969 8  -9363808.53845  23641925.966    23641936.2334
  23080386.567    -9561671.926 8  -7431247.96946  23080386.071    23080395.1664
  24085952.998    -8742596.399 8  -6793963.97545  24085952.542    24085964.1444
  22476525.210   -14926793.171 8 -11613563.02346  22476524.696    22476533.3194
 99  9 25 18 17  0.0000000  0  9 29 15 03 23 21 25 31 01 08
  20465640.024   -16858284.549 9 -13113897.39947  20465640.002    20465646.2444
  21541295.439   -21073890.712 8 -16399644.41246  21541294.812    21541302.9784
  24101826.186    10581073.495 8   8261273.96345  24101825.873    24101836.8384
  24054958.424    16408654.471 7  12811144.16145  24054957.890    24054969.1184
  21034781.950    -5041612.578 9  -3717787.62747  21034781.554    21034789.0844
  23622989.675   -12140213.492 8  -9441349.05745  23622989.555    23622999.8384
  23092623.656    -9497366.113 8  -7381139.63246  23092623.159    23092632.2724
  24067192.968    -8841179.819 7  -6870782.14145  24067192.520    24067203.9924
  22480096.762   -14908024.684 8 -11598938.22546  22480096.213    22480104.7874
 99  9 25 18 17 30.0000000  0  9 29 15 03 23 21 25 31 01 08
  20471761.268   -16826117.194 9 -13088831.95247  20471761.245    20471767.4934
  21526083.942   -21153827.286 8 -16461932.62147  21526083.323    21526091.4694
  24120085.907    10677028.673 8   8336044.10845  24120085.552    24120096.5644
  24068911.093    16481975.531 7  12868277.30745  24068910.510    24068921.7924
  21040788.378    -5010048.651 9  -3693192.41747  21040787.976    21040795.5264
  23604065.397   -12239660.142 8  -9518839.80445  23604065.276    23604075.6224
  23104923.726    -9432729.363 8  -7330773.40546  23104923.194    23104932.2344
  24048457.104    -8939636.690 7  -6947501.67345  24048456.631    24048468.2444
  22483779.461   -14888671.550 8 -11583857.83646  22483778.944    22483787.5824
 99  9 25 18 18  0.0000000  0  9 29 15 03 23 21 25 31 01 08
  20477950.182   -16793594.238 9 -13063489.41747  20477950.160    20477956.4234
  21510935.907   -21233430.656 8 -16523961.19447  21510935.289    21510943.4344
  24138351.555    10773015.280 7   8410838.75545  24138351.247    24138362.2874
  24082877.792    16555371.131 7  12925468.53845  24082877.271    24082888.6844
  21046840.746    -4978243.597 9  -3668409.31747  21046840.335    21046847.9034
  23585159.027   -12339012.606 8  -9596257.15545  23585158.975    23585169.4044
  23117290.984    -9367739.502 8  -7280132.02646  23117290.453    23117299.5124
  24029744.079    -9037973.667 8  -7024127.80245  24029743.614    24029755.3124
  22487571.776   -14868743.002 8 -11568329.08546  22487571.228    22487579.9004
 99  9 25 18 18 30.0000000  0  9 29 15 03 23 21 25 31 01 08
  20484212.919   -16760683.197 9 -13037844.48047  20484212.905    20484219.2094
  21495854.886   -21312681.776 8 -16585715.27647  21495854.280    21495862.4754
  24156624.992    10869042.753 7   8485665.26645  24156624.695    24156635.8084
  24096860.029    16628847.532 7  12982722.74745  24096859.471    24096870.9414
  21052941.143    -4946186.008 9  -3643429.42547  21052940.712    21052948.2974
  23566275.308   -12438245.680 8  -9673581.44245  23566275.257    23566285.8894
  23129731.343    -9302364.783 8  -7229190.75946  23129730.881    23129739.9344
  24011058.487    -9136166.699 8  -7100641.77145  24011058.071    24011069.8344
  22491473.640   -14848238.470 8 -11552351.53246  22491473.117    22491481.7794
 99  9 25 18 19  0.0000000  0  9 29 15 03 23 21 25 31 01 08
  20490555.358   -16727353.447 9 -13011873.27347  20490555.374    20490561.6984
  21480844.283   -21391562.701 8 -16647180.90947  21480843.721    21480851.9154
  24174906.945    10965114.634 7   8560526.34645  24174906.600    24174917.8264
  24110861.038    16702422.920 7  13040054.08045  24110860.419    24110872.0124
  21059088.665    -4913880.660 9  -3618256.46747  21059088.227    21059095.8484
  23547414.137   -12537360.578 8  -9750813.64845  23547414.125    23547424.8304
  23142248.462    -9236586.794 8  -7177935.25146  23142247.985    23142257.1514
  23992404.455    -9234193.604 7  -7177026.31945  23992404.104    23992415.8594
  22495488.672   -14827139.362 8 -11535910.67646  22495488.127    22495496.7954
 99  9 25 18 19 30.0000000  0  9 29 15 03 23 21 25 31 01 08
  20496980.846   -16693587.272 9 -12985561.99847  20496980.865    20496987.2194
  21465906.249   -21470062.734 8 -16708349.73747  21465905.653    21465913.8194
  24193197.680    11061233.194 7   8635423.78245  24193197.458    24193208.7484
  24124882.077    16776103.700 7  13097467.53045  24124881.542    24124893.0684
  21065283.321    -4881327.379 9  -3592890.32047  21065282.918    21065290.5584
  23528575.619   -12636356.889 8  -9827953.43045  23528575.626    23528586.3684
  23154843.522    -9170399.055 8  -7126360.45046  23154843.076    23154852.3704
  23973786.182    -9332032.889 7  -7253264.66045  23973785.844    23973797.5784
  22499619.370   -14805432.124 8 -11518995.96646  22499618.848    22499627.5444
 99  9 25 18 20  0.0000000  0  9 29 15 03 23 21 25 31 01 08
  20503487.968   -16659392.030 9 -12958916.38747  20503487.991    20503494.3834
  21451041.400   -21548178.194 8 -16769218.88747  21451040.773    21451048.9344
  24211496.683    11157394.265 7   8710354.34645  24211496.460    24211507.6564
  24138925.632    16849902.476 7  13154972.92745  24138925.139    24138936.7024
  21071525.868    -4848522.526 9  -3567328.13647  21071525.496    21071533.1314
  23509759.163   -12735237.648 8  -9905003.17746  23509759.193    23509769.8554
  23167514.790    -9103811.266 8  -7074473.91946  23167514.364    23167523.6414
  23955207.804    -9429662.404 7  -7329339.54845  23955207.445    23955219.1764
  22503868.671   -14783101.709 8 -11501595.67446  22503868.166    22503876.8104
 99  9 25 18 20 30.0000000  0  9 29 15 03 23 21 25 31 01 08
  20510072.993   -16624787.429 9 -12931951.79347  20510073.012    20510079.4344
  21436248.280   -21625916.337 8 -16829794.02847  21436247.645    21436255.8224
  24229802.500    11253591.539 7   8785313.12545  24229802.287    24229813.4684
  24152991.814    16923820.216 7  13212570.99745  24152991.291    24153002.8214
  21077818.205    -4815456.357 9  -3541562.32847  21077817.840    21077825.4774
  23490962.739   -12834013.383 8  -9981971.08846  23490962.765    23490973.2254
  23180257.426    -9036848.345 8  -7022295.08346  23180257.032    23180266.3484
  23936668.025    -9527089.422 7  -7405256.65145  23936667.690    23936679.3234
  22508238.180   -14760139.596 8 -11483703.15746  22508237.711    22508246.3804
 99  9 25 18 21  0.0000000  0  9 29 15 03 23 21 25 31 01 08
  20516731.316   -16589797.912 9 -12904687.26447  20516731.342    20516737.7594
  21421525.079   -21703287.108 8 -16890082.90047  21421524.427    21421532.6394
  24248114.443    11349820.899 8   8860296.94245  24248114.189    24248125.4694
  24167079.774    16997852.085 7  13270257.99945  24167079.229    24167090.7134
  21084157.799    -4782142.044 9  -3515603.15847  21084157.391    21084165.0484
  23472185.901   -12932686.092 8 -10058858.71446  23472185.964    23472196.2634
  23193068.676    -8969525.254 8  -6969835.58446  23193068.243    23193077.5564
  23918163.447    -9624331.673 7  -7481029.76045  23918163.080    23918174.5924
  22512728.181   -14736544.584 8 -11465317.48546  22512727.683    22512736.4054
 99  9 25 18 21 30.0000000  0  9 29 15 03 23 21 25 31 01 08
  20523458.973   -16554444.008 9 -12877138.79447  20523459.005    20523465.4264
  21406869.588   -21780301.554 8 -16950094.12347  21406869.033    21406877.2034
  24266432.819    11446083.738 8   8935306.81645  24266432.498    24266444.0014
  24181186.076    17071980.236 7  13328020.01845  24181185.593    24181197.0434
  21090543.547    -4748585.117 9  -3489454.93047  21090543.131    21090550.7944
  23453431.432   -13031241.404 8 -10135654.85745  23453431.407    23453441.5824
  23205945.229    -8901859.086 8  -6917108.74946  23205944.848    23205954.0894
  23899691.317    -9721403.312 7  -7556669.91345  23899690.968    23899702.4064
  22517335.694   -14712331.909 8 -11446450.52346  22517335.183    22517343.8894
 99  9 25 18 22  0.0000000  0  9 29 15 03 23 21 25 31 01 08
  20530251.690   -16518748.175 9 -12849323.88647  20530251.732    20530258.1364
  21392281.858   -21856960.729 8 -17009828.51247  21392281.252    21392289.3874
  24284758.158    11542383.466 8   9010345.45745  24284757.752    24284769.4364
  24195310.264    17146202.131 7  13385855.10245  24195309.665    24195321.0884
  21096974.289    -4714791.453 9  -3463122.22847  21096973.869    21096981.5464
  23434699.105   -13129680.023 8 -10212360.07345  23434699.066    23434709.0464
  23218884.956    -8833860.588 8  -6864122.95746  23218884.530    23218893.8674
  23881248.925    -9818318.928 7  -7632188.48045  23881248.556    23881260.0124
  22522058.539   -14687513.285 8 -11427111.39146  22522058.053    22522066.7844
 99  9 25 18 22 30.0000000  0  9 29 15 03 23 21 25 31 01 08
  20537107.199   -16482722.266 9 -12821251.77347  20537107.237    20537113.6914
  21377761.111   -21933267.622 8 -17069288.40047  21377760.494    21377768.6244
  24303088.843    11638711.384 8   9085406.05445  24303088.451    24303100.1884
  24209448.583    17220499.541 7  13443749.03045  24209448.048    24209459.6694
  21103446.677    -4680778.901 9  -3436618.95847  21103446.258    21103453.9424
  23415991.027   -13227991.253 8 -10288966.01345  23415990.887    23416000.8254
  23231889.741    -8765520.180 8  -6810870.74746  23231889.238    23231898.6934
  23862833.419    -9915092.311 7  -7707596.18645  23862832.994    23862844.5704
  22526893.500   -14662105.769 8 -11407313.39346  22526893.036    22526901.7304
 99  9 25 18 23  0.0000000  0  9 29 15 03 23 21 25 31 01 08
  20544028.250   -16446351.933 9 -12792911.27947  20544028.285    20544034.7734
  21363307.857   -22009219.968 8 -17128472.02247  21363307.230    21363315.3274
  24321422.701    11735056.133 8   9160479.76945  24321422.369    24321434.1114
  24223601.002    17294870.300 7  13501700.10845  24223600.471    24223612.1654
  21109957.280    -4646565.537 9  -3409959.21847  21109956.881    21109964.5834
  23397308.844   -13326166.009 8 -10365465.60145  23397308.740    23397318.5514
  23244959.560    -8696837.943 8  -6757352.15546  23244959.060    23244968.4934
  23844446.442   -10011716.103 7  -7782887.31545  23844445.934    23844457.6344
  22531839.341   -14636115.471 8 -11387061.27346  22531838.852    22531847.6474
 99  9 25 18 23 30.0000000  0  9 29 15 03 23 21 25 31 01 08
  20551015.878   -16409631.726 9 -12764298.15247  20551015.908    20551022.4224
  21348923.819   -22084808.381 8 -17187372.06047  21348923.238    21348931.2904
  24339757.896    11831407.587 8   9235558.73845  24339757.656    24339769.0984
  24237766.669    17369311.135 7  13559705.79245  24237766.273    24237777.9714
  21116508.523    -4612138.445 9  -3383132.92947  21116508.126    21116515.8424
  23378654.478   -13424194.570 8 -10441851.26445  23378654.285    23378664.1714
  23258092.741    -8627822.397 8  -6703573.87746  23258092.238    23258101.7424
  23826090.583   -10108176.285 7  -7858050.95745  23826090.132    23826101.7844
  22536895.981   -14609542.952 8 -11366355.49246  22536895.502    22536904.2604
 99  9 25 18 24  0.0000000  0  9 29 15 03 23 21 25 31 01 08
  20558072.556   -16372548.823 9 -12735402.40447  20558072.602    20558079.1064
  21334611.075   -22160022.443 8 -17245980.38747  21334610.476    21334618.4864
  24358092.641    11927757.077 7   9310636.15445  24358092.383    24358103.8924
  24251947.206    17443829.642 7  13617771.98045  24251946.846    24251958.6644
  21123102.794    -4577485.322 9  -3356130.51647  21123102.420    21123110.1684
  23360028.229   -13522075.095 8 -10518121.59346  23360028.089    23360038.0004
  23271288.876    -8558476.039 8  -6649537.81046  23271288.452    23271297.9364
  23807767.010   -10204466.458 7  -7933082.08845  23807766.626    23807778.2624
  22542064.824   -14582380.393 8 -11345189.89946  22542064.374    22542073.2594
 99  9 25 18 24 30.0000000  0  9 29 15 03 23 21 25 31 01 08
  20565203.251   -16335076.875 9 -12706203.50247  20565203.276    20565209.7754
  21320370.970   -22234854.685 8 -17304291.19747  21320370.345    21320378.3164
  24376427.615    12024107.013 7   9385713.91245  24376427.341    24376438.8284
  24266142.479    17518426.165 7  13675898.97245  24266142.028    24266154.0884
  21129743.013    -4542590.777 9  -3328939.97847  21129742.624    21129750.3934
  23341432.672   -13619794.239 8 -10594266.16346  23341432.523    23341442.5164
  23284546.202    -8488808.411 8  -6595251.41746  23284545.765    23284555.3234
  23789478.514   -10300572.685 7  -8007969.89345  23789478.137    23789489.7634
  22547348.058   -14554617.593 8 -11323556.60946  22547347.576    22547356.3424
 99  9 25 18 25  0.0000000  0  9 29 15 03 23 21 25 31 01 08
  20572410.460   -16297203.079 9 -12676691.47747  20572410.476    20572416.9594
  21306207.240   -22309285.582 8 -17362289.26947  21306206.610    21306214.5534
  24394765.484    12120472.574 7   9460803.85945  24394765.136    24394776.8604
  24280354.058    17593106.916 7  13734091.59245  24280353.581    24280365.5744
  21136435.088    -4507423.982 9  -3301537.30347  21136434.681    21136442.4254
  23322868.166   -13717350.499 8 -10670283.84946  23322867.995    23322877.9764
  23297863.230    -8418827.278 8  -6540720.71946  23297862.735    23297872.3574
  23771230.537   -10396466.125 7  -8082691.90745  23771230.150    23771241.6884
  22552748.469   -14526238.214 8 -11301442.85346  22552747.997    22552756.8334
 99  9 25 18 25 30.0000000  0  9 29 15 03 23 21 25 31 01 08
  20579692.461   -16258936.076 9 -12646873.06147  20579692.475    20579698.9514
  21292122.710   -22383300.129 8 -17419962.91347  21292122.101    21292130.0314
  24413106.734    12216856.245 7   9535907.91745  24413106.557    24413117.9784
  24294582.028    17667875.399 7  13792352.57045  24294581.501    24294593.8074
  21143183.308    -4471962.095 9  -3273904.68947  21143182.919    21143190.5964
  23304334.637   -13814743.997 8 -10746174.72146  23304334.455    23304344.3604
  23311241.521    -8348524.235 8  -6485939.20346  23311241.083    23311250.6834
  23753024.861   -10492137.820 7  -8157241.16845  23753024.483    23753035.7984
  22558266.618   -14497240.475 8 -11278847.28046  22558266.157    22558274.9224
 99  9 25 18 26  0.0000000  0  9 29 15 03 23 21 25 31 01 08
  20587050.004   -16220272.305 9 -12616745.47747  20587050.012    20587056.4414
  21278117.827   -22456895.959 8 -17477310.27547  21278117.246    21278125.1694
  24431452.566    12313263.980 7   9611030.71945  24431452.416    24431464.0214
  24308828.364    17742739.679 7  13850688.17845  24308827.868    24308840.1804
  21149986.120    -4436213.081 9  -3246048.33947  21149985.730    21149993.3784
  23285832.778   -13911971.114 8 -10821935.95046  23285832.634    23285842.4494
  23324682.020    -8277894.600 8  -6430903.18546  23324681.648    23324691.1554
  23734861.219   -10587587.795 8  -8231617.62045  23734860.838    23734872.1134
  22563902.935   -14467621.682 8 -11255767.74446  22563902.435    22563911.2264
 99  9 25 18 26 30.0000000  0  9 29 15 03 23 21 25 31 01 08
  20594481.012   -16181222.443 9 -12586317.05047  20594481.007    20594487.3764
  21264192.690   -22530072.988 8 -17534331.30647  21264192.096    21264200.0214
  24449800.949    12409685.220 7   9686164.05245  24449800.815    24449812.5694
  24323093.131    17817700.280 7  13909098.87345  24323092.613    24323104.8324
  21156844.543    -4400172.020 9  -3217964.42247  21156844.142    21156851.8164
  23267362.275   -14009033.397 8 -10897568.74246  23267362.141    23267371.9164
  23338186.014    -8206931.395 8  -6375607.26646  23338185.570    23338195.1004
  23716741.266   -10682808.479 8  -8305815.42945  23716740.892    23716752.1644
  22569656.430   -14437387.051 8 -11232208.32946  22569655.883    22569664.7824
 99  9 25 18 27  0.0000000  0  9 29 15 03 23 21 25 31 01 08
  20601981.808   -16141805.890 9 -12555602.88847  20601981.795    20601988.1004
  21250346.688   -22602834.123 8 -17591028.26247  21250346.061    21250353.9894
  24468147.674    12506097.955 7   9761290.74845  24468147.653    24468159.4384
  24337376.870    17892760.835 7  13967587.45845  24337376.355    24337388.5094
  21163757.425    -4363844.805 9  -3189657.52447  21163757.036    21163764.6974
  23248922.011   -14105936.685 8 -10973077.64946  23248921.896    23248931.6674
  23351754.505    -8135629.196 8  -6320047.18546  23351754.037    23351763.5344
  23698662.756   -10777811.653 8  -8379843.75345  23698662.358    23698673.4824
  22575526.804   -14406537.998 8 -11208170.13646  22575526.308    22575535.1794
 99  9 25 18 27 30.0000000  0  9 29 15 03 23 21 25 31 01 08
  20609554.333   -16102012.373 9 -12524594.98747  20609554.302    20609560.5954
  21236577.758   -22675190.242 8 -17647409.62647  21236577.193    21236585.0554
  24486491.453    12602494.351 7   9836404.69145  24486491.315    24486503.1584
  24351680.714    17967927.365 7  14026158.60245  24351680.262    24351692.3744
  21170721.429    -4327248.640 9  -3161141.06147  21170721.025    21170728.7384
  23230514.299   -14202669.005 8 -11048453.36046  23230514.190    23230523.9524
  23365385.910    -8063995.983 8  -6264229.16346  23365385.470    23365394.8124
  23680621.214   -10872619.544 8  -8453719.90145  23680620.858    23680631.9834
  22581512.855   -14375081.471 8 -11183658.57646  22581512.294    22581521.2764
 99  9 25 18 28  0.0000000  0  9 29 15 03 23 21 25 31 01 08
  20617198.977   -16061839.319 9 -12493291.33947  20617198.960    20617205.2854
  21222885.876   -22747141.725 8 -17703475.67547  21222885.262    21222893.0954
  24504834.891    12698888.643 7   9911516.97145  24504834.675    24504846.4044
  24366004.643    18043199.368 7  14084811.95445  24366004.057    24366016.2684
  21177736.821    -4290382.526 9  -3132414.24947  21177736.438    21177744.1574
  23212142.888   -14299210.682 8 -11123680.52645  23212142.788    23212152.4234
  23379078.937    -7992038.718 8  -6208158.66546  23379078.501    23379087.9554
  23662617.190   -10967230.987 8  -8527442.97545  23662616.791    23662627.9724
  22587615.025   -14343014.464 8 -11158671.33046  22587614.500    22587623.4534
 99  9 25 18 28 30.0000000  0  9 29 15 03 23 21 25 31 01 08
  20624914.963   -16021291.411 9 -12461695.59947  20624914.949    20624921.3224
  21209272.558   -22818680.229 8 -17759219.93947  21209271.986    21209279.7694
  24523177.607    12795278.995 7   9986626.23045  24523177.327    24523188.9244
  24380348.425    18118576.161 7  14143546.96245  24380348.066    24380360.0374
  21184805.867    -4253234.271 9  -3103467.60347  21184805.534    21184813.2504
  23193808.803   -14395556.077 8 -11198754.78045  23193808.771    23193818.2404
  23392831.429    -7919769.327 8  -6151844.92246  23392830.990    23392840.3364
  23644649.632   -11061650.907 8  -8601016.82545  23644649.209    23644660.3484
  22593833.745   -14310334.818 8 -11133206.68146  22593833.205    22593842.2464
 99  9 25 18 29  0.0000000  0  9 29 15 03 23 21 25 31 01 08
  20632704.003   -15980359.834 9 -12429800.89347  20632704.006    20632710.4194
  21195739.638   -22889796.595 8 -17814635.25847  21195738.935    21195746.7424
  24541522.223    12891680.060 7  10061743.80445  24541521.818    24541533.5774
  24394711.317    18194052.758 7  14202359.73245  24394710.894    24394722.9734
  21191927.708    -4215809.296 9  -3074305.32247  21191927.314    21191935.0014
  23175514.390   -14491693.754 8 -11273667.18146  23175514.285    23175523.6994
  23406641.523    -7847197.319 8  -6095295.39146  23406641.059    23406650.4684
  23626718.726   -11155878.203 8  -8674440.55245  23626718.263    23626729.3654
  22600169.510   -14277040.398 8 -11107263.00446  22600168.969    22600177.9314
 99  9 25 18 29 30.0000000  0  9 29 15 03 23 21 25 31 01 08
  20640565.043   -15939049.967 9 -12397611.41847  20640565.024    20640571.4524
  21182288.632   -22960481.534 8 -17869714.40547  21182288.027    21182295.8124
  24559873.117    12988115.199 7  10136887.93045  24559872.813    24559884.7794
  24409094.160    18269635.040 7  14261254.82245  24409093.746    24409106.0984
  21199102.915    -4178103.704 9  -3044924.38547  21199102.507    21199110.1934
  23157259.053   -14587626.390 8 -11348419.81246  23157258.854    23157268.2094
  23420510.440    -7774315.823 8  -6038504.68546  23420509.968    23420519.4644
  23608826.951   -11249899.849 8  -8747704.04445  23608826.460    23608837.5514
  22606621.721   -14243133.840 8 -11080842.33046  22606621.182    22606630.1904
 99  9 25 18 30  0.0000000  0  9 29 15 03 23 21 25 31 01 08
  20648491.937   -15897394.189 9 -12365152.39847  20648491.916    20648498.3134
  21168919.883   -23030734.681 8 -17924457.10047  21168919.222    21168927.0444
  24578228.040    13084570.954 7  10212048.12445  24578227.827    24578239.8774
  24423495.373    18345312.828 7  14320224.36745  24423494.946    24423507.1404
  21206331.212    -4140118.872 9  -3015325.85747  21206330.793    21206338.4694
  23139036.510   -14683386.521 8 -11423038.01146  23139036.308    23139045.6634
  23434438.676    -7701122.709 8  -5981471.18646  23434438.196    23434447.7574
  23590974.459   -11343714.254 8  -8820806.05445  23590974.039    23590985.0504
  22613189.881   -14208618.020 8 -11053946.90146  22613189.315    22613198.2774
 99  9 25 18 30 30.0000000  0  9 29 15 03 23 21 25 31 01 08
  20656482.735   -15855402.475 9 -12332431.60947  20656482.724    20656489.0794
  21155631.377   -23100566.060 8 -17978871.13247  21155630.722    21155638.5624
  24596579.830    13181011.130 7  10287196.12745  24596579.642    24596592.0764
  24437913.584    18421080.459 7  14379263.88745  24437913.164    24437925.6494
  21213607.444    -4101882.192 9  -2985531.08947  21213607.035    21213614.7264
  23120839.403   -14779012.821 8 -11497551.94146  23120839.216    23120848.5424
  23448426.327    -7627617.482 8  -5924194.47146  23448425.863    23448435.4664
  23573160.670   -11437325.397 8  -8893749.67145  23573160.371    23573171.3164
  22619872.503   -14173500.635 8 -11026582.71546  22619871.988    22619880.9514
 99  9 25 18 31  0.0000000  0  9 29 15 03 23 21 25 31 01 08
  20664534.938   -15813088.105 9 -12299459.39347  20664534.910    20664541.2604
  21142419.987   -23169991.809 8 -18032969.08547  21142419.358    21142427.2674
  24614927.001    13277425.708 7  10362324.22445  24614926.742    24614939.1464
  24452347.177    18496928.245 7  14438365.90745  24452346.682    24452359.1374
  21220927.201    -4063416.685 9  -2955558.01647  21220926.788    21220934.5044
  23102663.042   -14874529.941 8 -11571980.78446  23102662.840    23102672.1954
  23462474.589    -7553793.721 8  -5866669.55046  23462474.037    23462483.7284
  23555385.628   -11530733.307 8  -8966534.92745  23555385.316    23555396.2874
  22626665.623   -14137802.877 8 -10998766.26946  22626665.046    22626673.9854
 99  9 25 18 31 30.0000000  0  9 29 15 03 23 21 25 31 01 08
  20672645.725   -15770465.957 9 -12266247.34847  20672645.705    20672652.0424
  21129283.651   -23239023.657 8 -18086760.10647  21129283.042    21129290.9474
  24633266.475    13373800.022 7  10437420.90445  24633266.055    24633278.7094
  24466795.708    18572855.095 7  14497529.52445  24466795.220    24466807.7024
  21228288.239    -4024734.339 9  -2925415.98247  21228287.822    21228295.5784
  23084507.856   -14969935.518 8 -11646322.71046  23084507.678    23084517.1104
  23476582.671    -7479655.735 8  -5808899.77946  23476582.200    23476591.7774
  23537648.265   -11623943.133 8  -9039165.82645  23537647.906    23537658.8744
  22633566.208   -14101539.728 8 -10970509.26846  22633565.738    22633574.7094
 99  9 25 18 32  0.0000000  0  9 29 15 03 23 21 25 31 01 08
  20680815.419   -15727533.953 9 -12232793.85747  20680815.379    20680821.7534
  21116222.233   -23307661.859 8 -18140244.38547  21116221.584    21116229.4854
  24651594.064    13470111.008 7  10512468.28745  24651593.546    24651606.0524
  24481255.384    18648840.962 7  14556739.12645  24481254.860    24481267.3994
  21235689.335    -3985841.535 9  -2895109.95447  21235688.898    21235696.6664
  23066379.193   -15065201.638 8 -11720555.98046  23066379.058    23066388.4624
  23490745.962    -7405227.539 8  -5750903.87846  23490745.485    23490755.0844
  23519947.929   -11716958.739 8  -9111645.43045  23519947.599    23519958.3774
  22640573.861   -14064714.715 8 -10941814.42646  22640573.307    22640582.2444
 99  9 25 18 32 30.0000000  0  9 29 15 03 23 21 25 31 01 08
  20689045.809   -15684282.894 9 -12199091.75547  20689045.792    20689052.1844
  21103237.535   -23375896.897 8 -18193414.51747  21103236.913    21103244.7264
  24669909.180    13566355.703 7  10587464.01645  24669908.567    24669920.9964
  24495727.682    18724892.705 7  14616000.08845  24495727.111    24495739.5484
  21243133.555    -3946722.173 9  -2864627.38747  21243133.135    21243140.8684
  23048285.614   -15160283.440 8 -11794645.61446  23048285.474    23048294.9794
  23504963.375    -7330514.746 8  -5692686.20146  23504962.923    23504972.5744
  23502284.056   -11809782.689 8  -9183975.65145  23502283.748    23502294.5284
  22647688.202   -14027328.730 8 -10912682.45746  22647687.682    22647696.5724
 99  9 25 18 33  0.0000000  0  9 29 15 03 23 21 25 31 01 08
  20697337.492   -15640709.965 9 -12165138.84147  20697337.461    20697343.8604
  21090333.688   -23443707.297 9 -18246253.75847  21090333.046    21090340.8304
  24688215.468    13662554.518 7  10662424.02445  24688214.894    24688227.2264
  24510213.579    18801016.459 7  14675317.14745  24510213.122    24510225.5724
  21250626.858    -3907344.903 9  -2833943.85047  21250626.437    21250634.1884
  23030236.225   -15255132.782 8 -11868554.13046  23030236.109    23030245.6314
  23519233.219    -7255526.370 8  -5634253.78746  23519232.764    23519242.4904
  23484657.406   -11902411.266 8  -9256153.66645  23484657.080    23484667.7494
  22654909.701   -13989380.078 8 -10883112.04146  22654909.143    22654918.0234
 99  9 25 18 33 30.0000000  0  8 29 15 23 21 25 31 01 08
  20705695.613   -15596787.881 9 -12130913.85847  20705695.575    20705701.9744
  21077516.398   -23511062.578 9 -18298738.36047  21077515.749    21077523.5024
  24524717.439    18877234.893 7  14734707.97245  24524717.092    24524729.7524
  21258173.850    -3867685.229 9  -2803040.25647  21258173.413    21258181.2194
  23012236.745   -15349720.419 8 -11942258.71846  23012236.630    23012246.1714
  23533554.570    -7180267.726 8  -5575610.77946  23533554.149    23533563.8214
  23467072.046   -11994822.713 8  -9328162.50745  23467071.705    23467082.2424
  22662244.129   -13950837.075 8 -10853078.51646  22662243.575    22662252.4864
 99  9 25 18 34  0.0000000  0  8 29 15 23 21 25 31 01 08
  20714119.985   -15552517.592 9 -12096417.54647  20714119.933    20714126.3374
  21064786.228   -23577960.286 9 -18350866.41347  21064785.532    21064793.3084
  24539240.160    18953552.238 7  14794175.89545  24539239.767    24539252.3814
  21265774.457    -3827744.140 9  -2771917.37247  21265774.011    21265781.8464
  22994281.669   -15444075.371 8 -12015782.00246  22994281.510    22994290.9324
  23547925.511    -7104748.342 8  -5516764.59946  23547925.070    23547934.7584
  23449526.437   -12087024.765 8  -9400008.17945  23449526.071    23449536.6364
  22669691.384   -13911701.499 8 -10822583.25546  22669690.819    22669699.7464
 99  9 25 18 34 30.0000000  0  8 29 15 23 21 25 31 01 08
  20722611.486   -15507894.269 9 -12061646.14147  20722611.435    20722617.8764
  21052142.256   -23644404.587 9 -18402641.16247  21052141.606    21052149.3774
  24553785.147    19029985.240 7  14853733.91845  24553784.769    24553797.3094
  21273427.830    -3787525.552 9  -2740578.25747  21273427.393    21273435.2474
  22976365.225   -15538226.739 8 -12089146.63746  22976365.123    22976374.4764
  23562346.264    -7028967.087 8  -5457714.36046  23562345.837    23562355.5354
  23432021.244   -12179014.965 8  -9471688.75846  23432020.809    23432031.4914
  22677249.717   -13871982.310 8 -10791633.22746  22677249.127    22677257.9524
 99  9 25 18 35  0.0000000  0  8 29 15 23 21 25 31 01 08
  20731173.881   -15462898.498 9 -12026584.52247  20731173.837    20731180.3234
  21039585.430   -23710391.117 9 -18454059.20547  21039584.749    21039592.5374
  24568353.907    19106543.856 7  14913389.83645  24568353.342    24568366.2984
  21281131.046    -3747045.207 9  -2709035.17547  21281130.580    21281138.4154
  22958483.773   -15632194.465 8 -12162368.17246  22958483.642    22958492.9464
  23576816.158    -6952927.794 8  -5398463.06746  23576815.700    23576825.4134
  23414560.305   -12270771.989 8  -9543187.65745  23414559.918    23414570.5984
  22684920.756   -13831670.198 8 -10760221.17746  22684920.186    22684929.0754
 99  9 25 18 35 30.0000000  0  8 29 15 23 21 25 31 01 08
  20739808.692   -15417522.011 9 -11991226.24547  20739808.679    20739815.1684
  21027115.101   -23775922.831 9 -18505122.84947  21027114.432    21027122.2314
  24582947.256    19183231.321 7  14973146.17945  24582946.630    24582959.5754
  21288884.686    -3706299.486 9  -2677285.30547  21288884.252    21288892.0664
  22940634.575   -15725992.803 8 -12235457.70946  22940634.400    22940643.6854
  23591337.038    -6876620.548 8  -5339002.97246  23591336.547    23591346.2934
  23397144.020   -12362294.740 8  -9614504.00045  23397143.545    23397154.2734
  22692704.465   -13790766.542 8 -10728348.22046  22692703.878    22692712.7254
 99  9 25 18 36  0.0000000  0  8 29 15 23 21 25 31 01 08
  20748511.998   -15371785.963 9 -11955587.79647  20748511.994    20748518.4234
  21014731.183   -23841000.495 9 -18555832.68847  21014730.545    21014738.3314
  24597561.506    19260028.702 7  15032988.15645  24597560.893    24597573.8134
  21296690.390    -3665280.414 9  -2645322.43647  21296689.938    21296697.7524
  22922820.266   -15819607.575 8 -12308404.21046  22922820.062    22922829.3454
  23605912.844    -6800024.368 8  -5279317.73445  23605912.347    23605922.1014
  23379770.155   -12453594.715 8  -9685646.75446  23379769.732    23379780.4104
  22700600.864   -13749270.377 8 -10696013.55846  22700600.311    22700609.1954
 99  9 25 18 36 30.0000000  0  8 29 15 23 21 25 31 01 08
  20757282.254   -15325698.102 9 -11919675.20647  20757282.242    20757288.6524
  21002433.020   -23905627.705 9 -18606191.52547  21002432.389    21002440.1614
  24612191.109    19336907.171 7  15092893.31045  24612190.405    24612203.6254
  21304547.706    -3623990.249 9  -2613148.31547  21304547.259    21304555.0924
  22905043.594   -15913024.068 8 -12381196.19746  22905043.378    22905052.6584
  23620543.155    -6723141.787 8  -5219409.32445  23620542.679    23620552.4384
  23362437.863   -12544676.816 8  -9756619.71746  23362437.401    23362448.0324
  22708610.336   -13707180.844 8 -10663216.56446  22708609.717    22708618.6074
 99  9 25 18 37  0.0000000  0  8 29 15 23 21 25 31 01 08
  20766117.065   -15279270.880 9 -11883498.17747  20766117.056    20766123.4584
  20990221.316   -23969800.806 9 -18656196.50547  20990220.653    20990228.3864
  24626831.998    19413844.671 7  15152844.48345  24626831.229    24626844.4374
  21312459.339    -3582414.411 9  -2580751.59647  21312458.891    21312466.7444
  22887307.448   -16006227.527 8 -12453822.20346  22887307.297    22887316.5524
  23635229.665    -6645964.009 8  -5159270.91445  23635229.132    23635238.9684
  23345146.010   -12635546.057 8  -9827426.82045  23345145.512    23345156.0824
  22716732.204   -13664500.272 8 -10629959.02146  22716731.634    22716740.4514
 99  9 25 18 37 30.0000000  0  8 29 15 23 21 25 31 01 08
  20775011.911   -15232528.236 9 -11847075.36747  20775011.899    20775018.3294
  20978096.615   -24033516.481 9 -18705845.05547  20978095.956    20978103.6664
  24641483.159    19490836.591 7  15212838.03745  24641482.496    24641495.6444
  21320426.562    -3540546.905 9  -2548127.60747  21320426.096    21320433.9584
  22869615.542   -16099198.736 8 -12526267.21746  22869615.385    22869624.6754
  23649975.626    -6568473.996 8  -5098889.17645  23649975.092    23649984.8964
  23327893.174   -12726209.720 8  -9898073.73545  23327892.726    23327903.2594
  22724965.841   -13621232.583 8 -10596243.99046  22724965.204    22724974.0874
 99  9 25 18 38  0.0000000  0  8 29 15 23 21 25 31 01 08
  20783964.677   -15185481.334 9 -11810415.47347  20783964.661    20783971.1144
  20966058.190   -24096778.777 9 -18755140.32447  20966057.500    20966065.1794
  24656144.664    19567882.552 7  15272873.69445  24656144.075    24656157.0714
  21328444.544    -3498412.268 9  -2515295.47247  21328444.065    21328451.9334
  22851966.794   -16191943.548 8 -12598535.83446  22851966.623    22851975.8434
  23664778.146    -6490686.363 8  -5038275.55645  23664777.646    23664787.4774
  23310679.731   -12816666.830 8  -9968559.68145  23310679.313    23310689.7784
  22733310.509   -13577381.145 8 -10562074.09746  22733309.937    22733318.7974
 99  9 25 18 38 30.0000000  0  7 29 15 21 25 31 01 08
  20792976.733   -15138122.838 9 -11773512.78347  20792976.702    20792983.1354
  20954104.752   -24159594.554 9 -18804087.65047  20954104.056    20954111.7134
  21336510.347    -3456026.284 9  -2482267.48047  21336509.852    21336517.7624
  22834358.055   -16284477.614 8 -12670640.23846  22834357.903    22834367.0264
  23679631.500    -6412632.274 8  -4977454.29245  23679630.903    23679640.8204
  23293506.523   -12906912.250 8 -10038880.66045  23293506.082    23293516.5484
  22741762.408   -13532966.011 8 -10527464.96646  22741761.856    22741770.6934
 99  9 25 18 39  0.0000000  0  7 29 15 21 25 31 01 08
  20802044.482   -15090471.690 9 -11736382.05047  20802044.434    20802050.8564
  20942234.154   -24221974.609 9 -18852695.46047  20942233.484    20942241.1424
  21344619.040    -3413414.888 9  -2449063.84347  21344618.568    21344626.4724
  22816788.362   -16376806.845 8 -12742585.02746  22816788.246    22816797.3434
  23694530.133    -6334339.882 8  -4916447.35145  23694529.609    23694539.5504
  23276373.560   -12996946.202 8 -10109036.87845  23276373.102    23276383.5214
  22750317.398   -13488009.117 8 -10492433.71246  22750316.814    22750325.7884
 99  9 25 18 39 30.0000000  0  7 29 15 21 25 31 01 08
  20811171.379   -15042509.852 9 -11699009.22847  20811171.326    20811177.7534
  20930448.459   -24283908.790 9 -18900955.82247  20930447.753    20930455.4444
  21352767.607    -3370594.107 9  -2415697.04747  21352767.097    21352775.0244
  22799259.752   -16468920.076 8 -12814361.50946  22799259.611    22799268.7094
  23709471.849    -6255821.302 8  -4855264.16845  23709471.235    23709481.3074
  23259281.926   -13086762.459 8 -10179023.44645  23259281.505    23259291.9984
  22758977.513   -13442499.873 8 -10456972.07046  22758976.938    22758985.8514
 99  9 25 18 40  0.0000000  0  7 29 15 21 25 31 01 08
  20820361.906   -14994213.580 9 -11661375.81447  20820361.833    20820368.2544
  20918750.292   -24345382.538 9 -18948857.41247  20918749.651    20918757.3754
  21360958.608    -3327550.202 9  -2382156.38347  21360958.146    21360966.0674
  22781774.090   -16560807.775 8 -12885962.23946  22781773.926    22781782.9784
  23724453.566    -6177092.071 8  -4793916.83245  23724453.013    23724463.0664
  23242233.696   -13176350.721 8 -10248832.36646  23242233.297    23242243.8064
  22767745.588   -13396423.308 8 -10421068.32346  22767745.038    22767754.0564
 99  9 25 18 40 30.0000000  0  7 29 15 21 25 31 01 08
  20829617.045   -14945577.650 9 -11623477.72547  20829616.976    20829623.4084
  20907143.117   -24406378.566 9 -18996386.74747  20907142.456    20907150.1964
  21369196.029    -3284262.549 8  -2348425.79647  21369195.554    21369203.4934
  22764336.208   -16652444.387 8 -12957367.32246  22764336.068    22764345.0864
  23739476.004    -6098148.902 8  -4732402.81845  23739475.423    23739485.5734
  23225232.325   -13265692.424 8 -10318449.16446  23225231.977    23225242.5314
  22776622.571   -13349775.108 8 -10384719.18646  22776622.003    22776630.9044
 99  9 25 18 41  0.0000000  0  7 29 15 21 25 31 01 08
  20838936.212   -14896605.251 9 -11585317.45447  20838936.155    20838942.6144
  20895628.676   -24466887.001 9 -19043536.14847  20895628.068    20895635.7854
  21377482.758    -3240715.570 8  -2314493.13947  21377482.307    21377490.2334
  22746948.970   -16743814.006 8 -13028564.34346  22746948.905    22746957.9544
  23754540.760    -6018983.514 8  -4670715.61845  23754540.184    23754550.3174
  23208278.246   -13354786.643 8 -10387873.12846  23208277.824    23208288.3484
  22785609.093   -13302550.944 8 -10347921.21646  22785608.541    22785617.5164
 99  9 25 18 41 30.0000000  0  7 29 15 21 25 31 01 08
  20848318.565   -14847300.835 9 -11546898.46547  20848318.519    20848324.9444
  20884208.107   -24526902.242 9 -19090301.23647  20884207.504    20884215.2454
  21385822.339    -3196890.633 8  -2280343.89747  21385821.913    21385829.8674
  22729613.331   -16834913.492 8 -13099550.86846  22729613.177    22729622.2564
  23769649.469    -5939587.210 8  -4608848.49145  23769648.934    23769658.9944
  23191369.662   -13443641.527 8 -10457110.60346  23191369.259    23191379.7264
  22794705.471   -13254749.547 8 -10310673.45546  22794704.845    22794713.8114
 99  9 25 18 42  0.0000000  0  7 29 15 21 25 31 01 08
  20857759.433   -14797689.037 9 -11508239.95947  20857759.384    20857765.8074
  20872881.561   -24586423.535 9 -19136681.43347  20872880.955    20872888.6834
  21394216.771    -3152777.888 8  -2245970.38247  21394216.302    21394224.2944
  22712327.218   -16925752.400 8 -13170334.34546  22712327.033    22712336.0664
  23784801.428    -5859963.484 8  -4546804.16445  23784800.935    23784811.0364
  23174508.782   -13532245.524 8 -10526152.60746  23174508.402    23174518.8134
  22803910.743   -13206375.302 8 -10272979.30246  22803910.211    22803919.2604
 99  9 25 18 42 30.0000000  0  7 29 15 21 25 31 01 08
  20867256.517   -14747781.471 9 -11469350.98647  20867256.479    20867262.9464
  20861647.771   -24645457.097 9 -19182681.57447  20861647.162    20861654.9234
  21402664.876    -3108382.777 8  -2211376.84847  21402664.464    21402672.4544
  22695088.439   -17016342.439 8 -13240923.88946  22695088.218    22695097.2544
  23799997.708    -5780106.584 8  -4484578.13945  23799997.254    23800007.3444
  23157694.400   -13620605.589 8 -10595004.51446  23157693.993    23157704.3474
  22813222.216   -13157443.742 8 -10234850.85246  22813221.666    22813230.6134
 99  9 25 18 43  0.0000000  0  7 29 15 21 25 31 01 08
  20876808.342   -14697586.129 9 -11430237.77547  20876808.346    20876814.8304
  20850506.345   -24704005.269 9 -19228303.50147  20850505.785    20850513.5614
  21411166.278    -3063707.518 8  -2176565.02247  21411165.888    21411173.9124
  22677895.200   -17106692.277 8 -13311326.25846  22677895.080    22677904.0924
  23815238.401    -5700016.614 8  -4422170.49845  23815237.924    23815248.0764
  23140922.586   -13708741.563 8 -10663681.83546  23140922.153    23140932.4774
  22822640.142   -13107951.649 8 -10196285.63346  22822639.645    22822648.7304
 99  9 25 18 43 30.0000000  0  7 29 15 21 25 31 01 08
  20886411.887   -14647119.379 9 -11390913.07547  20886411.878    20886418.3674
  20839455.271   -24762078.701 9 -19273555.50347  20839454.706    20839462.4774
  21419718.322    -3018766.530 8  -2141546.13047  21419717.938    21419725.9914
  22660744.900   -17196817.100 8 -13381553.28446  22660744.823    22660753.7964
  23830521.497    -5619703.578 8  -4359589.03945  23830520.983    23830531.2584
  23124191.192   -13796665.166 8 -10732193.68046  23124190.766    23124201.0814
  22832164.440   -13057900.824 8 -10157285.02346  22832164.002    22832173.1294
 99  9 25 18 44  0.0000000  0  7 29 15 21 25 31 01 08
  20896067.553   -14596378.369 9 -11351374.66647  20896067.563    20896074.0834
  20828492.993   -24819685.620 9 -19318443.99447  20828492.455    20828500.2084
  21428319.242    -2973568.643 8  -2106327.06447  21428318.863    21428326.9454
  22643634.240   -17286733.472 8 -13451617.87346  22643634.168    22643643.1474
  23845844.445    -5539181.066 8  -4296844.36245  23845844.005    23845854.3714
  23107498.399   -13884385.933 8 -10800547.44546  23107497.992    23107508.3404
  22841792.952   -13007303.261 8 -10117858.37046  22841792.436    22841801.6404
 99  9 25 18 44 30.0000000  0  7 29 15 21 25 31 01 08
  20905777.030   -14545354.714 9 -11311616.01047  20905777.042    20905783.6184
  20817619.480   -24876826.264 9 -19362969.15247  20817618.922    20817626.6544
  21436970.082    -2928108.532 8  -2070903.66047  21436969.695    21436977.7814
  22626564.724   -17376433.765 8 -13521514.08346  22626564.725    22626573.6604
  23861208.972    -5458440.513 8  -4233929.77645  23861208.498    23861218.7704
  23090842.192   -13971914.289 8 -10868751.31646  23090841.823    23090852.0874
  22851524.265   -12956165.276 8 -10078010.60646  22851523.709    22851532.9114
 99  9 25 18 45  0.0000000  0  7 29 15 21 25 31 01 08
  20915540.557   -14494047.120 9 -11271636.10247  20915540.573    20915547.1934
  20806835.979   -24933494.025 9 -19407125.82647  20806835.428    20806843.1294
  21445670.993    -2882385.158 8  -2035275.12447  21445670.591    21445678.6764
  22609540.417   -17465896.989 8 -13591225.56646  22609540.391    22609549.2794
  23876613.422    -5377490.525 8  -4170852.00145  23876612.925    23876623.2224
  23074225.396   -14059235.803 8 -10936794.00246  23074225.056    23074235.2634
  22861359.167   -12904482.565 8 -10037738.38446  22861358.651    22861367.7804
 99  9 25 18 45 30.0000000  0  7 29 15 21 25 31 01 08
  20925361.750   -14442436.190 9 -11231419.83247  20925361.803    20925368.4654
  20796143.294   -24989684.462 9 -19450910.56747  20796142.750    20796150.4784
  21454420.322    -2836407.347 8  -1999448.33347  21454419.914    21454428.0284
  22592562.204   -17555117.773 8 -13660748.13746  22592562.145    22592571.0324
  23892057.135    -5296334.285 8  -4107613.50145  23892056.563    23892066.8374
  23057651.694   -14146331.272 8 -11004660.53646  23057651.321    23057661.4914
  22871296.327   -12852262.877 8  -9997047.73646  22871295.811    22871304.9184
 99  9 25 18 46  0.0000000  0  7 29 15 21 25 31 01 08
  20935243.945   -14390505.102 9 -11190954.08647  20935243.992    20935250.6524
  20785545.246   -25045377.719 9 -19494307.89047  20785544.647    20785552.3774
  21463217.951    -2790175.532 8  -1963423.61447  21463217.563    21463225.6824
  22575633.299   -17644079.445 8 -13730068.78946  22575633.194    22575642.1424
  23907541.893    -5214961.927 8  -4044206.61445  23907541.413    23907551.6664
  23041125.467   -14233177.072 8 -11072332.54346  23041125.101    23041135.2104
  22881336.267   -12799502.551 8  -9955935.84446  22881335.811    22881344.8204
 99  9 25 18 46 30.0000000  0  7 29 15 21 25 31 01 08
  20945184.567   -14338267.133 9 -11150249.21847  20945184.610    20945191.2634
  20775042.012   -25100572.471 9 -19537316.77747  20775041.428    20775049.1574
  21472063.079    -2743694.339 8  -1927204.58047  21472062.690    21472070.8334
  22558755.774   -17732770.960 8 -13799178.93646  22558755.669    22558764.6134
  23923066.591    -5133379.473 8  -3980636.01945  23923066.156    23923076.4674
  23024649.426   -14319758.790 8 -11139798.76346  23024649.048    23024659.2294
  22891481.198   -12746190.989 8  -9914394.39446  22891480.658    22891489.7874
 99  9 25 18 47  0.0000000  0  8 29 15 21 25 14 31 01 08
  20955177.996   -14285751.625 9 -11109328.08547  20955178.022    20955184.6714
  20764627.839   -25155299.076 9 -19579960.87247  20764627.268    20764634.9784
  21480947.528    -2697006.626 8  -1890824.62047  21480947.150    21480955.2804
  22541923.634   -17821224.139 8 -13868103.36646  22541923.481    22541932.3994
  24685598.905    -5628208.971 7  -4370091.87545  24685598.635    24685611.7824
  23938621.253    -5051639.336 8  -3916942.53545  23938620.907    23938631.3004
  23008217.835   -14406107.078 8 -11207083.09946  23008217.452    23008227.6144
  22901725.154   -12692359.032 8  -9872447.46746  22901724.606    22901733.7164
 99  9 25 18 47 30.0000000  0  8 29 15 21 25 14 31 01 08
  20965226.154   -14232948.468 9 -11068182.81147  20965226.176    20965232.8184
  20754306.382   -25209538.888 9 -19622225.64547  20754305.773    20754313.5044
  21489876.672    -2650083.968 8  -1854261.58947  21489876.278    21489884.4154
  22525135.824   -17909444.277 8 -13936846.21046  22525135.683    22525144.5254
  24668875.332    -5716091.270 7  -4438571.49545  24668875.143    24668888.2094
  23954209.928    -4969720.515 7  -3853109.83045  23954209.556    23954219.9554
  22991833.292   -14492207.442 8 -11274174.23546  22991832.995    22991843.1994
  22912069.720   -12637998.056 8  -9830088.33846  22912069.184    22912078.2464
 99  9 25 18 48  0.0000000  0  8 29 15 21 25 14 31 01 08
  20975332.971   -14179837.045 9 -11026797.32947  20975332.979    20975339.5954
  20744085.455   -25263250.165 9 -19664078.56847  20744084.869    20744092.5644
  21498861.904    -2602866.774 8  -1817469.03747  21498861.508    21498869.6424
  22508399.590   -17997393.266 8 -14005377.77446  22508399.479    22508408.2184
  24652154.797    -5803958.938 7  -4507039.71545  24652154.489    24652167.2974
  23969838.425    -4887592.520 7  -3789114.13445  23969838.076    23969848.6054
  22975502.854   -14578024.517 8 -11341044.63346  22975502.521    22975512.7404
  22922523.469   -12583063.595 8  -9787282.33346  22922522.908    22922532.0094
 99  9 25 18 48 30.0000000  0  8 29 15 21 25 14 31 01 08
  20985496.430   -14126428.046 9 -10985179.97147  20985496.433    20985503.0354
  20733962.655   -25316445.675 9 -19705529.59747  20733962.057    20733969.7564
  21507903.861    -2555351.201 8  -1780443.99547  21507903.468    21507911.6094
  22491714.081   -18085075.562 8 -14073701.52646  22491714.011    22491722.6874
  24635432.759    -5891833.286 7  -4575513.13945  24635432.415    24635445.1794
  23985502.182    -4805279.473 7  -3724974.23745  23985501.832    23985512.3364
  22959222.022   -14663580.595 8 -11407711.66346  22959221.702    22959231.8834
  22933082.292   -12527577.070 8  -9744046.15446  22933081.728    22933090.8034
 99  9 25 18 49  0.0000000  0  8 29 15 21 25 14 31 01 08
  20995717.415   -14072716.955 9 -10943327.21547  20995717.387    20995723.9644
  20723940.373   -25369113.027 9 -19746569.07647  20723939.775    20723947.4594
  21517004.052    -2507529.607 8  -1743180.48147  21517003.658    21517011.8124
  22475082.576   -18172474.399 8 -14141804.41446  22475082.474    22475091.0664
  24618710.991    -5979706.768 7  -4643985.89045  24618710.771    24618723.2044
  24001201.321    -4722780.932 7  -3660689.79945  24001200.993    24001211.3474
  22942989.461   -14748883.386 8 -11474181.32746  22942989.129    22942999.2824
  22943743.019   -12471554.318 8  -9700392.14646  22943742.488    22943751.6284
 99  9 25 18 49 30.0000000  0  8 29 15 21 25 14 31 01 08
  21005995.795   -14018704.042 9 -10901239.27247  21005995.762    21006002.3074
  20714020.060   -25421244.643 9 -19787191.09747  20714019.443    20714027.1404
  21526163.607    -2459396.109 8  -1705673.94047  21526163.187    21526171.3984
  22458506.488   -18259581.773 8 -14209680.18546  22458506.410    22458514.9934
  24601991.069    -6067570.547 7  -4712451.08145  24601990.786    24602003.1884
  24016938.456    -4640083.154 8  -3596250.11245  24016937.979    24016948.2784
  22926805.036   -14833933.080 8 -11540453.76146  22926804.683    22926814.8384
  22954505.834   -12414995.754 8  -9656320.61546  22954505.336    22954514.3994
 99  9 25 18 50  0.0000000  0  8 29 15 21 25 14 31 01 08
  21016330.672   -13964394.072 9 -10858919.85447  21016330.637    21016337.1664
  20704201.699   -25472840.538 9 -19827395.66547  20704201.090    20704208.7734
  21535378.525    -2410971.618 8  -1667940.63347  21535378.108    21535386.3124
  22441990.601   -18346373.056 8 -14277309.67346  22441990.533    22441999.0724
  24585275.772    -6155408.912 7  -4780896.44745  24585275.639    24585288.0414
  24032711.640    -4557195.134 7  -3531662.18745  24032711.140    24032721.5844
  22910667.309   -14918737.783 8 -11606535.29746  22910666.926    22910676.9644
  22965371.643   -12357895.524 8  -9611827.00346  22965371.154    22965380.2514
 99  9 25 18 50 30.0000000  0  8 29 15 21 25 14 31 01 08
  21026722.883   -13909782.624 9 -10816365.51547  21026722.863    21026729.4314
  20694484.999   -25523902.087 9 -19867183.86147  20694484.397    20694492.0974
  21544644.821    -2362277.169 8  -1629996.97147  21544644.423    21544652.6524
  22425535.574   -18432844.519 8 -14344689.94646  22425535.455    22425543.9824
  24568566.972    -6243214.056 7  -4849315.90845  24568566.785    24568579.1424
  24048522.741    -4474107.655 7  -3466918.82745  24048522.214    24048532.7434
  22894574.133   -15003307.817 8 -11672433.97546  22894573.727    22894583.7254
  22976339.637   -12300258.637 8  -9566915.22946  22976339.112    22976348.3174
 99  9 25 18 51  0.0000000  0  8 29 15 21 25 14 31 01 08
  21037171.002   -13854877.150 9 -10773582.06447  21037170.999    21037177.6154
  20684869.544   -25574431.692 9 -19906557.55747  20684868.903    20684876.5794
  21553960.435    -2313323.998 8  -1591851.70447  21553959.984    21553968.1924
  22409139.832   -18519004.262 8 -14411827.33446  22409139.716    22409148.2904
  24551862.550    -6330995.371 7  -4917716.77745  24551862.390    24551874.6984
  24064374.724    -4390805.572 7  -3402008.26045  24064374.150    24064384.7764
  22878525.700   -15087642.808 8 -11738149.49946  22878525.326    22878535.2904
  22987409.561   -12242085.899 8  -9521585.87446  22987409.098    22987418.2934
 99  9 25 18 51 30.0000000  0  8 29 15 21 25 14 31 01 08
  21047673.556   -13799685.889 9 -10730575.92147  21047673.559    21047680.2114
  20675352.547   -25624443.719 9 -19945527.94647  20675351.922    20675359.5784
  21563321.689    -2264130.456 8  -1553519.13047  21563321.263    21563329.5294
  22392798.691   -18604877.004 8 -14478741.09246  22392798.618    22392807.1784
  24535160.561    -6418764.912 7  -4986108.44645  24535160.222    24535172.6274
  24080267.079    -4307291.396 7  -3336932.41945  24080266.488    24080277.1534
  22862521.499   -15171745.064 8 -11803683.66246  22862521.096    22862531.0594
  22998583.833   -12183365.456 8  -9475829.74646  22998583.322    22998592.4864
 99  9 25 18 52  0.0000000  0  8 29 15 21 25 14 31 01 08
  21058226.961   -13744227.790 9 -10687361.84347  21058226.943    21058233.6064
  20665932.114   -25673948.174 9 -19984102.82447  20665931.483    20665939.1104
  21572727.587    -2214702.360 8  -1515003.79347  21572727.132    21572735.4714
  22376510.941   -18690469.742 8 -14545436.67246  22376510.794    22376519.3434
  24518456.445    -6506544.338 7  -5054507.80845  24518456.217    24518468.8124
  24096194.590    -4223592.240 7  -3271712.45045  24096193.952    24096204.6024
  22846562.780   -15255608.454 8 -11869031.69546  22846562.394    22846572.3924
  23009859.636   -12124110.485 8  -9429657.08846  23009859.166    23009868.4044
 99  9 25 18 52 30.0000000  0  8 29 15 21 25 14 31 01 08
  21068830.901   -13688503.968 9 -10643940.71947  21068830.842    21068837.5184
  20656608.308   -25722945.123 9 -20022282.24947  20656607.688    20656615.2804
  21582180.841    -2165025.246 8  -1476294.41447  21582180.427    21582188.7594
  22360274.384   -18775793.033 8 -14611922.30546  22360274.274    22360282.7664
  24501747.417    -6594349.868 7  -5122927.50045  24501747.144    24501759.7424
  24112156.274    -4139713.850 7  -3206352.81545  24112155.592    24112166.3584
  22830649.904   -15339230.771 8 -11934191.87046  22830649.510    22830659.5114
  23021235.713   -12064330.102 8  -9383075.00446  23021235.121    23021244.3504
 99  9 25 18 53  0.0000000  0  8 29 15 21 25 14 31 01 08
  21079482.656   -13632528.610 9 -10600323.59647  21079482.618    21079489.3064
  20647381.546   -25771432.294 9 -20060064.44547  20647380.896    20647388.4584
  21591684.128    -2115085.098 8  -1437380.07647  21591683.738    21591692.1224
  22344089.120   -18860847.167 8 -14678198.19846  22344088.979    22344097.4344
  24485034.168    -6682178.243 7  -5191364.97745  24485033.884    24485046.4574
  24128146.901    -4055683.112 7  -3140874.47845  24128146.341    24128156.9324
  22814786.295   -15422594.520 8 -11999150.57646  22814785.862    22814795.8274
  23032711.346   -12004025.614 8  -9336084.51746  23032710.786    23032719.9414
 99  9 25 18 53 30.0000000  0  8 29 15 21 25 14 31 01 08
  21090180.128   -13576313.429 9 -10556519.59847  21090180.062    21090186.7664
  20638252.324   -25819406.612 9 -20097447.01847  20638251.686    20638259.2264
  21601237.960    -2064879.913 8  -1398259.20747  21601237.544    21601245.8954
  22327956.302   -18945625.676 8 -14744259.32546  22327956.158    22327964.5294
  24468320.173    -6770008.798 7  -5259804.16845  24468319.975    24468332.7434
  24144161.251    -3971528.542 7  -3075299.61045  24144160.655    24144171.1944
  22798972.830   -15505694.720 8 -12063903.89846  22798972.360    22798982.3714
  23044285.975   -11943200.276 8  -9288688.19045  23044285.423    23044294.6544
 99  9 25 18 54  0.0000000  0  8 29 15 21 25 14 31 01 08
  21100922.119   -13519863.997 9 -10512533.06547  21100922.056    21100928.7584
  20629222.613   -25866858.019 9 -20134422.13147  20629221.987    20629229.5214
  21610845.171    -2014394.177 8  -1358919.74247  21610844.733    21610853.0634
  22311878.849   -19030112.911 8 -14810093.48446  22311878.678    22311887.0304
  24451609.248    -6857823.782 7  -5328231.24945  24451609.124    24451622.0464
  24160197.260    -3887259.287 8  -3009635.40945  24160196.713    24160207.1914
  22783209.341   -15588532.169 8 -12128452.48746  22783208.903    22783218.8374
  23055955.213   -11881878.301 8  -9240904.86045  23055954.695    23055963.7864
 99  9 25 18 54 30.0000000  0  8 29 15 21 25 14 31 01 08
  21111711.198   -13463167.283 9 -10468353.84047  21111711.116    21111717.8434
  20620293.930   -25913778.614 9 -20170983.62447  20620293.278    20620300.8164
  21620505.329    -1963629.861 8  -1319363.18847  21620504.866    21620513.2294
  22295858.534   -19114299.940 8 -14875693.73146  22295858.389    22295866.7874
  24434905.435    -6945602.730 7  -5396630.24145  24434905.197    24434918.0784
  24176256.761    -3802866.499 7  -2943874.94245  24176256.226    24176266.6874
  22767492.856   -15671122.914 8 -12192808.82146  22767492.383    22767502.3294
  23067719.029   -11820059.326 8  -9192734.26145  23067718.450    23067727.6234
 99  9 25 18 55  0.0000000  0  8 29 15 21 25 14 31 01 08
  21122548.383   -13406217.459 9 -10423977.38947  21122548.314    21122555.0984
  20611467.339   -25960162.762 9 -20207127.10247  20611466.659    20611474.2264
  21630217.202    -1912593.684 8  -1279594.81247  21630216.752    21630225.1964
  22279898.073   -19198172.457 8 -14941048.91546  22279897.958    22279906.3224
  24418211.035    -7033331.885 7  -5464990.42245  24418210.835    24418223.5684
  24192340.902    -3718344.226 7  -2878013.58045  24192340.351    24192350.7924
  22751824.566   -15753460.052 8 -12256967.54446  22751824.100    22751834.0264
  23079575.717   -11757751.663 8  -9144182.88845  23079575.202    23079584.3764
 99  9 25 18 55 30.0000000  0  8 29 15 21 25 14 31 01 08
  21133436.682   -13348999.088 9 -10379391.68147  21133436.636    21133443.4304
  20602743.650   -26006005.910 9 -20242849.01947  20602742.968    20602750.5674
  21639979.534    -1861292.472 8  -1239619.90847  21639979.074    21639987.5424
  22263999.865   -19281717.827 8 -15006149.17046  22263999.754    22264008.1554
  24401525.549    -7121014.860 7  -5533314.66545  24401525.266    24401537.9944
  24208453.621    -3633672.127 7  -2812035.43945  24208453.107    24208463.5394
  22736202.524   -15835554.082 8 -12320936.82946  22736202.094    22736211.9954
  23091524.769   -11694958.930 8  -9095253.52445  23091524.261    23091533.5184
 99  9 25 18 56  0.0000000  0  8 29 15 21 25 14 31 01 08
  21144379.563   -13291494.110 9 -10334582.64647  21144379.501    21144386.2814
  20594123.437   -26051305.072 9 -20278147.05547  20594122.795    20594130.4004
  21649793.637    -1809719.336 8  -1199433.11847  21649793.190    21649801.6614
  22248163.808   -19364936.879 8 -15070995.15046  22248163.667    22248172.0794
  24384846.425    -7208663.605 7  -5601612.23745  24384846.212    24384858.7184
  24224596.795    -3548838.862 7  -2745931.75545  24224596.411    24224607.0114
  22720626.803   -15917404.995 8 -12384716.65946  22720626.377    22720636.1724
  23103566.897   -11631677.025 8  -9045943.01245  23103566.364    23103575.6824
 99  9 25 18 56 30.0000000  0  8 29 15 21 25 14 31 01 08
  21155377.476   -13233699.666 9 -10289548.05447  21155377.427    21155384.2044
  20585606.183   -26096063.698 9 -20313023.89247  20585605.522    20585613.1154
  21659658.611    -1757878.850 8  -1159038.00947  21659658.170    21659666.6284
  22232390.155   -19447828.130 8 -15135585.69746  22232389.987    22232398.3734
  24368171.036    -7296291.877 7  -5669893.84345  24368171.007    24368183.3004
  24240770.879    -3463844.150 7  -2679702.25145  24240770.364    24240781.1394
  22705099.862   -15998999.222 8 -12448296.47146  22705099.407    22705109.1994
  23115704.992   -11567891.221 8  -8996239.85345  23115704.441    23115713.8364
